<?xml version="1.0" encoding="UTF-8" standalone="no" ?>
<gpx xmlns="http://www.topografix.com/GPX/1/1" xmlns:xsi="http://www.w3.org/2001/XMLSchema-instance" xsi:schemaLocation="http://www.topografix.com/GPX/1/1 http://www.topografix.com/GPX/1/1/gpx.xsd" version="1.1" creator="VisuGPX - https://www.visugpx.com">
  <metadata>
    <name>R38 Km - 5 août 2019</name>
    <desc><![CDATA[comment ...]]></desc>
  </metadata>
  <trk>
    <name><![CDATA[R38 Km - 5 août 2019]]></name>
    <desc><![CDATA[comment ...]]></desc>
    <trkseg>
      <trkpt lat="47.83765" lon="0.4299">
        <ele>117</ele>
        <time>2019-08-05T06:49:06Z</time>
      </trkpt>
      <trkpt lat="47.83765" lon="0.4299">
        <ele>118</ele>
        <time>2019-08-05T06:49:07Z</time>
      </trkpt>
      <trkpt lat="47.83766" lon="0.42986">
        <ele>119</ele>
        <time>2019-08-05T06:49:25Z</time>
      </trkpt>
      <trkpt lat="47.83765" lon="0.42981">
        <ele>123</ele>
        <time>2019-08-05T06:49:28Z</time>
      </trkpt>
      <trkpt lat="47.83768" lon="0.42965">
        <ele>119</ele>
        <time>2019-08-05T06:49:38Z</time>
      </trkpt>
      <trkpt lat="47.83767" lon="0.4296">
        <ele>118</ele>
        <time>2019-08-05T06:49:40Z</time>
      </trkpt>
      <trkpt lat="47.83766" lon="0.42956">
        <ele>116</ele>
        <time>2019-08-05T06:49:42Z</time>
      </trkpt>
      <trkpt lat="47.83767" lon="0.4295">
        <ele>114</ele>
        <time>2019-08-05T06:49:47Z</time>
      </trkpt>
      <trkpt lat="47.8377" lon="0.42941">
        <ele>113</ele>
        <time>2019-08-05T06:49:53Z</time>
      </trkpt>
      <trkpt lat="47.8377" lon="0.42925">
        <ele>112</ele>
        <time>2019-08-05T06:50:02Z</time>
      </trkpt>
      <trkpt lat="47.83772" lon="0.4292">
        <ele>112</ele>
        <time>2019-08-05T06:50:05Z</time>
      </trkpt>
      <trkpt lat="47.83773" lon="0.42909">
        <ele>112</ele>
        <time>2019-08-05T06:50:11Z</time>
      </trkpt>
      <trkpt lat="47.83773" lon="0.42903">
        <ele>112</ele>
        <time>2019-08-05T06:50:14Z</time>
      </trkpt>
      <trkpt lat="47.83775" lon="0.42898">
        <ele>113</ele>
        <time>2019-08-05T06:50:17Z</time>
      </trkpt>
      <trkpt lat="47.83775" lon="0.42894">
        <ele>112</ele>
        <time>2019-08-05T06:50:20Z</time>
      </trkpt>
      <trkpt lat="47.83777" lon="0.42848">
        <ele>112</ele>
        <time>2019-08-05T06:50:42Z</time>
      </trkpt>
      <trkpt lat="47.83778" lon="0.42843">
        <ele>112</ele>
        <time>2019-08-05T06:50:44Z</time>
      </trkpt>
      <trkpt lat="47.83779" lon="0.42832">
        <ele>112</ele>
        <time>2019-08-05T06:50:50Z</time>
      </trkpt>
      <trkpt lat="47.83779" lon="0.42808">
        <ele>112</ele>
        <time>2019-08-05T06:51:02Z</time>
      </trkpt>
      <trkpt lat="47.8378" lon="0.42789">
        <ele>112</ele>
        <time>2019-08-05T06:51:11Z</time>
      </trkpt>
      <trkpt lat="47.8378" lon="0.42751">
        <ele>113</ele>
        <time>2019-08-05T06:51:29Z</time>
      </trkpt>
      <trkpt lat="47.8378" lon="0.42747">
        <ele>113</ele>
        <time>2019-08-05T06:51:31Z</time>
      </trkpt>
      <trkpt lat="47.83779" lon="0.42732">
        <ele>112</ele>
        <time>2019-08-05T06:51:38Z</time>
      </trkpt>
      <trkpt lat="47.83781" lon="0.42726">
        <ele>113</ele>
        <time>2019-08-05T06:51:41Z</time>
      </trkpt>
      <trkpt lat="47.83784" lon="0.42723">
        <ele>113</ele>
        <time>2019-08-05T06:51:43Z</time>
      </trkpt>
      <trkpt lat="47.83786" lon="0.42722">
        <ele>113</ele>
        <time>2019-08-05T06:51:46Z</time>
      </trkpt>
      <trkpt lat="47.83796" lon="0.4272">
        <ele>115</ele>
        <time>2019-08-05T06:51:52Z</time>
      </trkpt>
      <trkpt lat="47.838" lon="0.42719">
        <ele>115</ele>
        <time>2019-08-05T06:51:54Z</time>
      </trkpt>
      <trkpt lat="47.83821" lon="0.42714">
        <ele>115</ele>
        <time>2019-08-05T06:52:11Z</time>
      </trkpt>
      <trkpt lat="47.83825" lon="0.42713">
        <ele>112</ele>
        <time>2019-08-05T06:52:14Z</time>
      </trkpt>
      <trkpt lat="47.83828" lon="0.42712">
        <ele>110</ele>
        <time>2019-08-05T06:52:17Z</time>
      </trkpt>
      <trkpt lat="47.8384" lon="0.42708">
        <ele>106</ele>
        <time>2019-08-05T06:52:26Z</time>
      </trkpt>
      <trkpt lat="47.83842" lon="0.42706">
        <ele>105</ele>
        <time>2019-08-05T06:52:29Z</time>
      </trkpt>
      <trkpt lat="47.83844" lon="0.427">
        <ele>104</ele>
        <time>2019-08-05T06:52:32Z</time>
      </trkpt>
      <trkpt lat="47.83857" lon="0.42688">
        <ele>103</ele>
        <time>2019-08-05T06:52:42Z</time>
      </trkpt>
      <trkpt lat="47.83881" lon="0.42675">
        <ele>106</ele>
        <time>2019-08-05T06:53:00Z</time>
      </trkpt>
      <trkpt lat="47.8391" lon="0.42672">
        <ele>106</ele>
        <time>2019-08-05T06:53:21Z</time>
      </trkpt>
      <trkpt lat="47.83921" lon="0.42668">
        <ele>106</ele>
        <time>2019-08-05T06:53:28Z</time>
      </trkpt>
      <trkpt lat="47.83925" lon="0.42668">
        <ele>113</ele>
        <time>2019-08-05T06:53:30Z</time>
      </trkpt>
      <trkpt lat="47.83963" lon="0.42659">
        <ele>106</ele>
        <time>2019-08-05T06:54:00Z</time>
      </trkpt>
      <trkpt lat="47.83982" lon="0.42657">
        <ele>108</ele>
        <time>2019-08-05T06:54:14Z</time>
      </trkpt>
      <trkpt lat="47.83985" lon="0.42656">
        <ele>108</ele>
        <time>2019-08-05T06:54:17Z</time>
      </trkpt>
      <trkpt lat="47.84044" lon="0.42633">
        <ele>110</ele>
        <time>2019-08-05T06:54:57Z</time>
      </trkpt>
      <trkpt lat="47.84051" lon="0.42635">
        <ele>111</ele>
        <time>2019-08-05T06:55:06Z</time>
      </trkpt>
      <trkpt lat="47.8408" lon="0.42633">
        <ele>120</ele>
        <time>2019-08-05T06:55:28Z</time>
      </trkpt>
      <trkpt lat="47.84094" lon="0.4263">
        <ele>121</ele>
        <time>2019-08-05T06:55:38Z</time>
      </trkpt>
      <trkpt lat="47.84134" lon="0.42624">
        <ele>122</ele>
        <time>2019-08-05T06:56:09Z</time>
      </trkpt>
      <trkpt lat="47.84167" lon="0.42619">
        <ele>121</ele>
        <time>2019-08-05T06:56:32Z</time>
      </trkpt>
      <trkpt lat="47.8417" lon="0.42619">
        <ele>122</ele>
        <time>2019-08-05T06:56:34Z</time>
      </trkpt>
      <trkpt lat="47.84196" lon="0.42614">
        <ele>126</ele>
        <time>2019-08-05T06:56:52Z</time>
      </trkpt>
      <trkpt lat="47.84203" lon="0.42611">
        <ele>127</ele>
        <time>2019-08-05T06:56:58Z</time>
      </trkpt>
      <trkpt lat="47.84221" lon="0.42608">
        <ele>135</ele>
        <time>2019-08-05T06:57:11Z</time>
      </trkpt>
      <trkpt lat="47.84232" lon="0.42606">
        <ele>136</ele>
        <time>2019-08-05T06:57:18Z</time>
      </trkpt>
      <trkpt lat="47.84247" lon="0.42604">
        <ele>137</ele>
        <time>2019-08-05T06:57:30Z</time>
      </trkpt>
      <trkpt lat="47.84275" lon="0.42596">
        <ele>139</ele>
        <time>2019-08-05T06:57:51Z</time>
      </trkpt>
      <trkpt lat="47.84279" lon="0.42595">
        <ele>139</ele>
        <time>2019-08-05T06:57:54Z</time>
      </trkpt>
      <trkpt lat="47.84321" lon="0.42583">
        <ele>140</ele>
        <time>2019-08-05T06:58:25Z</time>
      </trkpt>
      <trkpt lat="47.84325" lon="0.42583">
        <ele>141</ele>
        <time>2019-08-05T06:58:28Z</time>
      </trkpt>
      <trkpt lat="47.84329" lon="0.42582">
        <ele>141</ele>
        <time>2019-08-05T06:58:30Z</time>
      </trkpt>
      <trkpt lat="47.84341" lon="0.42579">
        <ele>140</ele>
        <time>2019-08-05T06:58:39Z</time>
      </trkpt>
      <trkpt lat="47.84344" lon="0.42577">
        <ele>136</ele>
        <time>2019-08-05T06:58:42Z</time>
      </trkpt>
      <trkpt lat="47.84351" lon="0.42575">
        <ele>135</ele>
        <time>2019-08-05T06:58:46Z</time>
      </trkpt>
      <trkpt lat="47.84355" lon="0.42576">
        <ele>136</ele>
        <time>2019-08-05T06:58:49Z</time>
      </trkpt>
      <trkpt lat="47.84361" lon="0.42575">
        <ele>136</ele>
        <time>2019-08-05T06:58:53Z</time>
      </trkpt>
      <trkpt lat="47.84364" lon="0.42573">
        <ele>136</ele>
        <time>2019-08-05T06:58:55Z</time>
      </trkpt>
      <trkpt lat="47.84377" lon="0.42572">
        <ele>138</ele>
        <time>2019-08-05T06:59:03Z</time>
      </trkpt>
      <trkpt lat="47.84381" lon="0.4257">
        <ele>137</ele>
        <time>2019-08-05T06:59:06Z</time>
      </trkpt>
      <trkpt lat="47.84389" lon="0.42568">
        <ele>143</ele>
        <time>2019-08-05T06:59:12Z</time>
      </trkpt>
      <trkpt lat="47.8442" lon="0.42557">
        <ele>137</ele>
        <time>2019-08-05T06:59:35Z</time>
      </trkpt>
      <trkpt lat="47.84445" lon="0.42547">
        <ele>145</ele>
        <time>2019-08-05T06:59:55Z</time>
      </trkpt>
      <trkpt lat="47.84452" lon="0.42544">
        <ele>144</ele>
        <time>2019-08-05T07:00:01Z</time>
      </trkpt>
      <trkpt lat="47.84477" lon="0.42537">
        <ele>144</ele>
        <time>2019-08-05T07:00:19Z</time>
      </trkpt>
      <trkpt lat="47.84482" lon="0.42535">
        <ele>144</ele>
        <time>2019-08-05T07:00:23Z</time>
      </trkpt>
      <trkpt lat="47.84491" lon="0.42533">
        <ele>145</ele>
        <time>2019-08-05T07:00:29Z</time>
      </trkpt>
      <trkpt lat="47.84499" lon="0.4253">
        <ele>146</ele>
        <time>2019-08-05T07:00:35Z</time>
      </trkpt>
      <trkpt lat="47.84505" lon="0.42526">
        <ele>146</ele>
        <time>2019-08-05T07:00:40Z</time>
      </trkpt>
      <trkpt lat="47.84508" lon="0.42525">
        <ele>146</ele>
        <time>2019-08-05T07:00:42Z</time>
      </trkpt>
      <trkpt lat="47.84511" lon="0.42521">
        <ele>146</ele>
        <time>2019-08-05T07:00:45Z</time>
      </trkpt>
      <trkpt lat="47.84518" lon="0.42511">
        <ele>146</ele>
        <time>2019-08-05T07:00:52Z</time>
      </trkpt>
      <trkpt lat="47.84524" lon="0.42494">
        <ele>147</ele>
        <time>2019-08-05T07:01:01Z</time>
      </trkpt>
      <trkpt lat="47.8453" lon="0.42473">
        <ele>141</ele>
        <time>2019-08-05T07:01:12Z</time>
      </trkpt>
      <trkpt lat="47.84534" lon="0.42456">
        <ele>147</ele>
        <time>2019-08-05T07:01:21Z</time>
      </trkpt>
      <trkpt lat="47.8454" lon="0.4244">
        <ele>148</ele>
        <time>2019-08-05T07:01:30Z</time>
      </trkpt>
      <trkpt lat="47.84553" lon="0.42383">
        <ele>143</ele>
        <time>2019-08-05T07:02:00Z</time>
      </trkpt>
      <trkpt lat="47.84578" lon="0.42346">
        <ele>134</ele>
        <time>2019-08-05T07:02:22Z</time>
      </trkpt>
      <trkpt lat="47.84586" lon="0.42337">
        <ele>146</ele>
        <time>2019-08-05T07:02:29Z</time>
      </trkpt>
      <trkpt lat="47.8459" lon="0.42334">
        <ele>148</ele>
        <time>2019-08-05T07:02:32Z</time>
      </trkpt>
      <trkpt lat="47.84605" lon="0.42329">
        <ele>148</ele>
        <time>2019-08-05T07:02:43Z</time>
      </trkpt>
      <trkpt lat="47.84616" lon="0.42326">
        <ele>143</ele>
        <time>2019-08-05T07:02:52Z</time>
      </trkpt>
      <trkpt lat="47.8462" lon="0.42325">
        <ele>142</ele>
        <time>2019-08-05T07:02:55Z</time>
      </trkpt>
      <trkpt lat="47.84624" lon="0.42324">
        <ele>143</ele>
        <time>2019-08-05T07:02:58Z</time>
      </trkpt>
      <trkpt lat="47.84635" lon="0.42318">
        <ele>143</ele>
        <time>2019-08-05T07:03:06Z</time>
      </trkpt>
      <trkpt lat="47.84641" lon="0.42309">
        <ele>143</ele>
        <time>2019-08-05T07:03:12Z</time>
      </trkpt>
      <trkpt lat="47.84645" lon="0.42306">
        <ele>143</ele>
        <time>2019-08-05T07:03:15Z</time>
      </trkpt>
      <trkpt lat="47.84682" lon="0.42268">
        <ele>150</ele>
        <time>2019-08-05T07:03:47Z</time>
      </trkpt>
      <trkpt lat="47.84708" lon="0.42239">
        <ele>141</ele>
        <time>2019-08-05T07:04:10Z</time>
      </trkpt>
      <trkpt lat="47.8471" lon="0.42236">
        <ele>140</ele>
        <time>2019-08-05T07:04:12Z</time>
      </trkpt>
      <trkpt lat="47.84746" lon="0.42193">
        <ele>149</ele>
        <time>2019-08-05T07:04:43Z</time>
      </trkpt>
      <trkpt lat="47.84781" lon="0.42153">
        <ele>152</ele>
        <time>2019-08-05T07:05:15Z</time>
      </trkpt>
      <trkpt lat="47.84804" lon="0.42127">
        <ele>152</ele>
        <time>2019-08-05T07:05:36Z</time>
      </trkpt>
      <trkpt lat="47.84861" lon="0.42041">
        <ele>146</ele>
        <time>2019-08-05T07:06:28Z</time>
      </trkpt>
      <trkpt lat="47.84894" lon="0.42019">
        <ele>148</ele>
        <time>2019-08-05T07:06:57Z</time>
      </trkpt>
      <trkpt lat="47.84906" lon="0.41992">
        <ele>148</ele>
        <time>2019-08-05T07:07:13Z</time>
      </trkpt>
      <trkpt lat="47.84908" lon="0.41989">
        <ele>149</ele>
        <time>2019-08-05T07:07:15Z</time>
      </trkpt>
      <trkpt lat="47.8491" lon="0.41985">
        <ele>149</ele>
        <time>2019-08-05T07:07:17Z</time>
      </trkpt>
      <trkpt lat="47.84914" lon="0.41978">
        <ele>150</ele>
        <time>2019-08-05T07:07:22Z</time>
      </trkpt>
      <trkpt lat="47.84916" lon="0.41975">
        <ele>151</ele>
        <time>2019-08-05T07:07:25Z</time>
      </trkpt>
      <trkpt lat="47.84919" lon="0.41971">
        <ele>152</ele>
        <time>2019-08-05T07:07:28Z</time>
      </trkpt>
      <trkpt lat="47.84922" lon="0.41967">
        <ele>151</ele>
        <time>2019-08-05T07:07:31Z</time>
      </trkpt>
      <trkpt lat="47.84924" lon="0.41962">
        <ele>151</ele>
        <time>2019-08-05T07:07:35Z</time>
      </trkpt>
      <trkpt lat="47.84931" lon="0.4195">
        <ele>150</ele>
        <time>2019-08-05T07:07:41Z</time>
      </trkpt>
      <trkpt lat="47.84943" lon="0.41929">
        <ele>148</ele>
        <time>2019-08-05T07:07:54Z</time>
      </trkpt>
      <trkpt lat="47.84956" lon="0.4192">
        <ele>149</ele>
        <time>2019-08-05T07:08:03Z</time>
      </trkpt>
      <trkpt lat="47.84958" lon="0.41917">
        <ele>149</ele>
        <time>2019-08-05T07:08:05Z</time>
      </trkpt>
      <trkpt lat="47.84964" lon="0.4191">
        <ele>150</ele>
        <time>2019-08-05T07:08:10Z</time>
      </trkpt>
      <trkpt lat="47.84974" lon="0.41896">
        <ele>152</ele>
        <time>2019-08-05T07:08:19Z</time>
      </trkpt>
      <trkpt lat="47.84977" lon="0.41894">
        <ele>152</ele>
        <time>2019-08-05T07:08:21Z</time>
      </trkpt>
      <trkpt lat="47.85003" lon="0.41866">
        <ele>148</ele>
        <time>2019-08-05T07:08:44Z</time>
      </trkpt>
      <trkpt lat="47.85012" lon="0.41858">
        <ele>148</ele>
        <time>2019-08-05T07:08:54Z</time>
      </trkpt>
      <trkpt lat="47.85016" lon="0.41855">
        <ele>146</ele>
        <time>2019-08-05T07:08:57Z</time>
      </trkpt>
      <trkpt lat="47.8502" lon="0.41852">
        <ele>146</ele>
        <time>2019-08-05T07:09:00Z</time>
      </trkpt>
      <trkpt lat="47.85023" lon="0.41851">
        <ele>146</ele>
        <time>2019-08-05T07:09:03Z</time>
      </trkpt>
      <trkpt lat="47.85031" lon="0.41848">
        <ele>147</ele>
        <time>2019-08-05T07:09:08Z</time>
      </trkpt>
      <trkpt lat="47.85045" lon="0.41845">
        <ele>147</ele>
        <time>2019-08-05T07:09:18Z</time>
      </trkpt>
      <trkpt lat="47.85053" lon="0.41847">
        <ele>148</ele>
        <time>2019-08-05T07:09:25Z</time>
      </trkpt>
      <trkpt lat="47.8506" lon="0.41851">
        <ele>149</ele>
        <time>2019-08-05T07:09:32Z</time>
      </trkpt>
      <trkpt lat="47.85077" lon="0.41856">
        <ele>151</ele>
        <time>2019-08-05T07:13:49Z</time>
      </trkpt>
      <trkpt lat="47.85086" lon="0.4186">
        <ele>152</ele>
        <time>2019-08-05T07:14:02Z</time>
      </trkpt>
      <trkpt lat="47.85095" lon="0.41864">
        <ele>152</ele>
        <time>2019-08-05T07:14:08Z</time>
      </trkpt>
      <trkpt lat="47.85112" lon="0.41867">
        <ele>151</ele>
        <time>2019-08-05T07:14:24Z</time>
      </trkpt>
      <trkpt lat="47.85121" lon="0.41863">
        <ele>150</ele>
        <time>2019-08-05T07:14:34Z</time>
      </trkpt>
      <trkpt lat="47.8513" lon="0.41858">
        <ele>149</ele>
        <time>2019-08-05T07:14:42Z</time>
      </trkpt>
      <trkpt lat="47.85138" lon="0.41853">
        <ele>148</ele>
        <time>2019-08-05T07:14:51Z</time>
      </trkpt>
      <trkpt lat="47.85156" lon="0.41845">
        <ele>148</ele>
        <time>2019-08-05T07:15:10Z</time>
      </trkpt>
      <trkpt lat="47.85178" lon="0.41839">
        <ele>149</ele>
        <time>2019-08-05T07:15:35Z</time>
      </trkpt>
      <trkpt lat="47.85184" lon="0.4183">
        <ele>149</ele>
        <time>2019-08-05T07:15:41Z</time>
      </trkpt>
      <trkpt lat="47.85187" lon="0.41817">
        <ele>150</ele>
        <time>2019-08-05T07:17:04Z</time>
      </trkpt>
      <trkpt lat="47.85187" lon="0.41812">
        <ele>151</ele>
        <time>2019-08-05T07:17:07Z</time>
      </trkpt>
      <trkpt lat="47.85187" lon="0.418">
        <ele>151</ele>
        <time>2019-08-05T07:17:14Z</time>
      </trkpt>
      <trkpt lat="47.85187" lon="0.41794">
        <ele>152</ele>
        <time>2019-08-05T07:17:17Z</time>
      </trkpt>
      <trkpt lat="47.85185" lon="0.41789">
        <ele>152</ele>
        <time>2019-08-05T07:17:20Z</time>
      </trkpt>
      <trkpt lat="47.85185" lon="0.41783">
        <ele>152</ele>
        <time>2019-08-05T07:17:23Z</time>
      </trkpt>
      <trkpt lat="47.85191" lon="0.41769">
        <ele>152</ele>
        <time>2019-08-05T07:17:32Z</time>
      </trkpt>
      <trkpt lat="47.85194" lon="0.41765">
        <ele>151</ele>
        <time>2019-08-05T07:17:35Z</time>
      </trkpt>
      <trkpt lat="47.85196" lon="0.41761">
        <ele>151</ele>
        <time>2019-08-05T07:17:38Z</time>
      </trkpt>
      <trkpt lat="47.85198" lon="0.41756">
        <ele>150</ele>
        <time>2019-08-05T07:17:41Z</time>
      </trkpt>
      <trkpt lat="47.85209" lon="0.41732">
        <ele>150</ele>
        <time>2019-08-05T07:17:56Z</time>
      </trkpt>
      <trkpt lat="47.85216" lon="0.4171">
        <ele>150</ele>
        <time>2019-08-05T07:18:08Z</time>
      </trkpt>
      <trkpt lat="47.85222" lon="0.41696">
        <ele>151</ele>
        <time>2019-08-05T07:18:16Z</time>
      </trkpt>
      <trkpt lat="47.85229" lon="0.41671">
        <ele>151</ele>
        <time>2019-08-05T07:18:29Z</time>
      </trkpt>
      <trkpt lat="47.8523" lon="0.41667">
        <ele>151</ele>
        <time>2019-08-05T07:18:31Z</time>
      </trkpt>
      <trkpt lat="47.85239" lon="0.41654">
        <ele>151</ele>
        <time>2019-08-05T07:18:40Z</time>
      </trkpt>
      <trkpt lat="47.85242" lon="0.4165">
        <ele>151</ele>
        <time>2019-08-05T07:18:43Z</time>
      </trkpt>
      <trkpt lat="47.85246" lon="0.41643">
        <ele>151</ele>
        <time>2019-08-05T07:18:47Z</time>
      </trkpt>
      <trkpt lat="47.85248" lon="0.41631">
        <ele>151</ele>
        <time>2019-08-05T07:18:53Z</time>
      </trkpt>
      <trkpt lat="47.85249" lon="0.41625">
        <ele>150</ele>
        <time>2019-08-05T07:18:56Z</time>
      </trkpt>
      <trkpt lat="47.85254" lon="0.41603">
        <ele>150</ele>
        <time>2019-08-05T07:19:08Z</time>
      </trkpt>
      <trkpt lat="47.85255" lon="0.41598">
        <ele>150</ele>
        <time>2019-08-05T07:19:11Z</time>
      </trkpt>
      <trkpt lat="47.85256" lon="0.41592">
        <ele>150</ele>
        <time>2019-08-05T07:19:14Z</time>
      </trkpt>
      <trkpt lat="47.85259" lon="0.41577">
        <ele>149</ele>
        <time>2019-08-05T07:19:21Z</time>
      </trkpt>
      <trkpt lat="47.85263" lon="0.41562">
        <ele>149</ele>
        <time>2019-08-05T07:19:29Z</time>
      </trkpt>
      <trkpt lat="47.85276" lon="0.41542">
        <ele>150</ele>
        <time>2019-08-05T07:19:44Z</time>
      </trkpt>
      <trkpt lat="47.85282" lon="0.41524">
        <ele>148</ele>
        <time>2019-08-05T07:19:59Z</time>
      </trkpt>
      <trkpt lat="47.85299" lon="0.41496">
        <ele>147</ele>
        <time>2019-08-05T07:20:15Z</time>
      </trkpt>
      <trkpt lat="47.85307" lon="0.4148">
        <ele>145</ele>
        <time>2019-08-05T07:20:27Z</time>
      </trkpt>
      <trkpt lat="47.85312" lon="0.41475">
        <ele>144</ele>
        <time>2019-08-05T07:20:36Z</time>
      </trkpt>
      <trkpt lat="47.8532" lon="0.41458">
        <ele>145</ele>
        <time>2019-08-05T07:20:45Z</time>
      </trkpt>
      <trkpt lat="47.85327" lon="0.41449">
        <ele>145</ele>
        <time>2019-08-05T07:20:51Z</time>
      </trkpt>
      <trkpt lat="47.85329" lon="0.41444">
        <ele>144</ele>
        <time>2019-08-05T07:20:54Z</time>
      </trkpt>
      <trkpt lat="47.85334" lon="0.41436">
        <ele>144</ele>
        <time>2019-08-05T07:20:59Z</time>
      </trkpt>
      <trkpt lat="47.85337" lon="0.41433">
        <ele>144</ele>
        <time>2019-08-05T07:21:01Z</time>
      </trkpt>
      <trkpt lat="47.85341" lon="0.41433">
        <ele>144</ele>
        <time>2019-08-05T07:21:03Z</time>
      </trkpt>
      <trkpt lat="47.85344" lon="0.41436">
        <ele>143</ele>
        <time>2019-08-05T07:21:05Z</time>
      </trkpt>
      <trkpt lat="47.85351" lon="0.41447">
        <ele>144</ele>
        <time>2019-08-05T07:21:11Z</time>
      </trkpt>
      <trkpt lat="47.85359" lon="0.41469">
        <ele>146</ele>
        <time>2019-08-05T07:21:22Z</time>
      </trkpt>
      <trkpt lat="47.85359" lon="0.41475">
        <ele>147</ele>
        <time>2019-08-05T07:21:24Z</time>
      </trkpt>
      <trkpt lat="47.85359" lon="0.41479">
        <ele>148</ele>
        <time>2019-08-05T07:21:26Z</time>
      </trkpt>
      <trkpt lat="47.85388" lon="0.41525">
        <ele>147</ele>
        <time>2019-08-05T07:21:56Z</time>
      </trkpt>
      <trkpt lat="47.85413" lon="0.41557">
        <ele>144</ele>
        <time>2019-08-05T07:22:20Z</time>
      </trkpt>
      <trkpt lat="47.8542" lon="0.41569">
        <ele>144</ele>
        <time>2019-08-05T07:22:29Z</time>
      </trkpt>
      <trkpt lat="47.85445" lon="0.41615">
        <ele>144</ele>
        <time>2019-08-05T07:22:57Z</time>
      </trkpt>
      <trkpt lat="47.85447" lon="0.41619">
        <ele>143</ele>
        <time>2019-08-05T07:23:00Z</time>
      </trkpt>
      <trkpt lat="47.85449" lon="0.41623">
        <ele>144</ele>
        <time>2019-08-05T07:23:02Z</time>
      </trkpt>
      <trkpt lat="47.85452" lon="0.41627">
        <ele>143</ele>
        <time>2019-08-05T07:23:05Z</time>
      </trkpt>
      <trkpt lat="47.85463" lon="0.41638">
        <ele>141</ele>
        <time>2019-08-05T07:23:14Z</time>
      </trkpt>
      <trkpt lat="47.85466" lon="0.41644">
        <ele>141</ele>
        <time>2019-08-05T07:23:18Z</time>
      </trkpt>
      <trkpt lat="47.85481" lon="0.41671">
        <ele>141</ele>
        <time>2019-08-05T07:23:34Z</time>
      </trkpt>
      <trkpt lat="47.85487" lon="0.41684">
        <ele>140</ele>
        <time>2019-08-05T07:23:41Z</time>
      </trkpt>
      <trkpt lat="47.8549" lon="0.4169">
        <ele>141</ele>
        <time>2019-08-05T07:23:44Z</time>
      </trkpt>
      <trkpt lat="47.85493" lon="0.41693">
        <ele>142</ele>
        <time>2019-08-05T07:23:46Z</time>
      </trkpt>
      <trkpt lat="47.85495" lon="0.41697">
        <ele>143</ele>
        <time>2019-08-05T07:23:48Z</time>
      </trkpt>
      <trkpt lat="47.85498" lon="0.417">
        <ele>143</ele>
        <time>2019-08-05T07:23:50Z</time>
      </trkpt>
      <trkpt lat="47.8551" lon="0.41726">
        <ele>143</ele>
        <time>2019-08-05T07:24:13Z</time>
      </trkpt>
      <trkpt lat="47.85512" lon="0.41729">
        <ele>143</ele>
        <time>2019-08-05T07:24:25Z</time>
      </trkpt>
      <trkpt lat="47.85524" lon="0.4172">
        <ele>143</ele>
        <time>2019-08-05T07:24:52Z</time>
      </trkpt>
      <trkpt lat="47.85527" lon="0.41718">
        <ele>144</ele>
        <time>2019-08-05T07:24:54Z</time>
      </trkpt>
      <trkpt lat="47.85546" lon="0.41696">
        <ele>141</ele>
        <time>2019-08-05T07:25:12Z</time>
      </trkpt>
      <trkpt lat="47.8555" lon="0.41693">
        <ele>141</ele>
        <time>2019-08-05T07:25:15Z</time>
      </trkpt>
      <trkpt lat="47.85557" lon="0.41688">
        <ele>141</ele>
        <time>2019-08-05T07:25:20Z</time>
      </trkpt>
      <trkpt lat="47.85561" lon="0.41686">
        <ele>142</ele>
        <time>2019-08-05T07:25:23Z</time>
      </trkpt>
      <trkpt lat="47.85564" lon="0.41683">
        <ele>142</ele>
        <time>2019-08-05T07:25:26Z</time>
      </trkpt>
      <trkpt lat="47.85572" lon="0.41673">
        <ele>141</ele>
        <time>2019-08-05T07:25:33Z</time>
      </trkpt>
      <trkpt lat="47.85575" lon="0.4167">
        <ele>141</ele>
        <time>2019-08-05T07:25:36Z</time>
      </trkpt>
      <trkpt lat="47.85581" lon="0.41666">
        <ele>140</ele>
        <time>2019-08-05T07:25:40Z</time>
      </trkpt>
      <trkpt lat="47.85584" lon="0.41665">
        <ele>141</ele>
        <time>2019-08-05T07:25:42Z</time>
      </trkpt>
      <trkpt lat="47.85593" lon="0.41658">
        <ele>140</ele>
        <time>2019-08-05T07:25:49Z</time>
      </trkpt>
      <trkpt lat="47.85598" lon="0.41649">
        <ele>138</ele>
        <time>2019-08-05T07:25:54Z</time>
      </trkpt>
      <trkpt lat="47.85605" lon="0.41643">
        <ele>138</ele>
        <time>2019-08-05T07:25:58Z</time>
      </trkpt>
      <trkpt lat="47.85612" lon="0.41633">
        <ele>138</ele>
        <time>2019-08-05T07:26:06Z</time>
      </trkpt>
      <trkpt lat="47.85613" lon="0.41628">
        <ele>138</ele>
        <time>2019-08-05T07:26:09Z</time>
      </trkpt>
      <trkpt lat="47.85614" lon="0.41623">
        <ele>138</ele>
        <time>2019-08-05T07:26:12Z</time>
      </trkpt>
      <trkpt lat="47.85615" lon="0.41618">
        <ele>137</ele>
        <time>2019-08-05T07:26:15Z</time>
      </trkpt>
      <trkpt lat="47.85616" lon="0.41613">
        <ele>136</ele>
        <time>2019-08-05T07:26:17Z</time>
      </trkpt>
      <trkpt lat="47.8562" lon="0.416">
        <ele>135</ele>
        <time>2019-08-05T07:26:24Z</time>
      </trkpt>
      <trkpt lat="47.85625" lon="0.41585">
        <ele>133</ele>
        <time>2019-08-05T07:26:32Z</time>
      </trkpt>
      <trkpt lat="47.8563" lon="0.41562">
        <ele>132</ele>
        <time>2019-08-05T07:26:42Z</time>
      </trkpt>
      <trkpt lat="47.85634" lon="0.41547">
        <ele>133</ele>
        <time>2019-08-05T07:27:02Z</time>
      </trkpt>
      <trkpt lat="47.85637" lon="0.4154">
        <ele>133</ele>
        <time>2019-08-05T07:27:05Z</time>
      </trkpt>
      <trkpt lat="47.85645" lon="0.41533">
        <ele>132</ele>
        <time>2019-08-05T07:27:11Z</time>
      </trkpt>
      <trkpt lat="47.85647" lon="0.41528">
        <ele>132</ele>
        <time>2019-08-05T07:27:14Z</time>
      </trkpt>
      <trkpt lat="47.85648" lon="0.41522">
        <ele>134</ele>
        <time>2019-08-05T07:27:28Z</time>
      </trkpt>
      <trkpt lat="47.85645" lon="0.41522">
        <ele>134</ele>
        <time>2019-08-05T07:27:52Z</time>
      </trkpt>
      <trkpt lat="47.85641" lon="0.4152">
        <ele>135</ele>
        <time>2019-08-05T07:28:01Z</time>
      </trkpt>
      <trkpt lat="47.85642" lon="0.41515">
        <ele>137</ele>
        <time>2019-08-05T07:28:04Z</time>
      </trkpt>
      <trkpt lat="47.85643" lon="0.41509">
        <ele>137</ele>
        <time>2019-08-05T07:28:07Z</time>
      </trkpt>
      <trkpt lat="47.85642" lon="0.41505">
        <ele>137</ele>
        <time>2019-08-05T07:28:10Z</time>
      </trkpt>
      <trkpt lat="47.85647" lon="0.41489">
        <ele>138</ele>
        <time>2019-08-05T07:28:19Z</time>
      </trkpt>
      <trkpt lat="47.85657" lon="0.41473">
        <ele>141</ele>
        <time>2019-08-05T07:28:31Z</time>
      </trkpt>
      <trkpt lat="47.85657" lon="0.41469">
        <ele>140</ele>
        <time>2019-08-05T07:28:34Z</time>
      </trkpt>
      <trkpt lat="47.85658" lon="0.41464">
        <ele>140</ele>
        <time>2019-08-05T07:28:37Z</time>
      </trkpt>
      <trkpt lat="47.85669" lon="0.41451">
        <ele>140</ele>
        <time>2019-08-05T07:28:45Z</time>
      </trkpt>
      <trkpt lat="47.85673" lon="0.41443">
        <ele>140</ele>
        <time>2019-08-05T07:28:49Z</time>
      </trkpt>
      <trkpt lat="47.85675" lon="0.41438">
        <ele>139</ele>
        <time>2019-08-05T07:28:52Z</time>
      </trkpt>
      <trkpt lat="47.8568" lon="0.41422">
        <ele>137</ele>
        <time>2019-08-05T07:29:01Z</time>
      </trkpt>
      <trkpt lat="47.85682" lon="0.4141">
        <ele>137</ele>
        <time>2019-08-05T07:29:07Z</time>
      </trkpt>
      <trkpt lat="47.85688" lon="0.41397">
        <ele>137</ele>
        <time>2019-08-05T07:29:14Z</time>
      </trkpt>
      <trkpt lat="47.85693" lon="0.41377">
        <ele>138</ele>
        <time>2019-08-05T07:29:24Z</time>
      </trkpt>
      <trkpt lat="47.85695" lon="0.41371">
        <ele>137</ele>
        <time>2019-08-05T07:29:27Z</time>
      </trkpt>
      <trkpt lat="47.85696" lon="0.41362">
        <ele>138</ele>
        <time>2019-08-05T07:29:33Z</time>
      </trkpt>
      <trkpt lat="47.85696" lon="0.41357">
        <ele>138</ele>
        <time>2019-08-05T07:29:37Z</time>
      </trkpt>
      <trkpt lat="47.85697" lon="0.41348">
        <ele>139</ele>
        <time>2019-08-05T07:29:41Z</time>
      </trkpt>
      <trkpt lat="47.85696" lon="0.41338">
        <ele>139</ele>
        <time>2019-08-05T07:29:45Z</time>
      </trkpt>
      <trkpt lat="47.85698" lon="0.41331">
        <ele>139</ele>
        <time>2019-08-05T07:29:50Z</time>
      </trkpt>
      <trkpt lat="47.85703" lon="0.4132">
        <ele>140</ele>
        <time>2019-08-05T07:29:59Z</time>
      </trkpt>
      <trkpt lat="47.85724" lon="0.41292">
        <ele>138</ele>
        <time>2019-08-05T07:30:18Z</time>
      </trkpt>
      <trkpt lat="47.85727" lon="0.41284">
        <ele>139</ele>
        <time>2019-08-05T07:30:25Z</time>
      </trkpt>
      <trkpt lat="47.85732" lon="0.41284">
        <ele>140</ele>
        <time>2019-08-05T07:30:28Z</time>
      </trkpt>
      <trkpt lat="47.85743" lon="0.41289">
        <ele>140</ele>
        <time>2019-08-05T07:30:35Z</time>
      </trkpt>
      <trkpt lat="47.85746" lon="0.41288">
        <ele>140</ele>
        <time>2019-08-05T07:30:38Z</time>
      </trkpt>
      <trkpt lat="47.8575" lon="0.41286">
        <ele>141</ele>
        <time>2019-08-05T07:30:42Z</time>
      </trkpt>
      <trkpt lat="47.85753" lon="0.41287">
        <ele>142</ele>
        <time>2019-08-05T07:30:46Z</time>
      </trkpt>
      <trkpt lat="47.85761" lon="0.41288">
        <ele>143</ele>
        <time>2019-08-05T07:30:52Z</time>
      </trkpt>
      <trkpt lat="47.85771" lon="0.41293">
        <ele>144</ele>
        <time>2019-08-05T07:30:58Z</time>
      </trkpt>
      <trkpt lat="47.85775" lon="0.41295">
        <ele>144</ele>
        <time>2019-08-05T07:31:01Z</time>
      </trkpt>
      <trkpt lat="47.85779" lon="0.41296">
        <ele>145</ele>
        <time>2019-08-05T07:31:03Z</time>
      </trkpt>
      <trkpt lat="47.85783" lon="0.41298">
        <ele>145</ele>
        <time>2019-08-05T07:31:06Z</time>
      </trkpt>
      <trkpt lat="47.85799" lon="0.41309">
        <ele>145</ele>
        <time>2019-08-05T07:31:20Z</time>
      </trkpt>
      <trkpt lat="47.85809" lon="0.41312">
        <ele>145</ele>
        <time>2019-08-05T07:31:27Z</time>
      </trkpt>
      <trkpt lat="47.85818" lon="0.41317">
        <ele>143</ele>
        <time>2019-08-05T07:31:32Z</time>
      </trkpt>
      <trkpt lat="47.85836" lon="0.41316">
        <ele>144</ele>
        <time>2019-08-05T07:31:50Z</time>
      </trkpt>
      <trkpt lat="47.85845" lon="0.41319">
        <ele>144</ele>
        <time>2019-08-05T07:32:05Z</time>
      </trkpt>
      <trkpt lat="47.85854" lon="0.41314">
        <ele>148</ele>
        <time>2019-08-05T07:32:13Z</time>
      </trkpt>
      <trkpt lat="47.85871" lon="0.41305">
        <ele>146</ele>
        <time>2019-08-05T07:32:27Z</time>
      </trkpt>
      <trkpt lat="47.85879" lon="0.41293">
        <ele>147</ele>
        <time>2019-08-05T07:32:35Z</time>
      </trkpt>
      <trkpt lat="47.85901" lon="0.41276">
        <ele>145</ele>
        <time>2019-08-05T07:32:47Z</time>
      </trkpt>
      <trkpt lat="47.85917" lon="0.41272">
        <ele>143</ele>
        <time>2019-08-05T07:32:57Z</time>
      </trkpt>
      <trkpt lat="47.85927" lon="0.41265">
        <ele>143</ele>
        <time>2019-08-05T07:33:09Z</time>
      </trkpt>
      <trkpt lat="47.85949" lon="0.41251">
        <ele>145</ele>
        <time>2019-08-05T07:33:26Z</time>
      </trkpt>
      <trkpt lat="47.85959" lon="0.41246">
        <ele>145</ele>
        <time>2019-08-05T07:33:33Z</time>
      </trkpt>
      <trkpt lat="47.85965" lon="0.41236">
        <ele>146</ele>
        <time>2019-08-05T07:33:41Z</time>
      </trkpt>
      <trkpt lat="47.85971" lon="0.4123">
        <ele>145</ele>
        <time>2019-08-05T07:33:45Z</time>
      </trkpt>
      <trkpt lat="47.85973" lon="0.41226">
        <ele>144</ele>
        <time>2019-08-05T07:33:50Z</time>
      </trkpt>
      <trkpt lat="47.85976" lon="0.41224">
        <ele>144</ele>
        <time>2019-08-05T07:33:53Z</time>
      </trkpt>
      <trkpt lat="47.8598" lon="0.41226">
        <ele>144</ele>
        <time>2019-08-05T07:33:56Z</time>
      </trkpt>
      <trkpt lat="47.85988" lon="0.41232">
        <ele>144</ele>
        <time>2019-08-05T07:34:02Z</time>
      </trkpt>
      <trkpt lat="47.85992" lon="0.41234">
        <ele>144</ele>
        <time>2019-08-05T07:34:05Z</time>
      </trkpt>
      <trkpt lat="47.86002" lon="0.41241">
        <ele>145</ele>
        <time>2019-08-05T07:34:12Z</time>
      </trkpt>
      <trkpt lat="47.86009" lon="0.41245">
        <ele>144</ele>
        <time>2019-08-05T07:34:16Z</time>
      </trkpt>
      <trkpt lat="47.86012" lon="0.41247">
        <ele>144</ele>
        <time>2019-08-05T07:34:18Z</time>
      </trkpt>
      <trkpt lat="47.86046" lon="0.4127">
        <ele>152</ele>
        <time>2019-08-05T07:34:45Z</time>
      </trkpt>
      <trkpt lat="47.86054" lon="0.41274">
        <ele>151</ele>
        <time>2019-08-05T07:34:53Z</time>
      </trkpt>
      <trkpt lat="47.86082" lon="0.41284">
        <ele>149</ele>
        <time>2019-08-05T07:35:17Z</time>
      </trkpt>
      <trkpt lat="47.86091" lon="0.41289">
        <ele>149</ele>
        <time>2019-08-05T07:35:24Z</time>
      </trkpt>
      <trkpt lat="47.861" lon="0.41296">
        <ele>150</ele>
        <time>2019-08-05T07:35:32Z</time>
      </trkpt>
      <trkpt lat="47.86108" lon="0.41301">
        <ele>151</ele>
        <time>2019-08-05T07:35:39Z</time>
      </trkpt>
      <trkpt lat="47.86123" lon="0.41322">
        <ele>151</ele>
        <time>2019-08-05T07:35:49Z</time>
      </trkpt>
      <trkpt lat="47.86132" lon="0.41329">
        <ele>154</ele>
        <time>2019-08-05T07:35:55Z</time>
      </trkpt>
      <trkpt lat="47.86165" lon="0.41352">
        <ele>146</ele>
        <time>2019-08-05T07:36:21Z</time>
      </trkpt>
      <trkpt lat="47.86198" lon="0.41376">
        <ele>145</ele>
        <time>2019-08-05T07:36:48Z</time>
      </trkpt>
      <trkpt lat="47.86206" lon="0.41379">
        <ele>146</ele>
        <time>2019-08-05T07:36:55Z</time>
      </trkpt>
      <trkpt lat="47.86215" lon="0.41378">
        <ele>147</ele>
        <time>2019-08-05T07:37:06Z</time>
      </trkpt>
      <trkpt lat="47.86219" lon="0.4138">
        <ele>146</ele>
        <time>2019-08-05T07:37:37Z</time>
      </trkpt>
      <trkpt lat="47.86217" lon="0.41384">
        <ele>150</ele>
        <time>2019-08-05T07:37:47Z</time>
      </trkpt>
      <trkpt lat="47.86215" lon="0.41387">
        <ele>150</ele>
        <time>2019-08-05T07:37:50Z</time>
      </trkpt>
      <trkpt lat="47.86212" lon="0.41396">
        <ele>150</ele>
        <time>2019-08-05T07:37:56Z</time>
      </trkpt>
      <trkpt lat="47.86215" lon="0.41434">
        <ele>147</ele>
        <time>2019-08-05T07:38:17Z</time>
      </trkpt>
      <trkpt lat="47.86212" lon="0.41483">
        <ele>152</ele>
        <time>2019-08-05T07:38:37Z</time>
      </trkpt>
      <trkpt lat="47.86213" lon="0.41492">
        <ele>148</ele>
        <time>2019-08-05T07:38:43Z</time>
      </trkpt>
      <trkpt lat="47.86211" lon="0.41507">
        <ele>149</ele>
        <time>2019-08-05T07:40:11Z</time>
      </trkpt>
      <trkpt lat="47.86205" lon="0.41574">
        <ele>152</ele>
        <time>2019-08-05T07:40:41Z</time>
      </trkpt>
      <trkpt lat="47.86204" lon="0.41585">
        <ele>153</ele>
        <time>2019-08-05T07:40:46Z</time>
      </trkpt>
      <trkpt lat="47.86204" lon="0.41599">
        <ele>153</ele>
        <time>2019-08-05T07:40:52Z</time>
      </trkpt>
      <trkpt lat="47.86205" lon="0.41615">
        <ele>151</ele>
        <time>2019-08-05T07:40:59Z</time>
      </trkpt>
      <trkpt lat="47.86202" lon="0.41647">
        <ele>149</ele>
        <time>2019-08-05T07:41:15Z</time>
      </trkpt>
      <trkpt lat="47.86203" lon="0.41653">
        <ele>149</ele>
        <time>2019-08-05T07:41:18Z</time>
      </trkpt>
      <trkpt lat="47.86204" lon="0.41659">
        <ele>148</ele>
        <time>2019-08-05T07:41:21Z</time>
      </trkpt>
      <trkpt lat="47.86203" lon="0.41663">
        <ele>149</ele>
        <time>2019-08-05T07:41:23Z</time>
      </trkpt>
      <trkpt lat="47.86202" lon="0.41669">
        <ele>150</ele>
        <time>2019-08-05T07:41:26Z</time>
      </trkpt>
      <trkpt lat="47.86202" lon="0.41686">
        <ele>146</ele>
        <time>2019-08-05T07:41:35Z</time>
      </trkpt>
      <trkpt lat="47.86202" lon="0.41715">
        <ele>150</ele>
        <time>2019-08-05T07:41:48Z</time>
      </trkpt>
      <trkpt lat="47.86201" lon="0.41719">
        <ele>150</ele>
        <time>2019-08-05T07:41:50Z</time>
      </trkpt>
      <trkpt lat="47.862" lon="0.4173">
        <ele>150</ele>
        <time>2019-08-05T07:41:55Z</time>
      </trkpt>
      <trkpt lat="47.86199" lon="0.4174">
        <ele>148</ele>
        <time>2019-08-05T07:42:00Z</time>
      </trkpt>
      <trkpt lat="47.86198" lon="0.41745">
        <ele>148</ele>
        <time>2019-08-05T07:42:02Z</time>
      </trkpt>
      <trkpt lat="47.86197" lon="0.41754">
        <ele>147</ele>
        <time>2019-08-05T07:42:06Z</time>
      </trkpt>
      <trkpt lat="47.86197" lon="0.41781">
        <ele>147</ele>
        <time>2019-08-05T07:42:19Z</time>
      </trkpt>
      <trkpt lat="47.86196" lon="0.41802">
        <ele>143</ele>
        <time>2019-08-05T07:42:30Z</time>
      </trkpt>
      <trkpt lat="47.86194" lon="0.41832">
        <ele>148</ele>
        <time>2019-08-05T07:42:43Z</time>
      </trkpt>
      <trkpt lat="47.86194" lon="0.41836">
        <ele>148</ele>
        <time>2019-08-05T07:42:45Z</time>
      </trkpt>
      <trkpt lat="47.86194" lon="0.41841">
        <ele>147</ele>
        <time>2019-08-05T07:42:47Z</time>
      </trkpt>
      <trkpt lat="47.86194" lon="0.41846">
        <ele>146</ele>
        <time>2019-08-05T07:42:49Z</time>
      </trkpt>
      <trkpt lat="47.86191" lon="0.41874">
        <ele>146</ele>
        <time>2019-08-05T07:43:01Z</time>
      </trkpt>
      <trkpt lat="47.86191" lon="0.41879">
        <ele>148</ele>
        <time>2019-08-05T07:43:03Z</time>
      </trkpt>
      <trkpt lat="47.86191" lon="0.41899">
        <ele>148</ele>
        <time>2019-08-05T07:43:12Z</time>
      </trkpt>
      <trkpt lat="47.86192" lon="0.41911">
        <ele>147</ele>
        <time>2019-08-05T07:43:18Z</time>
      </trkpt>
      <trkpt lat="47.86191" lon="0.41922">
        <ele>146</ele>
        <time>2019-08-05T07:43:24Z</time>
      </trkpt>
      <trkpt lat="47.86191" lon="0.41932">
        <ele>144</ele>
        <time>2019-08-05T07:43:29Z</time>
      </trkpt>
      <trkpt lat="47.86189" lon="0.42005">
        <ele>143</ele>
        <time>2019-08-05T07:44:04Z</time>
      </trkpt>
      <trkpt lat="47.86185" lon="0.4204">
        <ele>145</ele>
        <time>2019-08-05T07:44:21Z</time>
      </trkpt>
      <trkpt lat="47.86184" lon="0.42069">
        <ele>144</ele>
        <time>2019-08-05T07:44:35Z</time>
      </trkpt>
      <trkpt lat="47.86182" lon="0.42087">
        <ele>144</ele>
        <time>2019-08-05T07:44:44Z</time>
      </trkpt>
      <trkpt lat="47.86182" lon="0.42098">
        <ele>144</ele>
        <time>2019-08-05T07:44:49Z</time>
      </trkpt>
      <trkpt lat="47.86182" lon="0.42104">
        <ele>144</ele>
        <time>2019-08-05T07:44:52Z</time>
      </trkpt>
      <trkpt lat="47.86152" lon="0.42316">
        <ele>140</ele>
        <time>2019-08-05T07:46:24Z</time>
      </trkpt>
      <trkpt lat="47.8615" lon="0.42315">
        <ele>141</ele>
        <time>2019-08-05T07:46:35Z</time>
      </trkpt>
      <trkpt lat="47.86146" lon="0.42323">
        <ele>143</ele>
        <time>2019-08-05T07:46:42Z</time>
      </trkpt>
      <trkpt lat="47.8614" lon="0.42355">
        <ele>141</ele>
        <time>2019-08-05T07:47:00Z</time>
      </trkpt>
      <trkpt lat="47.86138" lon="0.42359">
        <ele>141</ele>
        <time>2019-08-05T07:47:03Z</time>
      </trkpt>
      <trkpt lat="47.86136" lon="0.4237">
        <ele>143</ele>
        <time>2019-08-05T07:47:11Z</time>
      </trkpt>
      <trkpt lat="47.86135" lon="0.42375">
        <ele>143</ele>
        <time>2019-08-05T07:47:13Z</time>
      </trkpt>
      <trkpt lat="47.86137" lon="0.42382">
        <ele>143</ele>
        <time>2019-08-05T07:47:16Z</time>
      </trkpt>
      <trkpt lat="47.86136" lon="0.42389">
        <ele>143</ele>
        <time>2019-08-05T07:47:19Z</time>
      </trkpt>
      <trkpt lat="47.86131" lon="0.42401">
        <ele>143</ele>
        <time>2019-08-05T07:47:25Z</time>
      </trkpt>
      <trkpt lat="47.8613" lon="0.42413">
        <ele>144</ele>
        <time>2019-08-05T07:47:31Z</time>
      </trkpt>
      <trkpt lat="47.86129" lon="0.42418">
        <ele>144</ele>
        <time>2019-08-05T07:47:33Z</time>
      </trkpt>
      <trkpt lat="47.86125" lon="0.42433">
        <ele>144</ele>
        <time>2019-08-05T07:47:39Z</time>
      </trkpt>
      <trkpt lat="47.86124" lon="0.42444">
        <ele>145</ele>
        <time>2019-08-05T07:47:45Z</time>
      </trkpt>
      <trkpt lat="47.86126" lon="0.4245">
        <ele>146</ele>
        <time>2019-08-05T07:47:49Z</time>
      </trkpt>
      <trkpt lat="47.86124" lon="0.42465">
        <ele>146</ele>
        <time>2019-08-05T07:47:56Z</time>
      </trkpt>
      <trkpt lat="47.86123" lon="0.42494">
        <ele>144</ele>
        <time>2019-08-05T07:48:09Z</time>
      </trkpt>
      <trkpt lat="47.86123" lon="0.42523">
        <ele>144</ele>
        <time>2019-08-05T07:48:22Z</time>
      </trkpt>
      <trkpt lat="47.86126" lon="0.42561">
        <ele>143</ele>
        <time>2019-08-05T07:48:36Z</time>
      </trkpt>
      <trkpt lat="47.86129" lon="0.42586">
        <ele>143</ele>
        <time>2019-08-05T07:48:44Z</time>
      </trkpt>
      <trkpt lat="47.86125" lon="0.42613">
        <ele>141</ele>
        <time>2019-08-05T07:48:54Z</time>
      </trkpt>
      <trkpt lat="47.86125" lon="0.42624">
        <ele>141</ele>
        <time>2019-08-05T07:48:58Z</time>
      </trkpt>
      <trkpt lat="47.86128" lon="0.42646">
        <ele>142</ele>
        <time>2019-08-05T07:49:06Z</time>
      </trkpt>
      <trkpt lat="47.86128" lon="0.42652">
        <ele>142</ele>
        <time>2019-08-05T07:49:08Z</time>
      </trkpt>
      <trkpt lat="47.86129" lon="0.42658">
        <ele>142</ele>
        <time>2019-08-05T07:49:11Z</time>
      </trkpt>
      <trkpt lat="47.8613" lon="0.42663">
        <ele>142</ele>
        <time>2019-08-05T07:49:13Z</time>
      </trkpt>
      <trkpt lat="47.86128" lon="0.4267">
        <ele>131</ele>
        <time>2019-08-05T07:49:17Z</time>
      </trkpt>
      <trkpt lat="47.86129" lon="0.42682">
        <ele>127</ele>
        <time>2019-08-05T07:49:22Z</time>
      </trkpt>
      <trkpt lat="47.86131" lon="0.42696">
        <ele>131</ele>
        <time>2019-08-05T07:49:29Z</time>
      </trkpt>
      <trkpt lat="47.86131" lon="0.42713">
        <ele>132</ele>
        <time>2019-08-05T07:49:36Z</time>
      </trkpt>
      <trkpt lat="47.86132" lon="0.42726">
        <ele>143</ele>
        <time>2019-08-05T07:49:42Z</time>
      </trkpt>
      <trkpt lat="47.86133" lon="0.42737">
        <ele>144</ele>
        <time>2019-08-05T07:49:47Z</time>
      </trkpt>
      <trkpt lat="47.86136" lon="0.42757">
        <ele>144</ele>
        <time>2019-08-05T07:49:55Z</time>
      </trkpt>
      <trkpt lat="47.86137" lon="0.42763">
        <ele>144</ele>
        <time>2019-08-05T07:49:58Z</time>
      </trkpt>
      <trkpt lat="47.86137" lon="0.42773">
        <ele>144</ele>
        <time>2019-08-05T07:50:02Z</time>
      </trkpt>
      <trkpt lat="47.86145" lon="0.42816">
        <ele>146</ele>
        <time>2019-08-05T07:50:21Z</time>
      </trkpt>
      <trkpt lat="47.86146" lon="0.42837">
        <ele>146</ele>
        <time>2019-08-05T07:50:31Z</time>
      </trkpt>
      <trkpt lat="47.86146" lon="0.42842">
        <ele>146</ele>
        <time>2019-08-05T07:50:34Z</time>
      </trkpt>
      <trkpt lat="47.86145" lon="0.42855">
        <ele>146</ele>
        <time>2019-08-05T07:50:40Z</time>
      </trkpt>
      <trkpt lat="47.86145" lon="0.4286">
        <ele>146</ele>
        <time>2019-08-05T07:50:43Z</time>
      </trkpt>
      <trkpt lat="47.86146" lon="0.42865">
        <ele>146</ele>
        <time>2019-08-05T07:50:45Z</time>
      </trkpt>
      <trkpt lat="47.86148" lon="0.42877">
        <ele>145</ele>
        <time>2019-08-05T07:50:51Z</time>
      </trkpt>
      <trkpt lat="47.86148" lon="0.42887">
        <ele>145</ele>
        <time>2019-08-05T07:50:57Z</time>
      </trkpt>
      <trkpt lat="47.86148" lon="0.42894">
        <ele>145</ele>
        <time>2019-08-05T07:51:00Z</time>
      </trkpt>
      <trkpt lat="47.86148" lon="0.42905">
        <ele>144</ele>
        <time>2019-08-05T07:51:06Z</time>
      </trkpt>
      <trkpt lat="47.86152" lon="0.4298">
        <ele>141</ele>
        <time>2019-08-05T07:51:36Z</time>
      </trkpt>
      <trkpt lat="47.86153" lon="0.42985">
        <ele>141</ele>
        <time>2019-08-05T07:51:38Z</time>
      </trkpt>
      <trkpt lat="47.86153" lon="0.4299">
        <ele>141</ele>
        <time>2019-08-05T07:51:40Z</time>
      </trkpt>
      <trkpt lat="47.86153" lon="0.43019">
        <ele>142</ele>
        <time>2019-08-05T07:51:52Z</time>
      </trkpt>
      <trkpt lat="47.86154" lon="0.43025">
        <ele>142</ele>
        <time>2019-08-05T07:51:55Z</time>
      </trkpt>
      <trkpt lat="47.86156" lon="0.43029">
        <ele>142</ele>
        <time>2019-08-05T07:51:57Z</time>
      </trkpt>
      <trkpt lat="47.86156" lon="0.43035">
        <ele>142</ele>
        <time>2019-08-05T07:52:00Z</time>
      </trkpt>
      <trkpt lat="47.86156" lon="0.43041">
        <ele>142</ele>
        <time>2019-08-05T07:52:03Z</time>
      </trkpt>
      <trkpt lat="47.86156" lon="0.43094">
        <ele>144</ele>
        <time>2019-08-05T07:52:26Z</time>
      </trkpt>
      <trkpt lat="47.86158" lon="0.43104">
        <ele>143</ele>
        <time>2019-08-05T07:52:30Z</time>
      </trkpt>
      <trkpt lat="47.8616" lon="0.43109">
        <ele>143</ele>
        <time>2019-08-05T07:52:32Z</time>
      </trkpt>
      <trkpt lat="47.86167" lon="0.43139">
        <ele>145</ele>
        <time>2019-08-05T07:52:49Z</time>
      </trkpt>
      <trkpt lat="47.86162" lon="0.43142">
        <ele>144</ele>
        <time>2019-08-05T07:52:55Z</time>
      </trkpt>
      <trkpt lat="47.86159" lon="0.43144">
        <ele>142</ele>
        <time>2019-08-05T07:53:00Z</time>
      </trkpt>
      <trkpt lat="47.86156" lon="0.43177">
        <ele>141</ele>
        <time>2019-08-05T07:53:19Z</time>
      </trkpt>
      <trkpt lat="47.86161" lon="0.43243">
        <ele>141</ele>
        <time>2019-08-05T07:53:48Z</time>
      </trkpt>
      <trkpt lat="47.86178" lon="0.43309">
        <ele>136</ele>
        <time>2019-08-05T07:54:19Z</time>
      </trkpt>
      <trkpt lat="47.86189" lon="0.43371">
        <ele>134</ele>
        <time>2019-08-05T07:54:49Z</time>
      </trkpt>
      <trkpt lat="47.86191" lon="0.43381">
        <ele>134</ele>
        <time>2019-08-05T07:54:54Z</time>
      </trkpt>
      <trkpt lat="47.86213" lon="0.43439">
        <ele>131</ele>
        <time>2019-08-05T07:55:25Z</time>
      </trkpt>
      <trkpt lat="47.86216" lon="0.43443">
        <ele>131</ele>
        <time>2019-08-05T07:55:28Z</time>
      </trkpt>
      <trkpt lat="47.86218" lon="0.43448">
        <ele>131</ele>
        <time>2019-08-05T07:55:32Z</time>
      </trkpt>
      <trkpt lat="47.86221" lon="0.43453">
        <ele>129</ele>
        <time>2019-08-05T07:55:35Z</time>
      </trkpt>
      <trkpt lat="47.86224" lon="0.43455">
        <ele>129</ele>
        <time>2019-08-05T07:55:43Z</time>
      </trkpt>
      <trkpt lat="47.86224" lon="0.43459">
        <ele>129</ele>
        <time>2019-08-05T07:56:21Z</time>
      </trkpt>
      <trkpt lat="47.86228" lon="0.43473">
        <ele>131</ele>
        <time>2019-08-05T07:57:14Z</time>
      </trkpt>
      <trkpt lat="47.86249" lon="0.43524">
        <ele>128</ele>
        <time>2019-08-05T07:57:44Z</time>
      </trkpt>
      <trkpt lat="47.86268" lon="0.43574">
        <ele>128</ele>
        <time>2019-08-05T07:58:15Z</time>
      </trkpt>
      <trkpt lat="47.86274" lon="0.43588">
        <ele>123</ele>
        <time>2019-08-05T07:58:22Z</time>
      </trkpt>
      <trkpt lat="47.86277" lon="0.43598">
        <ele>123</ele>
        <time>2019-08-05T07:58:27Z</time>
      </trkpt>
      <trkpt lat="47.86277" lon="0.43604">
        <ele>122</ele>
        <time>2019-08-05T07:58:29Z</time>
      </trkpt>
      <trkpt lat="47.86284" lon="0.43634">
        <ele>121</ele>
        <time>2019-08-05T07:58:44Z</time>
      </trkpt>
      <trkpt lat="47.86291" lon="0.43697">
        <ele>118</ele>
        <time>2019-08-05T07:59:14Z</time>
      </trkpt>
      <trkpt lat="47.86292" lon="0.43702">
        <ele>118</ele>
        <time>2019-08-05T07:59:17Z</time>
      </trkpt>
      <trkpt lat="47.86293" lon="0.43717">
        <ele>116</ele>
        <time>2019-08-05T07:59:26Z</time>
      </trkpt>
      <trkpt lat="47.86298" lon="0.43744">
        <ele>120</ele>
        <time>2019-08-05T07:59:44Z</time>
      </trkpt>
      <trkpt lat="47.86303" lon="0.43784">
        <ele>120</ele>
        <time>2019-08-05T08:00:03Z</time>
      </trkpt>
      <trkpt lat="47.86311" lon="0.43826">
        <ele>118</ele>
        <time>2019-08-05T08:00:22Z</time>
      </trkpt>
      <trkpt lat="47.86311" lon="0.4383">
        <ele>118</ele>
        <time>2019-08-05T08:00:24Z</time>
      </trkpt>
      <trkpt lat="47.86314" lon="0.43841">
        <ele>118</ele>
        <time>2019-08-05T08:00:30Z</time>
      </trkpt>
      <trkpt lat="47.86316" lon="0.43851">
        <ele>121</ele>
        <time>2019-08-05T08:00:36Z</time>
      </trkpt>
      <trkpt lat="47.86334" lon="0.43901">
        <ele>125</ele>
        <time>2019-08-05T08:01:06Z</time>
      </trkpt>
      <trkpt lat="47.86338" lon="0.43909">
        <ele>125</ele>
        <time>2019-08-05T08:01:11Z</time>
      </trkpt>
      <trkpt lat="47.86343" lon="0.43919">
        <ele>125</ele>
        <time>2019-08-05T08:01:17Z</time>
      </trkpt>
      <trkpt lat="47.86363" lon="0.43964">
        <ele>126</ele>
        <time>2019-08-05T08:01:47Z</time>
      </trkpt>
      <trkpt lat="47.86384" lon="0.44006">
        <ele>132</ele>
        <time>2019-08-05T08:02:20Z</time>
      </trkpt>
      <trkpt lat="47.86391" lon="0.44017">
        <ele>134</ele>
        <time>2019-08-05T08:02:30Z</time>
      </trkpt>
      <trkpt lat="47.86398" lon="0.44025">
        <ele>135</ele>
        <time>2019-08-05T08:02:36Z</time>
      </trkpt>
      <trkpt lat="47.864" lon="0.44028">
        <ele>136</ele>
        <time>2019-08-05T08:02:40Z</time>
      </trkpt>
      <trkpt lat="47.8641" lon="0.44037">
        <ele>138</ele>
        <time>2019-08-05T08:02:49Z</time>
      </trkpt>
      <trkpt lat="47.86418" lon="0.44051">
        <ele>139</ele>
        <time>2019-08-05T08:02:58Z</time>
      </trkpt>
      <trkpt lat="47.86426" lon="0.4406">
        <ele>141</ele>
        <time>2019-08-05T08:03:07Z</time>
      </trkpt>
      <trkpt lat="47.86429" lon="0.44064">
        <ele>142</ele>
        <time>2019-08-05T08:03:10Z</time>
      </trkpt>
      <trkpt lat="47.86451" lon="0.44098">
        <ele>142</ele>
        <time>2019-08-05T08:03:36Z</time>
      </trkpt>
      <trkpt lat="47.86454" lon="0.44103">
        <ele>142</ele>
        <time>2019-08-05T08:03:39Z</time>
      </trkpt>
      <trkpt lat="47.86461" lon="0.44115">
        <ele>141</ele>
        <time>2019-08-05T08:03:48Z</time>
      </trkpt>
      <trkpt lat="47.86464" lon="0.44123">
        <ele>141</ele>
        <time>2019-08-05T08:03:53Z</time>
      </trkpt>
      <trkpt lat="47.8649" lon="0.44173">
        <ele>141</ele>
        <time>2019-08-05T08:04:24Z</time>
      </trkpt>
      <trkpt lat="47.86512" lon="0.44214">
        <ele>141</ele>
        <time>2019-08-05T08:04:50Z</time>
      </trkpt>
      <trkpt lat="47.86533" lon="0.44269">
        <ele>139</ele>
        <time>2019-08-05T08:05:22Z</time>
      </trkpt>
      <trkpt lat="47.86537" lon="0.44279">
        <ele>139</ele>
        <time>2019-08-05T08:05:28Z</time>
      </trkpt>
      <trkpt lat="47.86541" lon="0.44288">
        <ele>138</ele>
        <time>2019-08-05T08:05:32Z</time>
      </trkpt>
      <trkpt lat="47.86548" lon="0.44295">
        <ele>137</ele>
        <time>2019-08-05T08:05:36Z</time>
      </trkpt>
      <trkpt lat="47.8655" lon="0.443">
        <ele>137</ele>
        <time>2019-08-05T08:05:39Z</time>
      </trkpt>
      <trkpt lat="47.86568" lon="0.44364">
        <ele>135</ele>
        <time>2019-08-05T08:06:11Z</time>
      </trkpt>
      <trkpt lat="47.86586" lon="0.44402">
        <ele>137</ele>
        <time>2019-08-05T08:06:34Z</time>
      </trkpt>
      <trkpt lat="47.86594" lon="0.44433">
        <ele>134</ele>
        <time>2019-08-05T08:06:50Z</time>
      </trkpt>
      <trkpt lat="47.86594" lon="0.44459">
        <ele>136</ele>
        <time>2019-08-05T08:07:01Z</time>
      </trkpt>
      <trkpt lat="47.86597" lon="0.44467">
        <ele>137</ele>
        <time>2019-08-05T08:07:06Z</time>
      </trkpt>
      <trkpt lat="47.86598" lon="0.44472">
        <ele>136</ele>
        <time>2019-08-05T08:07:09Z</time>
      </trkpt>
      <trkpt lat="47.86597" lon="0.44494">
        <ele>136</ele>
        <time>2019-08-05T08:07:19Z</time>
      </trkpt>
      <trkpt lat="47.86596" lon="0.44531">
        <ele>137</ele>
        <time>2019-08-05T08:07:36Z</time>
      </trkpt>
      <trkpt lat="47.86596" lon="0.44535">
        <ele>137</ele>
        <time>2019-08-05T08:07:38Z</time>
      </trkpt>
      <trkpt lat="47.86596" lon="0.44555">
        <ele>137</ele>
        <time>2019-08-05T08:07:47Z</time>
      </trkpt>
      <trkpt lat="47.86596" lon="0.4456">
        <ele>137</ele>
        <time>2019-08-05T08:07:49Z</time>
      </trkpt>
      <trkpt lat="47.86596" lon="0.4457">
        <ele>137</ele>
        <time>2019-08-05T08:07:53Z</time>
      </trkpt>
      <trkpt lat="47.86597" lon="0.44575">
        <ele>137</ele>
        <time>2019-08-05T08:07:55Z</time>
      </trkpt>
      <trkpt lat="47.86599" lon="0.44599">
        <ele>137</ele>
        <time>2019-08-05T08:08:07Z</time>
      </trkpt>
      <trkpt lat="47.86611" lon="0.44662">
        <ele>138</ele>
        <time>2019-08-05T08:08:39Z</time>
      </trkpt>
      <trkpt lat="47.86626" lon="0.44724">
        <ele>137</ele>
        <time>2019-08-05T08:09:09Z</time>
      </trkpt>
      <trkpt lat="47.86637" lon="0.44774">
        <ele>136</ele>
        <time>2019-08-05T08:09:35Z</time>
      </trkpt>
      <trkpt lat="47.86638" lon="0.44787">
        <ele>137</ele>
        <time>2019-08-05T08:09:41Z</time>
      </trkpt>
      <trkpt lat="47.86633" lon="0.44869">
        <ele>137</ele>
        <time>2019-08-05T08:10:20Z</time>
      </trkpt>
      <trkpt lat="47.8663" lon="0.44872">
        <ele>137</ele>
        <time>2019-08-05T08:10:22Z</time>
      </trkpt>
      <trkpt lat="47.86617" lon="0.44933">
        <ele>136</ele>
        <time>2019-08-05T08:10:52Z</time>
      </trkpt>
      <trkpt lat="47.86606" lon="0.44979">
        <ele>137</ele>
        <time>2019-08-05T08:11:15Z</time>
      </trkpt>
      <trkpt lat="47.86587" lon="0.45034">
        <ele>136</ele>
        <time>2019-08-05T08:11:45Z</time>
      </trkpt>
      <trkpt lat="47.86577" lon="0.45062">
        <ele>135</ele>
        <time>2019-08-05T08:12:01Z</time>
      </trkpt>
      <trkpt lat="47.86575" lon="0.45067">
        <ele>135</ele>
        <time>2019-08-05T08:12:04Z</time>
      </trkpt>
      <trkpt lat="47.86572" lon="0.45076">
        <ele>135</ele>
        <time>2019-08-05T08:12:14Z</time>
      </trkpt>
      <trkpt lat="47.86563" lon="0.45101">
        <ele>135</ele>
        <time>2019-08-05T08:12:29Z</time>
      </trkpt>
      <trkpt lat="47.8656" lon="0.45113">
        <ele>134</ele>
        <time>2019-08-05T08:12:35Z</time>
      </trkpt>
      <trkpt lat="47.86557" lon="0.45124">
        <ele>133</ele>
        <time>2019-08-05T08:12:41Z</time>
      </trkpt>
      <trkpt lat="47.86554" lon="0.45129">
        <ele>133</ele>
        <time>2019-08-05T08:12:44Z</time>
      </trkpt>
      <trkpt lat="47.8655" lon="0.4514">
        <ele>133</ele>
        <time>2019-08-05T08:12:50Z</time>
      </trkpt>
      <trkpt lat="47.86516" lon="0.45245">
        <ele>135</ele>
        <time>2019-08-05T08:13:45Z</time>
      </trkpt>
      <trkpt lat="47.86513" lon="0.45255">
        <ele>135</ele>
        <time>2019-08-05T08:13:51Z</time>
      </trkpt>
      <trkpt lat="47.86486" lon="0.45303">
        <ele>130</ele>
        <time>2019-08-05T08:14:21Z</time>
      </trkpt>
      <trkpt lat="47.86484" lon="0.45307">
        <ele>130</ele>
        <time>2019-08-05T08:14:23Z</time>
      </trkpt>
      <trkpt lat="47.8648" lon="0.45307">
        <ele>130</ele>
        <time>2019-08-05T08:14:26Z</time>
      </trkpt>
      <trkpt lat="47.86476" lon="0.45306">
        <ele>130</ele>
        <time>2019-08-05T08:14:29Z</time>
      </trkpt>
      <trkpt lat="47.86474" lon="0.4531">
        <ele>130</ele>
        <time>2019-08-05T08:14:31Z</time>
      </trkpt>
      <trkpt lat="47.86468" lon="0.45326">
        <ele>129</ele>
        <time>2019-08-05T08:14:39Z</time>
      </trkpt>
      <trkpt lat="47.86461" lon="0.4534">
        <ele>130</ele>
        <time>2019-08-05T08:14:47Z</time>
      </trkpt>
      <trkpt lat="47.86446" lon="0.45388">
        <ele>129</ele>
        <time>2019-08-05T08:15:12Z</time>
      </trkpt>
      <trkpt lat="47.86438" lon="0.45439">
        <ele>128</ele>
        <time>2019-08-05T08:15:37Z</time>
      </trkpt>
      <trkpt lat="47.86439" lon="0.45512">
        <ele>128</ele>
        <time>2019-08-05T08:16:09Z</time>
      </trkpt>
      <trkpt lat="47.86439" lon="0.45541">
        <ele>127</ele>
        <time>2019-08-05T08:16:26Z</time>
      </trkpt>
      <trkpt lat="47.86438" lon="0.4557">
        <ele>127</ele>
        <time>2019-08-05T08:16:39Z</time>
      </trkpt>
      <trkpt lat="47.86439" lon="0.45593">
        <ele>127</ele>
        <time>2019-08-05T08:16:51Z</time>
      </trkpt>
      <trkpt lat="47.86439" lon="0.45599">
        <ele>127</ele>
        <time>2019-08-05T08:16:54Z</time>
      </trkpt>
      <trkpt lat="47.8644" lon="0.45611">
        <ele>127</ele>
        <time>2019-08-05T08:17:00Z</time>
      </trkpt>
      <trkpt lat="47.8644" lon="0.45616">
        <ele>127</ele>
        <time>2019-08-05T08:17:02Z</time>
      </trkpt>
      <trkpt lat="47.86441" lon="0.45674">
        <ele>128</ele>
        <time>2019-08-05T08:17:28Z</time>
      </trkpt>
      <trkpt lat="47.8644" lon="0.45678">
        <ele>128</ele>
        <time>2019-08-05T08:17:30Z</time>
      </trkpt>
      <trkpt lat="47.86438" lon="0.45682">
        <ele>128</ele>
        <time>2019-08-05T08:17:32Z</time>
      </trkpt>
      <trkpt lat="47.86437" lon="0.45686">
        <ele>128</ele>
        <time>2019-08-05T08:17:34Z</time>
      </trkpt>
      <trkpt lat="47.86436" lon="0.4569">
        <ele>129</ele>
        <time>2019-08-05T08:17:36Z</time>
      </trkpt>
      <trkpt lat="47.86438" lon="0.45696">
        <ele>129</ele>
        <time>2019-08-05T08:17:39Z</time>
      </trkpt>
      <trkpt lat="47.86441" lon="0.45705">
        <ele>129</ele>
        <time>2019-08-05T08:17:43Z</time>
      </trkpt>
      <trkpt lat="47.86441" lon="0.4571">
        <ele>130</ele>
        <time>2019-08-05T08:17:45Z</time>
      </trkpt>
      <trkpt lat="47.8644" lon="0.45722">
        <ele>130</ele>
        <time>2019-08-05T08:17:51Z</time>
      </trkpt>
      <trkpt lat="47.86436" lon="0.45757">
        <ele>126</ele>
        <time>2019-08-05T08:18:06Z</time>
      </trkpt>
      <trkpt lat="47.86431" lon="0.45771">
        <ele>126</ele>
        <time>2019-08-05T08:18:13Z</time>
      </trkpt>
      <trkpt lat="47.86432" lon="0.45784">
        <ele>127</ele>
        <time>2019-08-05T08:18:19Z</time>
      </trkpt>
      <trkpt lat="47.86424" lon="0.45843">
        <ele>129</ele>
        <time>2019-08-05T08:18:49Z</time>
      </trkpt>
      <trkpt lat="47.86412" lon="0.45911">
        <ele>133</ele>
        <time>2019-08-05T08:19:19Z</time>
      </trkpt>
      <trkpt lat="47.86403" lon="0.45963">
        <ele>135</ele>
        <time>2019-08-05T08:19:45Z</time>
      </trkpt>
      <trkpt lat="47.864" lon="0.45967">
        <ele>136</ele>
        <time>2019-08-05T08:19:48Z</time>
      </trkpt>
      <trkpt lat="47.86397" lon="0.45969">
        <ele>136</ele>
        <time>2019-08-05T08:19:50Z</time>
      </trkpt>
      <trkpt lat="47.86396" lon="0.45973">
        <ele>136</ele>
        <time>2019-08-05T08:19:52Z</time>
      </trkpt>
      <trkpt lat="47.86395" lon="0.45977">
        <ele>136</ele>
        <time>2019-08-05T08:19:54Z</time>
      </trkpt>
      <trkpt lat="47.86398" lon="0.4598">
        <ele>136</ele>
        <time>2019-08-05T08:19:57Z</time>
      </trkpt>
      <trkpt lat="47.86408" lon="0.4598">
        <ele>135</ele>
        <time>2019-08-05T08:20:03Z</time>
      </trkpt>
      <trkpt lat="47.86412" lon="0.45981">
        <ele>135</ele>
        <time>2019-08-05T08:20:05Z</time>
      </trkpt>
      <trkpt lat="47.86418" lon="0.45985">
        <ele>135</ele>
        <time>2019-08-05T08:20:10Z</time>
      </trkpt>
      <trkpt lat="47.86422" lon="0.45993">
        <ele>134</ele>
        <time>2019-08-05T08:20:15Z</time>
      </trkpt>
      <trkpt lat="47.86423" lon="0.46002">
        <ele>134</ele>
        <time>2019-08-05T08:20:19Z</time>
      </trkpt>
      <trkpt lat="47.86424" lon="0.46014">
        <ele>135</ele>
        <time>2019-08-05T08:20:25Z</time>
      </trkpt>
      <trkpt lat="47.86425" lon="0.46018">
        <ele>135</ele>
        <time>2019-08-05T08:20:27Z</time>
      </trkpt>
      <trkpt lat="47.86426" lon="0.46035">
        <ele>134</ele>
        <time>2019-08-05T08:20:35Z</time>
      </trkpt>
      <trkpt lat="47.86428" lon="0.4604">
        <ele>135</ele>
        <time>2019-08-05T08:20:37Z</time>
      </trkpt>
      <trkpt lat="47.86429" lon="0.46051">
        <ele>136</ele>
        <time>2019-08-05T08:20:42Z</time>
      </trkpt>
      <trkpt lat="47.86426" lon="0.46115">
        <ele>137</ele>
        <time>2019-08-05T08:21:12Z</time>
      </trkpt>
      <trkpt lat="47.86425" lon="0.46125">
        <ele>137</ele>
        <time>2019-08-05T08:21:16Z</time>
      </trkpt>
      <trkpt lat="47.86425" lon="0.46132">
        <ele>138</ele>
        <time>2019-08-05T08:21:19Z</time>
      </trkpt>
      <trkpt lat="47.86426" lon="0.46143">
        <ele>139</ele>
        <time>2019-08-05T08:21:24Z</time>
      </trkpt>
      <trkpt lat="47.86421" lon="0.46197">
        <ele>135</ele>
        <time>2019-08-05T08:21:52Z</time>
      </trkpt>
      <trkpt lat="47.86421" lon="0.46227">
        <ele>136</ele>
        <time>2019-08-05T08:22:05Z</time>
      </trkpt>
      <trkpt lat="47.86419" lon="0.46232">
        <ele>135</ele>
        <time>2019-08-05T08:22:08Z</time>
      </trkpt>
      <trkpt lat="47.86419" lon="0.46239">
        <ele>135</ele>
        <time>2019-08-05T08:22:11Z</time>
      </trkpt>
      <trkpt lat="47.86413" lon="0.46289">
        <ele>133</ele>
        <time>2019-08-05T08:22:33Z</time>
      </trkpt>
      <trkpt lat="47.86414" lon="0.46326">
        <ele>132</ele>
        <time>2019-08-05T08:22:50Z</time>
      </trkpt>
      <trkpt lat="47.86423" lon="0.46388">
        <ele>130</ele>
        <time>2019-08-05T08:23:21Z</time>
      </trkpt>
      <trkpt lat="47.86432" lon="0.46397">
        <ele>128</ele>
        <time>2019-08-05T08:23:29Z</time>
      </trkpt>
      <trkpt lat="47.86447" lon="0.46462">
        <ele>129</ele>
        <time>2019-08-05T08:24:00Z</time>
      </trkpt>
      <trkpt lat="47.86455" lon="0.46502">
        <ele>127</ele>
        <time>2019-08-05T08:24:20Z</time>
      </trkpt>
      <trkpt lat="47.86457" lon="0.46506">
        <ele>127</ele>
        <time>2019-08-05T08:24:22Z</time>
      </trkpt>
      <trkpt lat="47.8646" lon="0.46517">
        <ele>127</ele>
        <time>2019-08-05T08:24:28Z</time>
      </trkpt>
      <trkpt lat="47.86462" lon="0.46526">
        <ele>128</ele>
        <time>2019-08-05T08:24:32Z</time>
      </trkpt>
      <trkpt lat="47.86462" lon="0.46533">
        <ele>129</ele>
        <time>2019-08-05T08:24:35Z</time>
      </trkpt>
      <trkpt lat="47.86464" lon="0.46569">
        <ele>132</ele>
        <time>2019-08-05T08:24:52Z</time>
      </trkpt>
      <trkpt lat="47.86462" lon="0.46576">
        <ele>132</ele>
        <time>2019-08-05T08:24:56Z</time>
      </trkpt>
      <trkpt lat="47.86465" lon="0.46582">
        <ele>132</ele>
        <time>2019-08-05T08:24:59Z</time>
      </trkpt>
      <trkpt lat="47.86469" lon="0.46585">
        <ele>131</ele>
        <time>2019-08-05T08:25:01Z</time>
      </trkpt>
      <trkpt lat="47.86472" lon="0.46589">
        <ele>131</ele>
        <time>2019-08-05T08:25:03Z</time>
      </trkpt>
      <trkpt lat="47.86475" lon="0.46599">
        <ele>131</ele>
        <time>2019-08-05T08:25:07Z</time>
      </trkpt>
      <trkpt lat="47.86477" lon="0.46613">
        <ele>129</ele>
        <time>2019-08-05T08:25:13Z</time>
      </trkpt>
      <trkpt lat="47.86479" lon="0.46619">
        <ele>128</ele>
        <time>2019-08-05T08:25:16Z</time>
      </trkpt>
      <trkpt lat="47.86481" lon="0.46644">
        <ele>126</ele>
        <time>2019-08-05T08:25:27Z</time>
      </trkpt>
      <trkpt lat="47.86483" lon="0.46649">
        <ele>125</ele>
        <time>2019-08-05T08:25:30Z</time>
      </trkpt>
      <trkpt lat="47.86485" lon="0.46654">
        <ele>125</ele>
        <time>2019-08-05T08:25:33Z</time>
      </trkpt>
      <trkpt lat="47.86485" lon="0.46663">
        <ele>123</ele>
        <time>2019-08-05T08:25:37Z</time>
      </trkpt>
      <trkpt lat="47.86481" lon="0.46676">
        <ele>122</ele>
        <time>2019-08-05T08:25:43Z</time>
      </trkpt>
      <trkpt lat="47.86479" lon="0.4668">
        <ele>122</ele>
        <time>2019-08-05T08:25:45Z</time>
      </trkpt>
      <trkpt lat="47.86473" lon="0.46724">
        <ele>122</ele>
        <time>2019-08-05T08:26:07Z</time>
      </trkpt>
      <trkpt lat="47.86469" lon="0.46735">
        <ele>125</ele>
        <time>2019-08-05T08:26:13Z</time>
      </trkpt>
      <trkpt lat="47.86465" lon="0.46753">
        <ele>126</ele>
        <time>2019-08-05T08:26:22Z</time>
      </trkpt>
      <trkpt lat="47.86465" lon="0.4676">
        <ele>126</ele>
        <time>2019-08-05T08:26:25Z</time>
      </trkpt>
      <trkpt lat="47.86464" lon="0.46767">
        <ele>128</ele>
        <time>2019-08-05T08:26:29Z</time>
      </trkpt>
      <trkpt lat="47.86471" lon="0.46798">
        <ele>129</ele>
        <time>2019-08-05T08:26:43Z</time>
      </trkpt>
      <trkpt lat="47.86473" lon="0.46805">
        <ele>129</ele>
        <time>2019-08-05T08:26:46Z</time>
      </trkpt>
      <trkpt lat="47.8648" lon="0.46821">
        <ele>124</ele>
        <time>2019-08-05T08:26:55Z</time>
      </trkpt>
      <trkpt lat="47.86483" lon="0.46842">
        <ele>125</ele>
        <time>2019-08-05T08:27:04Z</time>
      </trkpt>
      <trkpt lat="47.86487" lon="0.46867">
        <ele>124</ele>
        <time>2019-08-05T08:27:17Z</time>
      </trkpt>
      <trkpt lat="47.8649" lon="0.46884">
        <ele>127</ele>
        <time>2019-08-05T08:27:25Z</time>
      </trkpt>
      <trkpt lat="47.8649" lon="0.46889">
        <ele>127</ele>
        <time>2019-08-05T08:27:28Z</time>
      </trkpt>
      <trkpt lat="47.86493" lon="0.46892">
        <ele>126</ele>
        <time>2019-08-05T08:27:31Z</time>
      </trkpt>
      <trkpt lat="47.86496" lon="0.4689">
        <ele>125</ele>
        <time>2019-08-05T08:27:34Z</time>
      </trkpt>
      <trkpt lat="47.865" lon="0.4689">
        <ele>124</ele>
        <time>2019-08-05T08:27:37Z</time>
      </trkpt>
      <trkpt lat="47.86504" lon="0.46891">
        <ele>125</ele>
        <time>2019-08-05T08:27:40Z</time>
      </trkpt>
      <trkpt lat="47.86507" lon="0.46895">
        <ele>126</ele>
        <time>2019-08-05T08:27:43Z</time>
      </trkpt>
      <trkpt lat="47.86508" lon="0.469">
        <ele>126</ele>
        <time>2019-08-05T08:27:45Z</time>
      </trkpt>
      <trkpt lat="47.86496" lon="0.46949">
        <ele>126</ele>
        <time>2019-08-05T08:28:08Z</time>
      </trkpt>
      <trkpt lat="47.86496" lon="0.46954">
        <ele>126</ele>
        <time>2019-08-05T08:28:11Z</time>
      </trkpt>
      <trkpt lat="47.86495" lon="0.46961">
        <ele>127</ele>
        <time>2019-08-05T08:28:14Z</time>
      </trkpt>
      <trkpt lat="47.86476" lon="0.46996">
        <ele>125</ele>
        <time>2019-08-05T08:28:34Z</time>
      </trkpt>
      <trkpt lat="47.8647" lon="0.47001">
        <ele>125</ele>
        <time>2019-08-05T08:28:39Z</time>
      </trkpt>
      <trkpt lat="47.86468" lon="0.46998">
        <ele>124</ele>
        <time>2019-08-05T08:28:42Z</time>
      </trkpt>
      <trkpt lat="47.86465" lon="0.4699">
        <ele>123</ele>
        <time>2019-08-05T08:28:47Z</time>
      </trkpt>
      <trkpt lat="47.86465" lon="0.46984">
        <ele>123</ele>
        <time>2019-08-05T08:28:49Z</time>
      </trkpt>
      <trkpt lat="47.86465" lon="0.46974">
        <ele>127</ele>
        <time>2019-08-05T08:28:54Z</time>
      </trkpt>
      <trkpt lat="47.86462" lon="0.46969">
        <ele>129</ele>
        <time>2019-08-05T08:28:58Z</time>
      </trkpt>
      <trkpt lat="47.86454" lon="0.46971">
        <ele>129</ele>
        <time>2019-08-05T08:29:02Z</time>
      </trkpt>
      <trkpt lat="47.86416" lon="0.46985">
        <ele>116</ele>
        <time>2019-08-05T08:29:28Z</time>
      </trkpt>
      <trkpt lat="47.86413" lon="0.46987">
        <ele>117</ele>
        <time>2019-08-05T08:29:30Z</time>
      </trkpt>
      <trkpt lat="47.86389" lon="0.46998">
        <ele>116</ele>
        <time>2019-08-05T08:29:48Z</time>
      </trkpt>
      <trkpt lat="47.8638" lon="0.47002">
        <ele>113</ele>
        <time>2019-08-05T08:29:54Z</time>
      </trkpt>
      <trkpt lat="47.86376" lon="0.47007">
        <ele>111</ele>
        <time>2019-08-05T08:29:57Z</time>
      </trkpt>
      <trkpt lat="47.86374" lon="0.47014">
        <ele>110</ele>
        <time>2019-08-05T08:30:01Z</time>
      </trkpt>
      <trkpt lat="47.86376" lon="0.47031">
        <ele>111</ele>
        <time>2019-08-05T08:30:08Z</time>
      </trkpt>
      <trkpt lat="47.86375" lon="0.47035">
        <ele>111</ele>
        <time>2019-08-05T08:30:10Z</time>
      </trkpt>
      <trkpt lat="47.86369" lon="0.47042">
        <ele>111</ele>
        <time>2019-08-05T08:30:14Z</time>
      </trkpt>
      <trkpt lat="47.8636" lon="0.47045">
        <ele>111</ele>
        <time>2019-08-05T08:30:20Z</time>
      </trkpt>
      <trkpt lat="47.86356" lon="0.47045">
        <ele>111</ele>
        <time>2019-08-05T08:30:23Z</time>
      </trkpt>
      <trkpt lat="47.86346" lon="0.47047">
        <ele>120</ele>
        <time>2019-08-05T08:30:31Z</time>
      </trkpt>
      <trkpt lat="47.86333" lon="0.47054">
        <ele>113</ele>
        <time>2019-08-05T08:30:41Z</time>
      </trkpt>
      <trkpt lat="47.86328" lon="0.47055">
        <ele>112</ele>
        <time>2019-08-05T08:30:44Z</time>
      </trkpt>
      <trkpt lat="47.86292" lon="0.47066">
        <ele>116</ele>
        <time>2019-08-05T08:31:10Z</time>
      </trkpt>
      <trkpt lat="47.86285" lon="0.47072">
        <ele>116</ele>
        <time>2019-08-05T08:31:15Z</time>
      </trkpt>
      <trkpt lat="47.86274" lon="0.47075">
        <ele>115</ele>
        <time>2019-08-05T08:31:24Z</time>
      </trkpt>
      <trkpt lat="47.86271" lon="0.47073">
        <ele>115</ele>
        <time>2019-08-05T08:31:26Z</time>
      </trkpt>
      <trkpt lat="47.86268" lon="0.47073">
        <ele>115</ele>
        <time>2019-08-05T08:31:28Z</time>
      </trkpt>
      <trkpt lat="47.86227" lon="0.47085">
        <ele>113</ele>
        <time>2019-08-05T08:31:58Z</time>
      </trkpt>
      <trkpt lat="47.86205" lon="0.471">
        <ele>112</ele>
        <time>2019-08-05T08:32:16Z</time>
      </trkpt>
      <trkpt lat="47.86194" lon="0.47115">
        <ele>113</ele>
        <time>2019-08-05T08:32:26Z</time>
      </trkpt>
      <trkpt lat="47.86191" lon="0.47117">
        <ele>113</ele>
        <time>2019-08-05T08:32:28Z</time>
      </trkpt>
      <trkpt lat="47.8618" lon="0.47133">
        <ele>114</ele>
        <time>2019-08-05T08:32:40Z</time>
      </trkpt>
      <trkpt lat="47.86176" lon="0.47145">
        <ele>126</ele>
        <time>2019-08-05T08:33:30Z</time>
      </trkpt>
      <trkpt lat="47.86162" lon="0.47196">
        <ele>135</ele>
        <time>2019-08-05T08:33:35Z</time>
      </trkpt>
      <trkpt lat="47.86154" lon="0.47227">
        <ele>135</ele>
        <time>2019-08-05T08:33:38Z</time>
      </trkpt>
      <trkpt lat="47.86151" lon="0.47238">
        <ele>133</ele>
        <time>2019-08-05T08:33:42Z</time>
      </trkpt>
      <trkpt lat="47.86149" lon="0.47248">
        <ele>133</ele>
        <time>2019-08-05T08:33:45Z</time>
      </trkpt>
      <trkpt lat="47.86147" lon="0.47255">
        <ele>131</ele>
        <time>2019-08-05T08:33:47Z</time>
      </trkpt>
      <trkpt lat="47.86144" lon="0.47262">
        <ele>126</ele>
        <time>2019-08-05T08:33:49Z</time>
      </trkpt>
      <trkpt lat="47.86122" lon="0.47258">
        <ele>121</ele>
        <time>2019-08-05T08:33:59Z</time>
      </trkpt>
      <trkpt lat="47.86121" lon="0.47254">
        <ele>117</ele>
        <time>2019-08-05T08:34:03Z</time>
      </trkpt>
      <trkpt lat="47.86123" lon="0.4722">
        <ele>114</ele>
        <time>2019-08-05T08:34:20Z</time>
      </trkpt>
      <trkpt lat="47.86125" lon="0.47203">
        <ele>116</ele>
        <time>2019-08-05T08:34:28Z</time>
      </trkpt>
      <trkpt lat="47.86124" lon="0.47188">
        <ele>116</ele>
        <time>2019-08-05T08:34:36Z</time>
      </trkpt>
      <trkpt lat="47.86121" lon="0.47151">
        <ele>121</ele>
        <time>2019-08-05T08:34:57Z</time>
      </trkpt>
      <trkpt lat="47.86121" lon="0.47141">
        <ele>121</ele>
        <time>2019-08-05T08:35:02Z</time>
      </trkpt>
      <trkpt lat="47.86121" lon="0.47123">
        <ele>119</ele>
        <time>2019-08-05T08:35:10Z</time>
      </trkpt>
      <trkpt lat="47.86119" lon="0.4711">
        <ele>119</ele>
        <time>2019-08-05T08:35:16Z</time>
      </trkpt>
      <trkpt lat="47.86114" lon="0.47095">
        <ele>120</ele>
        <time>2019-08-05T08:35:25Z</time>
      </trkpt>
      <trkpt lat="47.86112" lon="0.47092">
        <ele>120</ele>
        <time>2019-08-05T08:35:28Z</time>
      </trkpt>
      <trkpt lat="47.86106" lon="0.47077">
        <ele>121</ele>
        <time>2019-08-05T08:35:36Z</time>
      </trkpt>
      <trkpt lat="47.86104" lon="0.47073">
        <ele>121</ele>
        <time>2019-08-05T08:35:38Z</time>
      </trkpt>
      <trkpt lat="47.861" lon="0.47064">
        <ele>121</ele>
        <time>2019-08-05T08:35:43Z</time>
      </trkpt>
      <trkpt lat="47.861" lon="0.47059">
        <ele>121</ele>
        <time>2019-08-05T08:35:45Z</time>
      </trkpt>
      <trkpt lat="47.861" lon="0.47055">
        <ele>121</ele>
        <time>2019-08-05T08:35:47Z</time>
      </trkpt>
      <trkpt lat="47.86101" lon="0.4702">
        <ele>117</ele>
        <time>2019-08-05T08:36:03Z</time>
      </trkpt>
      <trkpt lat="47.861" lon="0.47014">
        <ele>117</ele>
        <time>2019-08-05T08:36:06Z</time>
      </trkpt>
      <trkpt lat="47.86099" lon="0.47009">
        <ele>118</ele>
        <time>2019-08-05T08:36:09Z</time>
      </trkpt>
      <trkpt lat="47.86096" lon="0.47004">
        <ele>118</ele>
        <time>2019-08-05T08:36:12Z</time>
      </trkpt>
      <trkpt lat="47.86092" lon="0.47002">
        <ele>118</ele>
        <time>2019-08-05T08:36:15Z</time>
      </trkpt>
      <trkpt lat="47.86048" lon="0.46994">
        <ele>117</ele>
        <time>2019-08-05T08:36:44Z</time>
      </trkpt>
      <trkpt lat="47.86042" lon="0.4699">
        <ele>117</ele>
        <time>2019-08-05T08:36:48Z</time>
      </trkpt>
      <trkpt lat="47.86039" lon="0.46986">
        <ele>117</ele>
        <time>2019-08-05T08:36:51Z</time>
      </trkpt>
      <trkpt lat="47.86036" lon="0.46975">
        <ele>117</ele>
        <time>2019-08-05T08:36:57Z</time>
      </trkpt>
      <trkpt lat="47.86035" lon="0.46966">
        <ele>117</ele>
        <time>2019-08-05T08:37:01Z</time>
      </trkpt>
      <trkpt lat="47.8604" lon="0.46914">
        <ele>118</ele>
        <time>2019-08-05T08:37:26Z</time>
      </trkpt>
      <trkpt lat="47.8604" lon="0.46903">
        <ele>118</ele>
        <time>2019-08-05T08:37:31Z</time>
      </trkpt>
      <trkpt lat="47.86041" lon="0.46894">
        <ele>118</ele>
        <time>2019-08-05T08:37:35Z</time>
      </trkpt>
      <trkpt lat="47.86039" lon="0.46873">
        <ele>119</ele>
        <time>2019-08-05T08:37:44Z</time>
      </trkpt>
      <trkpt lat="47.86031" lon="0.46857">
        <ele>120</ele>
        <time>2019-08-05T08:37:52Z</time>
      </trkpt>
      <trkpt lat="47.86002" lon="0.46816">
        <ele>118</ele>
        <time>2019-08-05T08:38:22Z</time>
      </trkpt>
      <trkpt lat="47.85991" lon="0.468">
        <ele>119</ele>
        <time>2019-08-05T08:38:33Z</time>
      </trkpt>
      <trkpt lat="47.85987" lon="0.46786">
        <ele>119</ele>
        <time>2019-08-05T08:38:40Z</time>
      </trkpt>
      <trkpt lat="47.85986" lon="0.46757">
        <ele>120</ele>
        <time>2019-08-05T08:38:53Z</time>
      </trkpt>
      <trkpt lat="47.85992" lon="0.46676">
        <ele>113</ele>
        <time>2019-08-05T08:39:41Z</time>
      </trkpt>
      <trkpt lat="47.8599" lon="0.46662">
        <ele>108</ele>
        <time>2019-08-05T08:39:46Z</time>
      </trkpt>
      <trkpt lat="47.85985" lon="0.46645">
        <ele>108</ele>
        <time>2019-08-05T08:39:52Z</time>
      </trkpt>
      <trkpt lat="47.8598" lon="0.46637">
        <ele>109</ele>
        <time>2019-08-05T08:39:56Z</time>
      </trkpt>
      <trkpt lat="47.85974" lon="0.46632">
        <ele>110</ele>
        <time>2019-08-05T08:40:00Z</time>
      </trkpt>
      <trkpt lat="47.85966" lon="0.46629">
        <ele>112</ele>
        <time>2019-08-05T08:40:04Z</time>
      </trkpt>
      <trkpt lat="47.85963" lon="0.46629">
        <ele>113</ele>
        <time>2019-08-05T08:40:06Z</time>
      </trkpt>
      <trkpt lat="47.85913" lon="0.46628">
        <ele>114</ele>
        <time>2019-08-05T08:40:37Z</time>
      </trkpt>
      <trkpt lat="47.85868" lon="0.46628">
        <ele>112</ele>
        <time>2019-08-05T08:41:09Z</time>
      </trkpt>
      <trkpt lat="47.85853" lon="0.46627">
        <ele>111</ele>
        <time>2019-08-05T08:41:20Z</time>
      </trkpt>
      <trkpt lat="47.85812" lon="0.4661">
        <ele>109</ele>
        <time>2019-08-05T08:41:51Z</time>
      </trkpt>
      <trkpt lat="47.85784" lon="0.46594">
        <ele>107</ele>
        <time>2019-08-05T08:42:12Z</time>
      </trkpt>
      <trkpt lat="47.85779" lon="0.46589">
        <ele>108</ele>
        <time>2019-08-05T08:42:16Z</time>
      </trkpt>
      <trkpt lat="47.85774" lon="0.46587">
        <ele>108</ele>
        <time>2019-08-05T08:42:19Z</time>
      </trkpt>
      <trkpt lat="47.85766" lon="0.46581">
        <ele>108</ele>
        <time>2019-08-05T08:42:25Z</time>
      </trkpt>
      <trkpt lat="47.85754" lon="0.46574">
        <ele>116</ele>
        <time>2019-08-05T08:42:37Z</time>
      </trkpt>
      <trkpt lat="47.85751" lon="0.46571">
        <ele>117</ele>
        <time>2019-08-05T08:42:40Z</time>
      </trkpt>
      <trkpt lat="47.85713" lon="0.46541">
        <ele>111</ele>
        <time>2019-08-05T08:43:10Z</time>
      </trkpt>
      <trkpt lat="47.85685" lon="0.46526">
        <ele>109</ele>
        <time>2019-08-05T08:43:33Z</time>
      </trkpt>
      <trkpt lat="47.85646" lon="0.46492">
        <ele>111</ele>
        <time>2019-08-05T08:44:05Z</time>
      </trkpt>
      <trkpt lat="47.8564" lon="0.46482">
        <ele>112</ele>
        <time>2019-08-05T08:44:11Z</time>
      </trkpt>
      <trkpt lat="47.85624" lon="0.46471">
        <ele>109</ele>
        <time>2019-08-05T08:44:24Z</time>
      </trkpt>
      <trkpt lat="47.85616" lon="0.46463">
        <ele>107</ele>
        <time>2019-08-05T08:44:30Z</time>
      </trkpt>
      <trkpt lat="47.85609" lon="0.46455">
        <ele>106</ele>
        <time>2019-08-05T08:44:36Z</time>
      </trkpt>
      <trkpt lat="47.85588" lon="0.46427">
        <ele>105</ele>
        <time>2019-08-05T08:44:54Z</time>
      </trkpt>
      <trkpt lat="47.85584" lon="0.46421">
        <ele>104</ele>
        <time>2019-08-05T08:44:59Z</time>
      </trkpt>
      <trkpt lat="47.85581" lon="0.46418">
        <ele>103</ele>
        <time>2019-08-05T08:45:01Z</time>
      </trkpt>
      <trkpt lat="47.85569" lon="0.46406">
        <ele>104</ele>
        <time>2019-08-05T08:45:13Z</time>
      </trkpt>
      <trkpt lat="47.85557" lon="0.46399">
        <ele>103</ele>
        <time>2019-08-05T08:45:22Z</time>
      </trkpt>
      <trkpt lat="47.85527" lon="0.46396">
        <ele>98</ele>
        <time>2019-08-05T08:45:43Z</time>
      </trkpt>
      <trkpt lat="47.85524" lon="0.46394">
        <ele>100</ele>
        <time>2019-08-05T08:45:48Z</time>
      </trkpt>
      <trkpt lat="47.85526" lon="0.46389">
        <ele>102</ele>
        <time>2019-08-05T08:45:54Z</time>
      </trkpt>
      <trkpt lat="47.85523" lon="0.46389">
        <ele>104</ele>
        <time>2019-08-05T08:45:59Z</time>
      </trkpt>
      <trkpt lat="47.85512" lon="0.4639">
        <ele>110</ele>
        <time>2019-08-05T08:46:17Z</time>
      </trkpt>
      <trkpt lat="47.85505" lon="0.46387">
        <ele>110</ele>
        <time>2019-08-05T08:46:22Z</time>
      </trkpt>
      <trkpt lat="47.85501" lon="0.46384">
        <ele>111</ele>
        <time>2019-08-05T08:46:24Z</time>
      </trkpt>
      <trkpt lat="47.85496" lon="0.46375">
        <ele>109</ele>
        <time>2019-08-05T08:46:27Z</time>
      </trkpt>
      <trkpt lat="47.85483" lon="0.46338">
        <ele>104</ele>
        <time>2019-08-05T08:46:41Z</time>
      </trkpt>
      <trkpt lat="47.85477" lon="0.46327">
        <ele>105</ele>
        <time>2019-08-05T08:46:49Z</time>
      </trkpt>
      <trkpt lat="47.85475" lon="0.46323">
        <ele>106</ele>
        <time>2019-08-05T08:46:51Z</time>
      </trkpt>
      <trkpt lat="47.85475" lon="0.46312">
        <ele>108</ele>
        <time>2019-08-05T08:46:56Z</time>
      </trkpt>
      <trkpt lat="47.85472" lon="0.46291">
        <ele>108</ele>
        <time>2019-08-05T08:47:05Z</time>
      </trkpt>
      <trkpt lat="47.85471" lon="0.46287">
        <ele>108</ele>
        <time>2019-08-05T08:47:07Z</time>
      </trkpt>
      <trkpt lat="47.85461" lon="0.46249">
        <ele>105</ele>
        <time>2019-08-05T08:47:26Z</time>
      </trkpt>
      <trkpt lat="47.85449" lon="0.46226">
        <ele>107</ele>
        <time>2019-08-05T08:47:41Z</time>
      </trkpt>
      <trkpt lat="47.85447" lon="0.46223">
        <ele>107</ele>
        <time>2019-08-05T08:47:43Z</time>
      </trkpt>
      <trkpt lat="47.85433" lon="0.46204">
        <ele>113</ele>
        <time>2019-08-05T08:48:00Z</time>
      </trkpt>
      <trkpt lat="47.85428" lon="0.46202">
        <ele>114</ele>
        <time>2019-08-05T08:48:03Z</time>
      </trkpt>
      <trkpt lat="47.85424" lon="0.46198">
        <ele>114</ele>
        <time>2019-08-05T08:48:09Z</time>
      </trkpt>
      <trkpt lat="47.85421" lon="0.46194">
        <ele>115</ele>
        <time>2019-08-05T08:48:13Z</time>
      </trkpt>
      <trkpt lat="47.8542" lon="0.4619">
        <ele>114</ele>
        <time>2019-08-05T08:48:22Z</time>
      </trkpt>
      <trkpt lat="47.85417" lon="0.46188">
        <ele>115</ele>
        <time>2019-08-05T08:48:36Z</time>
      </trkpt>
      <trkpt lat="47.8541" lon="0.46179">
        <ele>117</ele>
        <time>2019-08-05T08:49:02Z</time>
      </trkpt>
      <trkpt lat="47.85396" lon="0.46163">
        <ele>119</ele>
        <time>2019-08-05T08:49:17Z</time>
      </trkpt>
      <trkpt lat="47.85387" lon="0.46155">
        <ele>120</ele>
        <time>2019-08-05T08:49:27Z</time>
      </trkpt>
      <trkpt lat="47.85374" lon="0.46134">
        <ele>120</ele>
        <time>2019-08-05T08:49:40Z</time>
      </trkpt>
      <trkpt lat="47.85367" lon="0.46123">
        <ele>121</ele>
        <time>2019-08-05T08:49:54Z</time>
      </trkpt>
      <trkpt lat="47.85352" lon="0.46111">
        <ele>127</ele>
        <time>2019-08-05T08:50:06Z</time>
      </trkpt>
      <trkpt lat="47.85337" lon="0.46092">
        <ele>129</ele>
        <time>2019-08-05T08:50:20Z</time>
      </trkpt>
      <trkpt lat="47.85321" lon="0.46084">
        <ele>124</ele>
        <time>2019-08-05T08:50:32Z</time>
      </trkpt>
      <trkpt lat="47.85301" lon="0.46078">
        <ele>122</ele>
        <time>2019-08-05T08:50:47Z</time>
      </trkpt>
      <trkpt lat="47.85297" lon="0.46076">
        <ele>122</ele>
        <time>2019-08-05T08:50:50Z</time>
      </trkpt>
      <trkpt lat="47.85291" lon="0.46073">
        <ele>120</ele>
        <time>2019-08-05T08:50:57Z</time>
      </trkpt>
      <trkpt lat="47.8528" lon="0.46067">
        <ele>122</ele>
        <time>2019-08-05T08:51:06Z</time>
      </trkpt>
      <trkpt lat="47.8527" lon="0.4606">
        <ele>120</ele>
        <time>2019-08-05T08:51:14Z</time>
      </trkpt>
      <trkpt lat="47.8523" lon="0.46031">
        <ele>123</ele>
        <time>2019-08-05T08:51:46Z</time>
      </trkpt>
      <trkpt lat="47.85193" lon="0.46007">
        <ele>124</ele>
        <time>2019-08-05T08:52:15Z</time>
      </trkpt>
      <trkpt lat="47.85178" lon="0.45998">
        <ele>126</ele>
        <time>2019-08-05T08:52:26Z</time>
      </trkpt>
      <trkpt lat="47.85175" lon="0.45996">
        <ele>126</ele>
        <time>2019-08-05T08:52:28Z</time>
      </trkpt>
      <trkpt lat="47.85144" lon="0.45947">
        <ele>127</ele>
        <time>2019-08-05T08:53:00Z</time>
      </trkpt>
      <trkpt lat="47.85136" lon="0.45933">
        <ele>128</ele>
        <time>2019-08-05T08:53:09Z</time>
      </trkpt>
      <trkpt lat="47.8511" lon="0.4589">
        <ele>126</ele>
        <time>2019-08-05T08:53:38Z</time>
      </trkpt>
      <trkpt lat="47.85108" lon="0.45885">
        <ele>126</ele>
        <time>2019-08-05T08:53:41Z</time>
      </trkpt>
      <trkpt lat="47.851" lon="0.45868">
        <ele>126</ele>
        <time>2019-08-05T08:53:51Z</time>
      </trkpt>
      <trkpt lat="47.85099" lon="0.45864">
        <ele>125</ele>
        <time>2019-08-05T08:53:53Z</time>
      </trkpt>
      <trkpt lat="47.85098" lon="0.45859">
        <ele>125</ele>
        <time>2019-08-05T08:53:55Z</time>
      </trkpt>
      <trkpt lat="47.85094" lon="0.4584">
        <ele>126</ele>
        <time>2019-08-05T08:54:03Z</time>
      </trkpt>
      <trkpt lat="47.85088" lon="0.45804">
        <ele>127</ele>
        <time>2019-08-05T08:54:21Z</time>
      </trkpt>
      <trkpt lat="47.85087" lon="0.458">
        <ele>127</ele>
        <time>2019-08-05T08:54:23Z</time>
      </trkpt>
      <trkpt lat="47.85076" lon="0.45741">
        <ele>129</ele>
        <time>2019-08-05T08:54:53Z</time>
      </trkpt>
      <trkpt lat="47.85072" lon="0.45725">
        <ele>128</ele>
        <time>2019-08-05T08:55:01Z</time>
      </trkpt>
      <trkpt lat="47.85069" lon="0.45716">
        <ele>127</ele>
        <time>2019-08-05T08:55:07Z</time>
      </trkpt>
      <trkpt lat="47.85048" lon="0.45697">
        <ele>126</ele>
        <time>2019-08-05T08:55:25Z</time>
      </trkpt>
      <trkpt lat="47.85004" lon="0.45678">
        <ele>127</ele>
        <time>2019-08-05T08:55:55Z</time>
      </trkpt>
      <trkpt lat="47.85001" lon="0.45678">
        <ele>127</ele>
        <time>2019-08-05T08:55:57Z</time>
      </trkpt>
      <trkpt lat="47.84992" lon="0.45672">
        <ele>127</ele>
        <time>2019-08-05T08:56:04Z</time>
      </trkpt>
      <trkpt lat="47.84984" lon="0.45665">
        <ele>121</ele>
        <time>2019-08-05T08:56:10Z</time>
      </trkpt>
      <trkpt lat="47.8497" lon="0.45652">
        <ele>125</ele>
        <time>2019-08-05T08:56:22Z</time>
      </trkpt>
      <trkpt lat="47.84966" lon="0.4565">
        <ele>125</ele>
        <time>2019-08-05T08:56:25Z</time>
      </trkpt>
      <trkpt lat="47.84963" lon="0.45647">
        <ele>124</ele>
        <time>2019-08-05T08:56:28Z</time>
      </trkpt>
      <trkpt lat="47.84954" lon="0.45631">
        <ele>124</ele>
        <time>2019-08-05T08:56:37Z</time>
      </trkpt>
      <trkpt lat="47.8495" lon="0.45624">
        <ele>123</ele>
        <time>2019-08-05T08:56:41Z</time>
      </trkpt>
      <trkpt lat="47.84935" lon="0.45608">
        <ele>121</ele>
        <time>2019-08-05T08:56:56Z</time>
      </trkpt>
      <trkpt lat="47.84923" lon="0.456">
        <ele>122</ele>
        <time>2019-08-05T08:57:05Z</time>
      </trkpt>
      <trkpt lat="47.84917" lon="0.45595">
        <ele>121</ele>
        <time>2019-08-05T08:57:10Z</time>
      </trkpt>
      <trkpt lat="47.84898" lon="0.45589">
        <ele>122</ele>
        <time>2019-08-05T08:57:23Z</time>
      </trkpt>
      <trkpt lat="47.84881" lon="0.45582">
        <ele>123</ele>
        <time>2019-08-05T08:57:37Z</time>
      </trkpt>
      <trkpt lat="47.8484" lon="0.4557">
        <ele>124</ele>
        <time>2019-08-05T08:58:07Z</time>
      </trkpt>
      <trkpt lat="47.84836" lon="0.45569">
        <ele>124</ele>
        <time>2019-08-05T08:58:10Z</time>
      </trkpt>
      <trkpt lat="47.84821" lon="0.45563">
        <ele>126</ele>
        <time>2019-08-05T08:58:21Z</time>
      </trkpt>
      <trkpt lat="47.84787" lon="0.45549">
        <ele>127</ele>
        <time>2019-08-05T08:58:46Z</time>
      </trkpt>
      <trkpt lat="47.84783" lon="0.45545">
        <ele>126</ele>
        <time>2019-08-05T08:58:49Z</time>
      </trkpt>
      <trkpt lat="47.8477" lon="0.45541">
        <ele>127</ele>
        <time>2019-08-05T08:58:59Z</time>
      </trkpt>
      <trkpt lat="47.84763" lon="0.45537">
        <ele>127</ele>
        <time>2019-08-05T08:59:05Z</time>
      </trkpt>
      <trkpt lat="47.84755" lon="0.45536">
        <ele>128</ele>
        <time>2019-08-05T08:59:10Z</time>
      </trkpt>
      <trkpt lat="47.84717" lon="0.4551">
        <ele>129</ele>
        <time>2019-08-05T08:59:41Z</time>
      </trkpt>
      <trkpt lat="47.84678" lon="0.45483">
        <ele>131</ele>
        <time>2019-08-05T09:00:13Z</time>
      </trkpt>
      <trkpt lat="47.84663" lon="0.45471">
        <ele>130</ele>
        <time>2019-08-05T09:00:26Z</time>
      </trkpt>
      <trkpt lat="47.84649" lon="0.45458">
        <ele>130</ele>
        <time>2019-08-05T09:00:38Z</time>
      </trkpt>
      <trkpt lat="47.84646" lon="0.45457">
        <ele>129</ele>
        <time>2019-08-05T09:00:40Z</time>
      </trkpt>
      <trkpt lat="47.84643" lon="0.45456">
        <ele>129</ele>
        <time>2019-08-05T09:00:43Z</time>
      </trkpt>
      <trkpt lat="47.84613" lon="0.45443">
        <ele>129</ele>
        <time>2019-08-05T09:01:06Z</time>
      </trkpt>
      <trkpt lat="47.84591" lon="0.45438">
        <ele>131</ele>
        <time>2019-08-05T09:01:20Z</time>
      </trkpt>
      <trkpt lat="47.84583" lon="0.45435">
        <ele>132</ele>
        <time>2019-08-05T09:01:25Z</time>
      </trkpt>
      <trkpt lat="47.8457" lon="0.45427">
        <ele>130</ele>
        <time>2019-08-05T09:01:37Z</time>
      </trkpt>
      <trkpt lat="47.84567" lon="0.45426">
        <ele>130</ele>
        <time>2019-08-05T09:01:40Z</time>
      </trkpt>
      <trkpt lat="47.84529" lon="0.45405">
        <ele>129</ele>
        <time>2019-08-05T09:02:11Z</time>
      </trkpt>
      <trkpt lat="47.84526" lon="0.45402">
        <ele>129</ele>
        <time>2019-08-05T09:02:14Z</time>
      </trkpt>
      <trkpt lat="47.84523" lon="0.454">
        <ele>130</ele>
        <time>2019-08-05T09:02:16Z</time>
      </trkpt>
      <trkpt lat="47.84514" lon="0.45394">
        <ele>130</ele>
        <time>2019-08-05T09:02:23Z</time>
      </trkpt>
      <trkpt lat="47.8451" lon="0.45392">
        <ele>130</ele>
        <time>2019-08-05T09:02:26Z</time>
      </trkpt>
      <trkpt lat="47.84507" lon="0.45393">
        <ele>130</ele>
        <time>2019-08-05T09:02:28Z</time>
      </trkpt>
      <trkpt lat="47.84505" lon="0.45396">
        <ele>130</ele>
        <time>2019-08-05T09:02:30Z</time>
      </trkpt>
      <trkpt lat="47.84504" lon="0.45413">
        <ele>130</ele>
        <time>2019-08-05T09:02:39Z</time>
      </trkpt>
      <trkpt lat="47.84504" lon="0.45426">
        <ele>131</ele>
        <time>2019-08-05T09:02:45Z</time>
      </trkpt>
      <trkpt lat="47.84504" lon="0.45443">
        <ele>131</ele>
        <time>2019-08-05T09:02:53Z</time>
      </trkpt>
      <trkpt lat="47.84501" lon="0.45508">
        <ele>133</ele>
        <time>2019-08-05T09:03:24Z</time>
      </trkpt>
      <trkpt lat="47.84502" lon="0.4552">
        <ele>133</ele>
        <time>2019-08-05T09:03:30Z</time>
      </trkpt>
      <trkpt lat="47.84502" lon="0.4558">
        <ele>124</ele>
        <time>2019-08-05T09:04:00Z</time>
      </trkpt>
      <trkpt lat="47.84503" lon="0.45598">
        <ele>125</ele>
        <time>2019-08-05T09:04:09Z</time>
      </trkpt>
      <trkpt lat="47.84503" lon="0.45661">
        <ele>123</ele>
        <time>2019-08-05T09:04:40Z</time>
      </trkpt>
      <trkpt lat="47.84505" lon="0.4568">
        <ele>123</ele>
        <time>2019-08-05T09:04:49Z</time>
      </trkpt>
      <trkpt lat="47.84507" lon="0.45734">
        <ele>121</ele>
        <time>2019-08-05T09:05:15Z</time>
      </trkpt>
      <trkpt lat="47.84512" lon="0.45801">
        <ele>123</ele>
        <time>2019-08-05T09:05:46Z</time>
      </trkpt>
      <trkpt lat="47.84519" lon="0.45865">
        <ele>125</ele>
        <time>2019-08-05T09:06:17Z</time>
      </trkpt>
      <trkpt lat="47.84519" lon="0.45878">
        <ele>124</ele>
        <time>2019-08-05T09:06:23Z</time>
      </trkpt>
      <trkpt lat="47.84523" lon="0.4591">
        <ele>120</ele>
        <time>2019-08-05T09:06:42Z</time>
      </trkpt>
      <trkpt lat="47.84524" lon="0.45945">
        <ele>119</ele>
        <time>2019-08-05T09:07:00Z</time>
      </trkpt>
      <trkpt lat="47.84525" lon="0.45958">
        <ele>119</ele>
        <time>2019-08-05T09:07:06Z</time>
      </trkpt>
      <trkpt lat="47.84525" lon="0.46017">
        <ele>117</ele>
        <time>2019-08-05T09:07:36Z</time>
      </trkpt>
      <trkpt lat="47.84526" lon="0.4608">
        <ele>117</ele>
        <time>2019-08-05T09:08:06Z</time>
      </trkpt>
      <trkpt lat="47.84527" lon="0.46128">
        <ele>115</ele>
        <time>2019-08-05T09:08:30Z</time>
      </trkpt>
      <trkpt lat="47.84528" lon="0.46133">
        <ele>115</ele>
        <time>2019-08-05T09:08:33Z</time>
      </trkpt>
      <trkpt lat="47.84528" lon="0.46139">
        <ele>115</ele>
        <time>2019-08-05T09:08:36Z</time>
      </trkpt>
      <trkpt lat="47.84535" lon="0.46191">
        <ele>115</ele>
        <time>2019-08-05T09:09:02Z</time>
      </trkpt>
      <trkpt lat="47.84541" lon="0.46211">
        <ele>113</ele>
        <time>2019-08-05T09:09:14Z</time>
      </trkpt>
      <trkpt lat="47.84561" lon="0.46265">
        <ele>122</ele>
        <time>2019-08-05T09:09:44Z</time>
      </trkpt>
      <trkpt lat="47.8457" lon="0.46286">
        <ele>124</ele>
        <time>2019-08-05T09:09:56Z</time>
      </trkpt>
      <trkpt lat="47.84572" lon="0.46291">
        <ele>124</ele>
        <time>2019-08-05T09:09:59Z</time>
      </trkpt>
      <trkpt lat="47.84576" lon="0.463">
        <ele>125</ele>
        <time>2019-08-05T09:10:04Z</time>
      </trkpt>
      <trkpt lat="47.84598" lon="0.46351">
        <ele>118</ele>
        <time>2019-08-05T09:10:34Z</time>
      </trkpt>
      <trkpt lat="47.84617" lon="0.46405">
        <ele>117</ele>
        <time>2019-08-05T09:11:04Z</time>
      </trkpt>
      <trkpt lat="47.8463" lon="0.46442">
        <ele>117</ele>
        <time>2019-08-05T09:11:25Z</time>
      </trkpt>
      <trkpt lat="47.84636" lon="0.4647">
        <ele>117</ele>
        <time>2019-08-05T09:11:40Z</time>
      </trkpt>
      <trkpt lat="47.84636" lon="0.46475">
        <ele>117</ele>
        <time>2019-08-05T09:11:43Z</time>
      </trkpt>
      <trkpt lat="47.84636" lon="0.46501">
        <ele>116</ele>
        <time>2019-08-05T09:11:57Z</time>
      </trkpt>
      <trkpt lat="47.84635" lon="0.46513">
        <ele>116</ele>
        <time>2019-08-05T09:12:03Z</time>
      </trkpt>
      <trkpt lat="47.84636" lon="0.46519">
        <ele>115</ele>
        <time>2019-08-05T09:12:06Z</time>
      </trkpt>
      <trkpt lat="47.84636" lon="0.46525">
        <ele>115</ele>
        <time>2019-08-05T09:12:09Z</time>
      </trkpt>
      <trkpt lat="47.84636" lon="0.46586">
        <ele>111</ele>
        <time>2019-08-05T09:12:40Z</time>
      </trkpt>
      <trkpt lat="47.84636" lon="0.4659">
        <ele>111</ele>
        <time>2019-08-05T09:12:43Z</time>
      </trkpt>
      <trkpt lat="47.84637" lon="0.46595">
        <ele>111</ele>
        <time>2019-08-05T09:12:46Z</time>
      </trkpt>
      <trkpt lat="47.8464" lon="0.46599">
        <ele>111</ele>
        <time>2019-08-05T09:12:49Z</time>
      </trkpt>
      <trkpt lat="47.84644" lon="0.466">
        <ele>111</ele>
        <time>2019-08-05T09:12:52Z</time>
      </trkpt>
      <trkpt lat="47.84656" lon="0.466">
        <ele>112</ele>
        <time>2019-08-05T09:13:01Z</time>
      </trkpt>
      <trkpt lat="47.8466" lon="0.46592">
        <ele>111</ele>
        <time>2019-08-05T09:13:14Z</time>
      </trkpt>
      <trkpt lat="47.84696" lon="0.46612">
        <ele>125</ele>
        <time>2019-08-05T09:13:44Z</time>
      </trkpt>
      <trkpt lat="47.847" lon="0.46613">
        <ele>125</ele>
        <time>2019-08-05T09:13:47Z</time>
      </trkpt>
      <trkpt lat="47.84704" lon="0.46613">
        <ele>120</ele>
        <time>2019-08-05T09:13:50Z</time>
      </trkpt>
      <trkpt lat="47.84708" lon="0.46614">
        <ele>120</ele>
        <time>2019-08-05T09:13:53Z</time>
      </trkpt>
      <trkpt lat="47.84712" lon="0.46616">
        <ele>123</ele>
        <time>2019-08-05T09:13:56Z</time>
      </trkpt>
      <trkpt lat="47.84717" lon="0.46624">
        <ele>124</ele>
        <time>2019-08-05T09:14:01Z</time>
      </trkpt>
      <trkpt lat="47.84719" lon="0.46636">
        <ele>119</ele>
        <time>2019-08-05T09:14:07Z</time>
      </trkpt>
      <trkpt lat="47.84723" lon="0.46705">
        <ele>117</ele>
        <time>2019-08-05T09:14:39Z</time>
      </trkpt>
      <trkpt lat="47.84728" lon="0.46757">
        <ele>117</ele>
        <time>2019-08-05T09:15:04Z</time>
      </trkpt>
      <trkpt lat="47.84733" lon="0.46821">
        <ele>117</ele>
        <time>2019-08-05T09:15:35Z</time>
      </trkpt>
      <trkpt lat="47.84737" lon="0.46835">
        <ele>116</ele>
        <time>2019-08-05T09:15:44Z</time>
      </trkpt>
      <trkpt lat="47.84738" lon="0.46839">
        <ele>115</ele>
        <time>2019-08-05T09:15:47Z</time>
      </trkpt>
      <trkpt lat="47.84746" lon="0.46876">
        <ele>114</ele>
        <time>2019-08-05T09:16:06Z</time>
      </trkpt>
      <trkpt lat="47.84752" lon="0.4689">
        <ele>109</ele>
        <time>2019-08-05T09:16:15Z</time>
      </trkpt>
      <trkpt lat="47.84752" lon="0.46901">
        <ele>109</ele>
        <time>2019-08-05T09:16:20Z</time>
      </trkpt>
      <trkpt lat="47.84751" lon="0.46908">
        <ele>111</ele>
        <time>2019-08-05T09:16:23Z</time>
      </trkpt>
      <trkpt lat="47.84745" lon="0.46952">
        <ele>112</ele>
        <time>2019-08-05T09:16:44Z</time>
      </trkpt>
      <trkpt lat="47.84744" lon="0.46974">
        <ele>114</ele>
        <time>2019-08-05T09:16:54Z</time>
      </trkpt>
      <trkpt lat="47.84743" lon="0.46979">
        <ele>114</ele>
        <time>2019-08-05T09:16:56Z</time>
      </trkpt>
      <trkpt lat="47.84742" lon="0.46984">
        <ele>114</ele>
        <time>2019-08-05T09:16:59Z</time>
      </trkpt>
      <trkpt lat="47.84742" lon="0.46989">
        <ele>114</ele>
        <time>2019-08-05T09:17:01Z</time>
      </trkpt>
      <trkpt lat="47.84735" lon="0.47023">
        <ele>114</ele>
        <time>2019-08-05T09:17:16Z</time>
      </trkpt>
      <trkpt lat="47.84734" lon="0.47043">
        <ele>114</ele>
        <time>2019-08-05T09:17:27Z</time>
      </trkpt>
      <trkpt lat="47.84736" lon="0.47073">
        <ele>122</ele>
        <time>2019-08-05T09:17:41Z</time>
      </trkpt>
      <trkpt lat="47.84746" lon="0.47117">
        <ele>114</ele>
        <time>2019-08-05T09:18:03Z</time>
      </trkpt>
      <trkpt lat="47.84754" lon="0.47136">
        <ele>114</ele>
        <time>2019-08-05T09:18:15Z</time>
      </trkpt>
      <trkpt lat="47.84775" lon="0.47162">
        <ele>114</ele>
        <time>2019-08-05T09:18:36Z</time>
      </trkpt>
      <trkpt lat="47.8478" lon="0.47171">
        <ele>114</ele>
        <time>2019-08-05T09:18:42Z</time>
      </trkpt>
      <trkpt lat="47.84782" lon="0.47177">
        <ele>114</ele>
        <time>2019-08-05T09:18:45Z</time>
      </trkpt>
      <trkpt lat="47.84784" lon="0.4719">
        <ele>114</ele>
        <time>2019-08-05T09:18:51Z</time>
      </trkpt>
      <trkpt lat="47.8478" lon="0.47231">
        <ele>114</ele>
        <time>2019-08-05T09:19:11Z</time>
      </trkpt>
      <trkpt lat="47.84774" lon="0.47273">
        <ele>115</ele>
        <time>2019-08-05T09:19:32Z</time>
      </trkpt>
      <trkpt lat="47.84772" lon="0.47314">
        <ele>114</ele>
        <time>2019-08-05T09:19:53Z</time>
      </trkpt>
      <trkpt lat="47.84771" lon="0.4732">
        <ele>114</ele>
        <time>2019-08-05T09:19:56Z</time>
      </trkpt>
      <trkpt lat="47.84772" lon="0.47338">
        <ele>113</ele>
        <time>2019-08-05T09:20:05Z</time>
      </trkpt>
      <trkpt lat="47.84778" lon="0.47345">
        <ele>113</ele>
        <time>2019-08-05T09:20:11Z</time>
      </trkpt>
      <trkpt lat="47.84812" lon="0.47364">
        <ele>113</ele>
        <time>2019-08-05T09:20:36Z</time>
      </trkpt>
      <trkpt lat="47.84839" lon="0.47374">
        <ele>121</ele>
        <time>2019-08-05T09:20:56Z</time>
      </trkpt>
      <trkpt lat="47.84846" lon="0.47374">
        <ele>121</ele>
        <time>2019-08-05T09:21:02Z</time>
      </trkpt>
      <trkpt lat="47.84859" lon="0.47377">
        <ele>120</ele>
        <time>2019-08-05T09:21:10Z</time>
      </trkpt>
      <trkpt lat="47.84904" lon="0.4738">
        <ele>121</ele>
        <time>2019-08-05T09:21:42Z</time>
      </trkpt>
      <trkpt lat="47.84924" lon="0.47374">
        <ele>119</ele>
        <time>2019-08-05T09:21:56Z</time>
      </trkpt>
      <trkpt lat="47.8493" lon="0.47372">
        <ele>120</ele>
        <time>2019-08-05T09:22:00Z</time>
      </trkpt>
      <trkpt lat="47.84934" lon="0.47372">
        <ele>120</ele>
        <time>2019-08-05T09:22:03Z</time>
      </trkpt>
      <trkpt lat="47.84937" lon="0.47375">
        <ele>120</ele>
        <time>2019-08-05T09:22:06Z</time>
      </trkpt>
      <trkpt lat="47.84937" lon="0.47427">
        <ele>120</ele>
        <time>2019-08-05T09:22:30Z</time>
      </trkpt>
      <trkpt lat="47.84936" lon="0.47433">
        <ele>118</ele>
        <time>2019-08-05T09:22:33Z</time>
      </trkpt>
      <trkpt lat="47.84936" lon="0.47462">
        <ele>112</ele>
        <time>2019-08-05T09:22:48Z</time>
      </trkpt>
      <trkpt lat="47.84938" lon="0.4747">
        <ele>111</ele>
        <time>2019-08-05T09:22:52Z</time>
      </trkpt>
      <trkpt lat="47.84939" lon="0.47483">
        <ele>111</ele>
        <time>2019-08-05T09:22:58Z</time>
      </trkpt>
      <trkpt lat="47.8494" lon="0.47488">
        <ele>117</ele>
        <time>2019-08-05T09:23:01Z</time>
      </trkpt>
      <trkpt lat="47.84943" lon="0.47532">
        <ele>110</ele>
        <time>2019-08-05T09:23:22Z</time>
      </trkpt>
      <trkpt lat="47.84943" lon="0.47538">
        <ele>109</ele>
        <time>2019-08-05T09:23:25Z</time>
      </trkpt>
      <trkpt lat="47.84952" lon="0.4757">
        <ele>106</ele>
        <time>2019-08-05T09:23:40Z</time>
      </trkpt>
      <trkpt lat="47.84956" lon="0.47579">
        <ele>105</ele>
        <time>2019-08-05T09:23:46Z</time>
      </trkpt>
      <trkpt lat="47.84958" lon="0.47583">
        <ele>104</ele>
        <time>2019-08-05T09:23:48Z</time>
      </trkpt>
      <trkpt lat="47.84963" lon="0.47594">
        <ele>113</ele>
        <time>2019-08-05T09:23:54Z</time>
      </trkpt>
      <trkpt lat="47.84963" lon="0.47604">
        <ele>112</ele>
        <time>2019-08-05T09:24:00Z</time>
      </trkpt>
      <trkpt lat="47.84963" lon="0.47609">
        <ele>113</ele>
        <time>2019-08-05T09:24:02Z</time>
      </trkpt>
      <trkpt lat="47.84963" lon="0.47614">
        <ele>114</ele>
        <time>2019-08-05T09:24:04Z</time>
      </trkpt>
      <trkpt lat="47.84964" lon="0.47628">
        <ele>112</ele>
        <time>2019-08-05T09:24:12Z</time>
      </trkpt>
      <trkpt lat="47.84964" lon="0.47644">
        <ele>116</ele>
        <time>2019-08-05T09:24:20Z</time>
      </trkpt>
      <trkpt lat="47.84962" lon="0.47648">
        <ele>110</ele>
        <time>2019-08-05T09:24:22Z</time>
      </trkpt>
      <trkpt lat="47.8496" lon="0.47652">
        <ele>108</ele>
        <time>2019-08-05T09:24:24Z</time>
      </trkpt>
      <trkpt lat="47.84957" lon="0.47653">
        <ele>106</ele>
        <time>2019-08-05T09:24:26Z</time>
      </trkpt>
      <trkpt lat="47.8495" lon="0.47651">
        <ele>105</ele>
        <time>2019-08-05T09:24:31Z</time>
      </trkpt>
      <trkpt lat="47.84935" lon="0.47648">
        <ele>104</ele>
        <time>2019-08-05T09:24:43Z</time>
      </trkpt>
      <trkpt lat="47.84924" lon="0.47649">
        <ele>105</ele>
        <time>2019-08-05T09:24:50Z</time>
      </trkpt>
      <trkpt lat="47.84887" lon="0.47656">
        <ele>108</ele>
        <time>2019-08-05T09:25:20Z</time>
      </trkpt>
      <trkpt lat="47.84884" lon="0.47658">
        <ele>108</ele>
        <time>2019-08-05T09:25:22Z</time>
      </trkpt>
      <trkpt lat="47.84882" lon="0.47659">
        <ele>108</ele>
        <time>2019-08-05T09:25:24Z</time>
      </trkpt>
      <trkpt lat="47.8484" lon="0.47667">
        <ele>109</ele>
        <time>2019-08-05T09:25:55Z</time>
      </trkpt>
      <trkpt lat="47.84837" lon="0.47667">
        <ele>109</ele>
        <time>2019-08-05T09:25:57Z</time>
      </trkpt>
      <trkpt lat="47.84817" lon="0.47664">
        <ele>109</ele>
        <time>2019-08-05T09:26:11Z</time>
      </trkpt>
      <trkpt lat="47.84804" lon="0.47657">
        <ele>110</ele>
        <time>2019-08-05T09:26:20Z</time>
      </trkpt>
      <trkpt lat="47.84795" lon="0.47649">
        <ele>111</ele>
        <time>2019-08-05T09:26:27Z</time>
      </trkpt>
      <trkpt lat="47.84789" lon="0.47647">
        <ele>112</ele>
        <time>2019-08-05T09:26:33Z</time>
      </trkpt>
      <trkpt lat="47.8478" lon="0.47641">
        <ele>112</ele>
        <time>2019-08-05T09:26:40Z</time>
      </trkpt>
      <trkpt lat="47.84762" lon="0.47632">
        <ele>113</ele>
        <time>2019-08-05T09:26:52Z</time>
      </trkpt>
      <trkpt lat="47.84756" lon="0.4763">
        <ele>112</ele>
        <time>2019-08-05T09:26:56Z</time>
      </trkpt>
      <trkpt lat="47.84746" lon="0.47624">
        <ele>109</ele>
        <time>2019-08-05T09:27:03Z</time>
      </trkpt>
      <trkpt lat="47.84736" lon="0.47625">
        <ele>111</ele>
        <time>2019-08-05T09:27:09Z</time>
      </trkpt>
      <trkpt lat="47.84729" lon="0.47624">
        <ele>111</ele>
        <time>2019-08-05T09:27:14Z</time>
      </trkpt>
      <trkpt lat="47.84723" lon="0.47619">
        <ele>111</ele>
        <time>2019-08-05T09:27:19Z</time>
      </trkpt>
      <trkpt lat="47.84719" lon="0.47618">
        <ele>110</ele>
        <time>2019-08-05T09:27:22Z</time>
      </trkpt>
      <trkpt lat="47.84716" lon="0.47617">
        <ele>109</ele>
        <time>2019-08-05T09:27:26Z</time>
      </trkpt>
      <trkpt lat="47.84712" lon="0.47617">
        <ele>109</ele>
        <time>2019-08-05T09:27:29Z</time>
      </trkpt>
      <trkpt lat="47.84706" lon="0.47612">
        <ele>108</ele>
        <time>2019-08-05T09:27:35Z</time>
      </trkpt>
      <trkpt lat="47.84702" lon="0.47608">
        <ele>107</ele>
        <time>2019-08-05T09:27:39Z</time>
      </trkpt>
      <trkpt lat="47.84696" lon="0.47604">
        <ele>106</ele>
        <time>2019-08-05T09:27:43Z</time>
      </trkpt>
      <trkpt lat="47.84691" lon="0.47602">
        <ele>104</ele>
        <time>2019-08-05T09:27:47Z</time>
      </trkpt>
      <trkpt lat="47.84684" lon="0.47598">
        <ele>105</ele>
        <time>2019-08-05T09:27:54Z</time>
      </trkpt>
      <trkpt lat="47.84681" lon="0.47598">
        <ele>105</ele>
        <time>2019-08-05T09:27:58Z</time>
      </trkpt>
      <trkpt lat="47.84651" lon="0.4759">
        <ele>101</ele>
        <time>2019-08-05T09:28:19Z</time>
      </trkpt>
      <trkpt lat="47.84647" lon="0.47592">
        <ele>101</ele>
        <time>2019-08-05T09:28:22Z</time>
      </trkpt>
      <trkpt lat="47.84629" lon="0.47594">
        <ele>102</ele>
        <time>2019-08-05T09:28:35Z</time>
      </trkpt>
      <trkpt lat="47.8462" lon="0.47601">
        <ele>102</ele>
        <time>2019-08-05T09:28:43Z</time>
      </trkpt>
      <trkpt lat="47.84612" lon="0.47609">
        <ele>101</ele>
        <time>2019-08-05T09:28:50Z</time>
      </trkpt>
      <trkpt lat="47.84577" lon="0.47627">
        <ele>99</ele>
        <time>2019-08-05T09:29:16Z</time>
      </trkpt>
      <trkpt lat="47.84568" lon="0.47634">
        <ele>98</ele>
        <time>2019-08-05T09:29:22Z</time>
      </trkpt>
      <trkpt lat="47.8455" lon="0.47643">
        <ele>99</ele>
        <time>2019-08-05T09:29:39Z</time>
      </trkpt>
      <trkpt lat="47.84541" lon="0.47643">
        <ele>99</ele>
        <time>2019-08-05T09:29:47Z</time>
      </trkpt>
      <trkpt lat="47.84515" lon="0.47653">
        <ele>96</ele>
        <time>2019-08-05T09:30:11Z</time>
      </trkpt>
      <trkpt lat="47.84505" lon="0.47657">
        <ele>94</ele>
        <time>2019-08-05T09:30:18Z</time>
      </trkpt>
      <trkpt lat="47.8449" lon="0.47673">
        <ele>94</ele>
        <time>2019-08-05T09:30:27Z</time>
      </trkpt>
      <trkpt lat="47.84482" lon="0.47676">
        <ele>95</ele>
        <time>2019-08-05T09:30:32Z</time>
      </trkpt>
      <trkpt lat="47.84472" lon="0.4768">
        <ele>93</ele>
        <time>2019-08-05T09:30:38Z</time>
      </trkpt>
      <trkpt lat="47.84463" lon="0.47684">
        <ele>93</ele>
        <time>2019-08-05T09:30:45Z</time>
      </trkpt>
      <trkpt lat="47.84422" lon="0.47712">
        <ele>93</ele>
        <time>2019-08-05T09:31:22Z</time>
      </trkpt>
      <trkpt lat="47.84377" lon="0.47735">
        <ele>96</ele>
        <time>2019-08-05T09:32:00Z</time>
      </trkpt>
      <trkpt lat="47.84359" lon="0.47744">
        <ele>93</ele>
        <time>2019-08-05T09:32:11Z</time>
      </trkpt>
      <trkpt lat="47.84348" lon="0.47744">
        <ele>93</ele>
        <time>2019-08-05T09:32:22Z</time>
      </trkpt>
      <trkpt lat="47.84337" lon="0.47751">
        <ele>44</ele>
        <time>2019-08-05T09:32:41Z</time>
      </trkpt>
      <trkpt lat="47.84333" lon="0.47755">
        <ele>90</ele>
        <time>2019-08-05T09:32:45Z</time>
      </trkpt>
      <trkpt lat="47.8433" lon="0.47757">
        <ele>93</ele>
        <time>2019-08-05T09:32:48Z</time>
      </trkpt>
      <trkpt lat="47.84328" lon="0.47759">
        <ele>92</ele>
        <time>2019-08-05T09:33:11Z</time>
      </trkpt>
      <trkpt lat="47.84325" lon="0.47758">
        <ele>93</ele>
        <time>2019-08-05T09:33:22Z</time>
      </trkpt>
      <trkpt lat="47.84323" lon="0.4776">
        <ele>99</ele>
        <time>2019-08-05T09:33:45Z</time>
      </trkpt>
      <trkpt lat="47.84319" lon="0.47761">
        <ele>99</ele>
        <time>2019-08-05T09:33:49Z</time>
      </trkpt>
      <trkpt lat="47.84315" lon="0.47761">
        <ele>103</ele>
        <time>2019-08-05T09:33:52Z</time>
      </trkpt>
      <trkpt lat="47.84314" lon="0.47765">
        <ele>104</ele>
        <time>2019-08-05T09:33:56Z</time>
      </trkpt>
      <trkpt lat="47.84315" lon="0.47765">
        <ele>101</ele>
        <time>2019-08-05T09:34:26Z</time>
      </trkpt>
      <trkpt lat="47.84311" lon="0.47764">
        <ele>100</ele>
        <time>2019-08-05T09:34:29Z</time>
      </trkpt>
      <trkpt lat="47.84305" lon="0.47766">
        <ele>98</ele>
        <time>2019-08-05T09:34:36Z</time>
      </trkpt>
      <trkpt lat="47.84302" lon="0.47769">
        <ele>97</ele>
        <time>2019-08-05T09:34:39Z</time>
      </trkpt>
      <trkpt lat="47.84299" lon="0.47772">
        <ele>91</ele>
        <time>2019-08-05T09:34:41Z</time>
      </trkpt>
      <trkpt lat="47.84294" lon="0.47773">
        <ele>87</ele>
        <time>2019-08-05T09:34:46Z</time>
      </trkpt>
      <trkpt lat="47.84289" lon="0.47774">
        <ele>87</ele>
        <time>2019-08-05T09:34:50Z</time>
      </trkpt>
      <trkpt lat="47.84279" lon="0.47769">
        <ele>85</ele>
        <time>2019-08-05T09:34:57Z</time>
      </trkpt>
      <trkpt lat="47.84232" lon="0.47757">
        <ele>106</ele>
        <time>2019-08-05T09:35:28Z</time>
      </trkpt>
      <trkpt lat="47.84197" lon="0.47752">
        <ele>110</ele>
        <time>2019-08-05T09:36:01Z</time>
      </trkpt>
      <trkpt lat="47.84188" lon="0.47752">
        <ele>117</ele>
        <time>2019-08-05T09:36:10Z</time>
      </trkpt>
      <trkpt lat="47.84184" lon="0.47753">
        <ele>116</ele>
        <time>2019-08-05T09:36:13Z</time>
      </trkpt>
      <trkpt lat="47.84174" lon="0.47754">
        <ele>123</ele>
        <time>2019-08-05T09:36:22Z</time>
      </trkpt>
      <trkpt lat="47.84171" lon="0.47752">
        <ele>124</ele>
        <time>2019-08-05T09:36:26Z</time>
      </trkpt>
      <trkpt lat="47.84159" lon="0.47752">
        <ele>122</ele>
        <time>2019-08-05T09:36:37Z</time>
      </trkpt>
      <trkpt lat="47.84149" lon="0.47751">
        <ele>114</ele>
        <time>2019-08-05T09:36:45Z</time>
      </trkpt>
      <trkpt lat="47.84131" lon="0.47748">
        <ele>115</ele>
        <time>2019-08-05T09:37:00Z</time>
      </trkpt>
      <trkpt lat="47.8412" lon="0.47744">
        <ele>115</ele>
        <time>2019-08-05T09:37:08Z</time>
      </trkpt>
      <trkpt lat="47.84078" lon="0.47729">
        <ele>125</ele>
        <time>2019-08-05T09:37:55Z</time>
      </trkpt>
      <trkpt lat="47.84057" lon="0.47729">
        <ele>133</ele>
        <time>2019-08-05T09:38:04Z</time>
      </trkpt>
      <trkpt lat="47.8404" lon="0.47727">
        <ele>129</ele>
        <time>2019-08-05T09:38:14Z</time>
      </trkpt>
      <trkpt lat="47.84022" lon="0.47728">
        <ele>125</ele>
        <time>2019-08-05T09:38:24Z</time>
      </trkpt>
      <trkpt lat="47.84015" lon="0.47728">
        <ele>124</ele>
        <time>2019-08-05T09:38:29Z</time>
      </trkpt>
      <trkpt lat="47.84011" lon="0.47728">
        <ele>125</ele>
        <time>2019-08-05T09:38:31Z</time>
      </trkpt>
      <trkpt lat="47.84007" lon="0.47727">
        <ele>125</ele>
        <time>2019-08-05T09:38:33Z</time>
      </trkpt>
      <trkpt lat="47.84006" lon="0.47723">
        <ele>126</ele>
        <time>2019-08-05T09:38:43Z</time>
      </trkpt>
      <trkpt lat="47.83995" lon="0.47728">
        <ele>125</ele>
        <time>2019-08-05T09:39:00Z</time>
      </trkpt>
      <trkpt lat="47.83991" lon="0.47728">
        <ele>125</ele>
        <time>2019-08-05T09:39:03Z</time>
      </trkpt>
      <trkpt lat="47.83954" lon="0.47731">
        <ele>126</ele>
        <time>2019-08-05T09:39:35Z</time>
      </trkpt>
      <trkpt lat="47.83947" lon="0.47736">
        <ele>128</ele>
        <time>2019-08-05T09:39:46Z</time>
      </trkpt>
      <trkpt lat="47.83896" lon="0.47732">
        <ele>129</ele>
        <time>2019-08-05T09:40:17Z</time>
      </trkpt>
      <trkpt lat="47.8389" lon="0.47731">
        <ele>129</ele>
        <time>2019-08-05T09:40:21Z</time>
      </trkpt>
      <trkpt lat="47.83887" lon="0.47728">
        <ele>129</ele>
        <time>2019-08-05T09:40:24Z</time>
      </trkpt>
      <trkpt lat="47.83885" lon="0.47725">
        <ele>129</ele>
        <time>2019-08-05T09:40:26Z</time>
      </trkpt>
      <trkpt lat="47.83884" lon="0.47721">
        <ele>129</ele>
        <time>2019-08-05T09:40:28Z</time>
      </trkpt>
      <trkpt lat="47.83877" lon="0.47658">
        <ele>129</ele>
        <time>2019-08-05T09:40:58Z</time>
      </trkpt>
      <trkpt lat="47.83872" lon="0.476">
        <ele>129</ele>
        <time>2019-08-05T09:41:27Z</time>
      </trkpt>
      <trkpt lat="47.83872" lon="0.47574">
        <ele>129</ele>
        <time>2019-08-05T09:41:40Z</time>
      </trkpt>
      <trkpt lat="47.83872" lon="0.4757">
        <ele>129</ele>
        <time>2019-08-05T09:41:42Z</time>
      </trkpt>
      <trkpt lat="47.83867" lon="0.47512">
        <ele>130</ele>
        <time>2019-08-05T09:42:12Z</time>
      </trkpt>
      <trkpt lat="47.83861" lon="0.47471">
        <ele>131</ele>
        <time>2019-08-05T09:44:09Z</time>
      </trkpt>
      <trkpt lat="47.83853" lon="0.4738">
        <ele>131</ele>
        <time>2019-08-05T09:44:40Z</time>
      </trkpt>
      <trkpt lat="47.83844" lon="0.47317">
        <ele>132</ele>
        <time>2019-08-05T09:45:11Z</time>
      </trkpt>
      <trkpt lat="47.83838" lon="0.47286">
        <ele>132</ele>
        <time>2019-08-05T09:45:27Z</time>
      </trkpt>
      <trkpt lat="47.83831" lon="0.47252">
        <ele>124</ele>
        <time>2019-08-05T09:45:44Z</time>
      </trkpt>
      <trkpt lat="47.83819" lon="0.472">
        <ele>127</ele>
        <time>2019-08-05T09:46:08Z</time>
      </trkpt>
      <trkpt lat="47.83805" lon="0.4714">
        <ele>125</ele>
        <time>2019-08-05T09:46:39Z</time>
      </trkpt>
      <trkpt lat="47.83789" lon="0.47084">
        <ele>125</ele>
        <time>2019-08-05T09:47:09Z</time>
      </trkpt>
      <trkpt lat="47.83786" lon="0.47071">
        <ele>126</ele>
        <time>2019-08-05T09:47:15Z</time>
      </trkpt>
      <trkpt lat="47.83776" lon="0.47025">
        <ele>127</ele>
        <time>2019-08-05T09:47:38Z</time>
      </trkpt>
      <trkpt lat="47.83762" lon="0.46978">
        <ele>128</ele>
        <time>2019-08-05T09:48:05Z</time>
      </trkpt>
      <trkpt lat="47.83761" lon="0.46972">
        <ele>127</ele>
        <time>2019-08-05T09:48:08Z</time>
      </trkpt>
      <trkpt lat="47.83759" lon="0.46967">
        <ele>127</ele>
        <time>2019-08-05T09:48:11Z</time>
      </trkpt>
      <trkpt lat="47.83755" lon="0.46964">
        <ele>127</ele>
        <time>2019-08-05T09:48:14Z</time>
      </trkpt>
      <trkpt lat="47.83751" lon="0.46964">
        <ele>127</ele>
        <time>2019-08-05T09:48:17Z</time>
      </trkpt>
      <trkpt lat="47.83744" lon="0.46968">
        <ele>127</ele>
        <time>2019-08-05T09:48:22Z</time>
      </trkpt>
      <trkpt lat="47.83736" lon="0.46974">
        <ele>126</ele>
        <time>2019-08-05T09:48:29Z</time>
      </trkpt>
      <trkpt lat="47.83729" lon="0.46975">
        <ele>126</ele>
        <time>2019-08-05T09:48:34Z</time>
      </trkpt>
      <trkpt lat="47.8372" lon="0.46979">
        <ele>132</ele>
        <time>2019-08-05T09:48:40Z</time>
      </trkpt>
      <trkpt lat="47.83715" lon="0.46984">
        <ele>132</ele>
        <time>2019-08-05T09:48:44Z</time>
      </trkpt>
      <trkpt lat="47.83706" lon="0.4699">
        <ele>132</ele>
        <time>2019-08-05T09:48:50Z</time>
      </trkpt>
      <trkpt lat="47.83696" lon="0.46998">
        <ele>127</ele>
        <time>2019-08-05T09:48:58Z</time>
      </trkpt>
      <trkpt lat="47.83693" lon="0.47001">
        <ele>127</ele>
        <time>2019-08-05T09:49:01Z</time>
      </trkpt>
      <trkpt lat="47.83686" lon="0.47008">
        <ele>128</ele>
        <time>2019-08-05T09:49:07Z</time>
      </trkpt>
      <trkpt lat="47.8367" lon="0.47023">
        <ele>126</ele>
        <time>2019-08-05T09:49:20Z</time>
      </trkpt>
      <trkpt lat="47.83631" lon="0.47052">
        <ele>124</ele>
        <time>2019-08-05T09:49:51Z</time>
      </trkpt>
      <trkpt lat="47.83599" lon="0.47073">
        <ele>123</ele>
        <time>2019-08-05T09:50:17Z</time>
      </trkpt>
      <trkpt lat="47.83565" lon="0.47081">
        <ele>136</ele>
        <time>2019-08-05T09:51:27Z</time>
      </trkpt>
      <trkpt lat="47.83548" lon="0.47084">
        <ele>135</ele>
        <time>2019-08-05T09:51:38Z</time>
      </trkpt>
      <trkpt lat="47.83535" lon="0.47085">
        <ele>134</ele>
        <time>2019-08-05T09:51:41Z</time>
      </trkpt>
      <trkpt lat="47.83489" lon="0.47129">
        <ele>129</ele>
        <time>2019-08-05T09:51:43Z</time>
      </trkpt>
      <trkpt lat="47.83487" lon="0.47133">
        <ele>128</ele>
        <time>2019-08-05T09:51:46Z</time>
      </trkpt>
      <trkpt lat="47.83484" lon="0.47136">
        <ele>128</ele>
        <time>2019-08-05T09:51:48Z</time>
      </trkpt>
      <trkpt lat="47.83446" lon="0.47164">
        <ele>128</ele>
        <time>2019-08-05T09:52:18Z</time>
      </trkpt>
      <trkpt lat="47.83434" lon="0.47171">
        <ele>129</ele>
        <time>2019-08-05T09:52:27Z</time>
      </trkpt>
      <trkpt lat="47.83422" lon="0.47174">
        <ele>128</ele>
        <time>2019-08-05T09:52:36Z</time>
      </trkpt>
      <trkpt lat="47.83394" lon="0.47176">
        <ele>136</ele>
        <time>2019-08-05T09:53:00Z</time>
      </trkpt>
      <trkpt lat="47.83387" lon="0.47178">
        <ele>130</ele>
        <time>2019-08-05T09:53:06Z</time>
      </trkpt>
      <trkpt lat="47.83345" lon="0.47178">
        <ele>130</ele>
        <time>2019-08-05T09:53:36Z</time>
      </trkpt>
      <trkpt lat="47.83316" lon="0.47167">
        <ele>130</ele>
        <time>2019-08-05T09:53:57Z</time>
      </trkpt>
      <trkpt lat="47.83309" lon="0.47169">
        <ele>130</ele>
        <time>2019-08-05T09:54:02Z</time>
      </trkpt>
      <trkpt lat="47.83303" lon="0.47174">
        <ele>130</ele>
        <time>2019-08-05T09:54:06Z</time>
      </trkpt>
      <trkpt lat="47.83297" lon="0.47179">
        <ele>136</ele>
        <time>2019-08-05T09:54:10Z</time>
      </trkpt>
      <trkpt lat="47.83295" lon="0.47182">
        <ele>137</ele>
        <time>2019-08-05T09:54:12Z</time>
      </trkpt>
      <trkpt lat="47.83291" lon="0.47194">
        <ele>131</ele>
        <time>2019-08-05T09:54:18Z</time>
      </trkpt>
      <trkpt lat="47.83284" lon="0.47201">
        <ele>136</ele>
        <time>2019-08-05T09:54:24Z</time>
      </trkpt>
      <trkpt lat="47.83262" lon="0.47225">
        <ele>130</ele>
        <time>2019-08-05T09:54:43Z</time>
      </trkpt>
      <trkpt lat="47.83259" lon="0.47227">
        <ele>130</ele>
        <time>2019-08-05T09:54:46Z</time>
      </trkpt>
      <trkpt lat="47.83246" lon="0.47249">
        <ele>129</ele>
        <time>2019-08-05T09:55:00Z</time>
      </trkpt>
      <trkpt lat="47.83237" lon="0.47261">
        <ele>126</ele>
        <time>2019-08-05T09:55:09Z</time>
      </trkpt>
      <trkpt lat="47.8323" lon="0.4727">
        <ele>125</ele>
        <time>2019-08-05T09:55:15Z</time>
      </trkpt>
      <trkpt lat="47.83224" lon="0.47276">
        <ele>125</ele>
        <time>2019-08-05T09:55:20Z</time>
      </trkpt>
      <trkpt lat="47.8322" lon="0.47277">
        <ele>125</ele>
        <time>2019-08-05T09:55:22Z</time>
      </trkpt>
      <trkpt lat="47.83215" lon="0.47277">
        <ele>124</ele>
        <time>2019-08-05T09:55:25Z</time>
      </trkpt>
      <trkpt lat="47.83212" lon="0.47275">
        <ele>125</ele>
        <time>2019-08-05T09:55:28Z</time>
      </trkpt>
      <trkpt lat="47.83207" lon="0.47265">
        <ele>127</ele>
        <time>2019-08-05T09:55:34Z</time>
      </trkpt>
      <trkpt lat="47.83197" lon="0.47204">
        <ele>128</ele>
        <time>2019-08-05T09:56:04Z</time>
      </trkpt>
      <trkpt lat="47.8319" lon="0.47138">
        <ele>128</ele>
        <time>2019-08-05T09:56:36Z</time>
      </trkpt>
      <trkpt lat="47.83184" lon="0.47091">
        <ele>128</ele>
        <time>2019-08-05T09:57:00Z</time>
      </trkpt>
      <trkpt lat="47.83183" lon="0.47027">
        <ele>121</ele>
        <time>2019-08-05T09:57:30Z</time>
      </trkpt>
      <trkpt lat="47.83183" lon="0.47022">
        <ele>121</ele>
        <time>2019-08-05T09:57:32Z</time>
      </trkpt>
      <trkpt lat="47.83183" lon="0.47016">
        <ele>121</ele>
        <time>2019-08-05T09:57:35Z</time>
      </trkpt>
      <trkpt lat="47.8318" lon="0.4695">
        <ele>122</ele>
        <time>2019-08-05T09:58:06Z</time>
      </trkpt>
      <trkpt lat="47.8318" lon="0.4694">
        <ele>121</ele>
        <time>2019-08-05T09:58:11Z</time>
      </trkpt>
      <trkpt lat="47.83182" lon="0.4693">
        <ele>121</ele>
        <time>2019-08-05T09:58:16Z</time>
      </trkpt>
      <trkpt lat="47.83187" lon="0.46856">
        <ele>124</ele>
        <time>2019-08-05T09:58:47Z</time>
      </trkpt>
      <trkpt lat="47.83197" lon="0.46794">
        <ele>125</ele>
        <time>2019-08-05T09:59:19Z</time>
      </trkpt>
      <trkpt lat="47.83204" lon="0.46745">
        <ele>125</ele>
        <time>2019-08-05T09:59:43Z</time>
      </trkpt>
      <trkpt lat="47.83209" lon="0.46686">
        <ele>135.1</ele>
      </trkpt>
      <trkpt lat="47.83205" lon="0.46647">
        <ele>134.8</ele>
      </trkpt>
      <trkpt lat="47.83186" lon="0.46548">
        <ele>109</ele>
        <time>2019-08-05T10:01:36Z</time>
      </trkpt>
      <trkpt lat="47.83159" lon="0.46556">
        <ele>111</ele>
        <time>2019-08-05T10:01:42Z</time>
      </trkpt>
      <trkpt lat="47.83148" lon="0.46555">
        <ele>112</ele>
        <time>2019-08-05T10:01:49Z</time>
      </trkpt>
      <trkpt lat="47.83137" lon="0.46556">
        <ele>113</ele>
        <time>2019-08-05T10:01:52Z</time>
      </trkpt>
      <trkpt lat="47.83126" lon="0.46555">
        <ele>117</ele>
        <time>2019-08-05T10:01:57Z</time>
      </trkpt>
      <trkpt lat="47.8312" lon="0.46556">
        <ele>119</ele>
        <time>2019-08-05T10:02:01Z</time>
      </trkpt>
      <trkpt lat="47.83115" lon="0.46557">
        <ele>120</ele>
        <time>2019-08-05T10:02:05Z</time>
      </trkpt>
      <trkpt lat="47.83086" lon="0.4656">
        <ele>120</ele>
        <time>2019-08-05T10:02:24Z</time>
      </trkpt>
      <trkpt lat="47.83079" lon="0.46563">
        <ele>117</ele>
        <time>2019-08-05T10:02:29Z</time>
      </trkpt>
      <trkpt lat="47.83068" lon="0.46562">
        <ele>115</ele>
        <time>2019-08-05T10:02:35Z</time>
      </trkpt>
      <trkpt lat="47.83064" lon="0.46562">
        <ele>118</ele>
        <time>2019-08-05T10:02:37Z</time>
      </trkpt>
      <trkpt lat="47.83021" lon="0.46569">
        <ele>121</ele>
        <time>2019-08-05T10:03:09Z</time>
      </trkpt>
      <trkpt lat="47.82984" lon="0.46577">
        <ele>121</ele>
        <time>2019-08-05T10:03:35Z</time>
      </trkpt>
      <trkpt lat="47.82981" lon="0.46577">
        <ele>122</ele>
        <time>2019-08-05T10:03:37Z</time>
      </trkpt>
      <trkpt lat="47.82952" lon="0.46586">
        <ele>124</ele>
        <time>2019-08-05T10:03:57Z</time>
      </trkpt>
      <trkpt lat="47.82941" lon="0.46594">
        <ele>133</ele>
        <time>2019-08-05T10:04:05Z</time>
      </trkpt>
      <trkpt lat="47.82939" lon="0.46596">
        <ele>129</ele>
        <time>2019-08-05T10:04:07Z</time>
      </trkpt>
      <trkpt lat="47.82932" lon="0.46601">
        <ele>128</ele>
        <time>2019-08-05T10:04:12Z</time>
      </trkpt>
      <trkpt lat="47.82903" lon="0.46626">
        <ele>126</ele>
        <time>2019-08-05T10:04:35Z</time>
      </trkpt>
      <trkpt lat="47.82871" lon="0.46642">
        <ele>124</ele>
        <time>2019-08-05T10:04:57Z</time>
      </trkpt>
      <trkpt lat="47.82864" lon="0.46646">
        <ele>123</ele>
        <time>2019-08-05T10:05:02Z</time>
      </trkpt>
      <trkpt lat="47.8285" lon="0.46652">
        <ele>124</ele>
        <time>2019-08-05T10:05:12Z</time>
      </trkpt>
      <trkpt lat="47.82846" lon="0.46653">
        <ele>125</ele>
        <time>2019-08-05T10:05:15Z</time>
      </trkpt>
      <trkpt lat="47.82821" lon="0.46666">
        <ele>125</ele>
        <time>2019-08-05T10:05:34Z</time>
      </trkpt>
      <trkpt lat="47.82801" lon="0.46683">
        <ele>126</ele>
        <time>2019-08-05T10:05:50Z</time>
      </trkpt>
      <trkpt lat="47.82785" lon="0.46696">
        <ele>124</ele>
        <time>2019-08-05T10:06:04Z</time>
      </trkpt>
      <trkpt lat="47.82776" lon="0.46704">
        <ele>124</ele>
        <time>2019-08-05T10:06:11Z</time>
      </trkpt>
      <trkpt lat="47.82745" lon="0.46728">
        <ele>122</ele>
        <time>2019-08-05T10:06:35Z</time>
      </trkpt>
      <trkpt lat="47.82713" lon="0.46755">
        <ele>125.3</ele>
      </trkpt>
      <trkpt lat="47.82703" lon="0.46763">
        <ele>124.3</ele>
      </trkpt>
      <trkpt lat="47.82695" lon="0.4678">
        <ele>123</ele>
      </trkpt>
      <trkpt lat="47.82686" lon="0.46825">
        <ele>122.3</ele>
      </trkpt>
      <trkpt lat="47.8268" lon="0.46852">
        <ele>122.5</ele>
      </trkpt>
      <trkpt lat="47.82685" lon="0.46859">
        <ele>108</ele>
        <time>2019-08-05T10:07:54Z</time>
      </trkpt>
      <trkpt lat="47.82684" lon="0.46863">
        <ele>108</ele>
        <time>2019-08-05T10:07:58Z</time>
      </trkpt>
      <trkpt lat="47.82687" lon="0.4688">
        <ele>109</ele>
        <time>2019-08-05T10:08:06Z</time>
      </trkpt>
      <trkpt lat="47.82699" lon="0.46911">
        <ele>110</ele>
        <time>2019-08-05T10:08:24Z</time>
      </trkpt>
      <trkpt lat="47.82704" lon="0.46919">
        <ele>111</ele>
        <time>2019-08-05T10:08:30Z</time>
      </trkpt>
      <trkpt lat="47.82708" lon="0.46928">
        <ele>111</ele>
        <time>2019-08-05T10:08:36Z</time>
      </trkpt>
      <trkpt lat="47.82713" lon="0.46935">
        <ele>113</ele>
        <time>2019-08-05T10:08:40Z</time>
      </trkpt>
      <trkpt lat="47.82716" lon="0.46944">
        <ele>113</ele>
        <time>2019-08-05T10:08:44Z</time>
      </trkpt>
      <trkpt lat="47.82725" lon="0.46971">
        <ele>113</ele>
        <time>2019-08-05T10:08:56Z</time>
      </trkpt>
      <trkpt lat="47.82727" lon="0.46975">
        <ele>114</ele>
        <time>2019-08-05T10:08:58Z</time>
      </trkpt>
      <trkpt lat="47.82745" lon="0.47032">
        <ele>113</ele>
        <time>2019-08-05T10:09:30Z</time>
      </trkpt>
      <trkpt lat="47.82755" lon="0.47059">
        <ele>110</ele>
        <time>2019-08-05T10:09:42Z</time>
      </trkpt>
      <trkpt lat="47.82771" lon="0.47132">
        <ele>114</ele>
        <time>2019-08-05T10:10:14Z</time>
      </trkpt>
      <trkpt lat="47.82781" lon="0.47186">
        <ele>109</ele>
        <time>2019-08-05T10:10:45Z</time>
      </trkpt>
      <trkpt lat="47.82794" lon="0.47248">
        <ele>107</ele>
        <time>2019-08-05T10:11:15Z</time>
      </trkpt>
      <trkpt lat="47.82794" lon="0.47261">
        <ele>107</ele>
        <time>2019-08-05T10:11:21Z</time>
      </trkpt>
      <trkpt lat="47.82795" lon="0.4729">
        <ele>106</ele>
        <time>2019-08-05T10:11:36Z</time>
      </trkpt>
      <trkpt lat="47.82796" lon="0.47295">
        <ele>106</ele>
        <time>2019-08-05T10:11:38Z</time>
      </trkpt>
      <trkpt lat="47.82796" lon="0.47307">
        <ele>106</ele>
        <time>2019-08-05T10:11:42Z</time>
      </trkpt>
      <trkpt lat="47.82794" lon="0.47323">
        <ele>108</ele>
        <time>2019-08-05T10:11:50Z</time>
      </trkpt>
      <trkpt lat="47.82795" lon="0.47335">
        <ele>110</ele>
        <time>2019-08-05T10:11:57Z</time>
      </trkpt>
      <trkpt lat="47.82792" lon="0.4736">
        <ele>113</ele>
        <time>2019-08-05T10:12:09Z</time>
      </trkpt>
      <trkpt lat="47.82791" lon="0.47364">
        <ele>114</ele>
        <time>2019-08-05T10:12:11Z</time>
      </trkpt>
      <trkpt lat="47.82778" lon="0.4739">
        <ele>109</ele>
        <time>2019-08-05T10:12:22Z</time>
      </trkpt>
      <trkpt lat="47.82775" lon="0.47399">
        <ele>107</ele>
        <time>2019-08-05T10:12:26Z</time>
      </trkpt>
      <trkpt lat="47.8277" lon="0.47425">
        <ele>106</ele>
        <time>2019-08-05T10:12:38Z</time>
      </trkpt>
      <trkpt lat="47.8276" lon="0.47466">
        <ele>106</ele>
        <time>2019-08-05T10:12:59Z</time>
      </trkpt>
      <trkpt lat="47.82759" lon="0.47478">
        <ele>105</ele>
        <time>2019-08-05T10:13:05Z</time>
      </trkpt>
      <trkpt lat="47.82738" lon="0.47541">
        <ele>102</ele>
        <time>2019-08-05T10:13:36Z</time>
      </trkpt>
      <trkpt lat="47.82723" lon="0.47571">
        <ele>104</ele>
        <time>2019-08-05T10:13:53Z</time>
      </trkpt>
      <trkpt lat="47.82719" lon="0.47582">
        <ele>103</ele>
        <time>2019-08-05T10:13:59Z</time>
      </trkpt>
      <trkpt lat="47.82711" lon="0.47611">
        <ele>100</ele>
        <time>2019-08-05T10:14:14Z</time>
      </trkpt>
      <trkpt lat="47.82698" lon="0.47664">
        <ele>102</ele>
        <time>2019-08-05T10:14:44Z</time>
      </trkpt>
      <trkpt lat="47.82695" lon="0.47669">
        <ele>103</ele>
        <time>2019-08-05T10:14:47Z</time>
      </trkpt>
      <trkpt lat="47.82692" lon="0.47679">
        <ele>103</ele>
        <time>2019-08-05T10:14:52Z</time>
      </trkpt>
      <trkpt lat="47.82683" lon="0.47698">
        <ele>104</ele>
        <time>2019-08-05T10:15:04Z</time>
      </trkpt>
      <trkpt lat="47.82681" lon="0.47715">
        <ele>102</ele>
        <time>2019-08-05T10:15:10Z</time>
      </trkpt>
      <trkpt lat="47.82642" lon="0.47849">
        <ele>107</ele>
        <time>2019-08-05T10:16:46Z</time>
      </trkpt>
      <trkpt lat="47.82631" lon="0.47924">
        <ele>107</ele>
        <time>2019-08-05T10:16:52Z</time>
      </trkpt>
      <trkpt lat="47.82628" lon="0.47942">
        <ele>105</ele>
        <time>2019-08-05T10:17:00Z</time>
      </trkpt>
      <trkpt lat="47.82627" lon="0.47948">
        <ele>104</ele>
        <time>2019-08-05T10:17:04Z</time>
      </trkpt>
      <trkpt lat="47.82614" lon="0.47998">
        <ele>99</ele>
        <time>2019-08-05T10:17:29Z</time>
      </trkpt>
      <trkpt lat="47.8261" lon="0.48015">
        <ele>99</ele>
        <time>2019-08-05T10:17:37Z</time>
      </trkpt>
      <trkpt lat="47.82587" lon="0.48076">
        <ele>95</ele>
        <time>2019-08-05T10:18:08Z</time>
      </trkpt>
      <trkpt lat="47.82583" lon="0.48085">
        <ele>95</ele>
        <time>2019-08-05T10:18:13Z</time>
      </trkpt>
      <trkpt lat="47.82572" lon="0.48117">
        <ele>93</ele>
        <time>2019-08-05T10:18:31Z</time>
      </trkpt>
      <trkpt lat="47.8257" lon="0.48122">
        <ele>94</ele>
        <time>2019-08-05T10:18:34Z</time>
      </trkpt>
      <trkpt lat="47.82567" lon="0.48131">
        <ele>96</ele>
        <time>2019-08-05T10:18:39Z</time>
      </trkpt>
      <trkpt lat="47.82565" lon="0.48135">
        <ele>96</ele>
        <time>2019-08-05T10:18:41Z</time>
      </trkpt>
      <trkpt lat="47.82563" lon="0.48139">
        <ele>96</ele>
        <time>2019-08-05T10:18:44Z</time>
      </trkpt>
      <trkpt lat="47.82557" lon="0.48152">
        <ele>100</ele>
        <time>2019-08-05T10:18:53Z</time>
      </trkpt>
      <trkpt lat="47.82555" lon="0.48157">
        <ele>101</ele>
        <time>2019-08-05T10:18:57Z</time>
      </trkpt>
      <trkpt lat="47.82541" lon="0.48204">
        <ele>102</ele>
        <time>2019-08-05T10:19:21Z</time>
      </trkpt>
      <trkpt lat="47.82522" lon="0.4825">
        <ele>87</ele>
        <time>2019-08-05T10:19:44Z</time>
      </trkpt>
      <trkpt lat="47.82512" lon="0.48281">
        <ele>94</ele>
        <time>2019-08-05T10:20:00Z</time>
      </trkpt>
      <trkpt lat="47.82497" lon="0.48314">
        <ele>89</ele>
        <time>2019-08-05T10:20:20Z</time>
      </trkpt>
      <trkpt lat="47.82496" lon="0.48318">
        <ele>90</ele>
        <time>2019-08-05T10:20:22Z</time>
      </trkpt>
      <trkpt lat="47.8249" lon="0.48332">
        <ele>91</ele>
        <time>2019-08-05T10:20:30Z</time>
      </trkpt>
      <trkpt lat="47.82486" lon="0.48341">
        <ele>92</ele>
        <time>2019-08-05T10:20:35Z</time>
      </trkpt>
      <trkpt lat="47.82477" lon="0.48379">
        <ele>91</ele>
        <time>2019-08-05T10:20:54Z</time>
      </trkpt>
      <trkpt lat="47.82478" lon="0.48384">
        <ele>91</ele>
        <time>2019-08-05T10:20:56Z</time>
      </trkpt>
      <trkpt lat="47.82477" lon="0.48398">
        <ele>91</ele>
        <time>2019-08-05T10:21:02Z</time>
      </trkpt>
      <trkpt lat="47.82476" lon="0.48409">
        <ele>90</ele>
        <time>2019-08-05T10:21:07Z</time>
      </trkpt>
      <trkpt lat="47.82473" lon="0.48441">
        <ele>90</ele>
        <time>2019-08-05T10:21:22Z</time>
      </trkpt>
      <trkpt lat="47.82476" lon="0.48484">
        <ele>93</ele>
        <time>2019-08-05T10:21:42Z</time>
      </trkpt>
      <trkpt lat="47.82479" lon="0.48506">
        <ele>94</ele>
        <time>2019-08-05T10:21:53Z</time>
      </trkpt>
      <trkpt lat="47.8248" lon="0.48513">
        <ele>95</ele>
        <time>2019-08-05T10:21:56Z</time>
      </trkpt>
      <trkpt lat="47.82484" lon="0.48536">
        <ele>97</ele>
        <time>2019-08-05T10:22:08Z</time>
      </trkpt>
      <trkpt lat="47.82488" lon="0.48555">
        <ele>97</ele>
        <time>2019-08-05T10:22:17Z</time>
      </trkpt>
      <trkpt lat="47.8249" lon="0.4857">
        <ele>96</ele>
        <time>2019-08-05T10:22:24Z</time>
      </trkpt>
      <trkpt lat="47.82494" lon="0.48595">
        <ele>94</ele>
        <time>2019-08-05T10:22:36Z</time>
      </trkpt>
      <trkpt lat="47.82495" lon="0.48615">
        <ele>95</ele>
        <time>2019-08-05T10:22:45Z</time>
      </trkpt>
      <trkpt lat="47.82505" lon="0.48661">
        <ele>95</ele>
        <time>2019-08-05T10:23:07Z</time>
      </trkpt>
      <trkpt lat="47.82505" lon="0.48671">
        <ele>95</ele>
        <time>2019-08-05T10:23:13Z</time>
      </trkpt>
      <trkpt lat="47.82502" lon="0.48681">
        <ele>95</ele>
        <time>2019-08-05T10:23:19Z</time>
      </trkpt>
      <trkpt lat="47.8249" lon="0.48702">
        <ele>96</ele>
        <time>2019-08-05T10:23:31Z</time>
      </trkpt>
      <trkpt lat="47.82483" lon="0.48711">
        <ele>97</ele>
        <time>2019-08-05T10:23:37Z</time>
      </trkpt>
      <trkpt lat="47.82479" lon="0.48718">
        <ele>98</ele>
        <time>2019-08-05T10:23:41Z</time>
      </trkpt>
      <trkpt lat="47.82471" lon="0.4873">
        <ele>98</ele>
        <time>2019-08-05T10:23:49Z</time>
      </trkpt>
      <trkpt lat="47.82467" lon="0.48737">
        <ele>97</ele>
        <time>2019-08-05T10:23:53Z</time>
      </trkpt>
      <trkpt lat="47.82467" lon="0.48748">
        <ele>97</ele>
        <time>2019-08-05T10:23:58Z</time>
      </trkpt>
      <trkpt lat="47.82467" lon="0.48753">
        <ele>98</ele>
        <time>2019-08-05T10:24:00Z</time>
      </trkpt>
      <trkpt lat="47.82482" lon="0.48811">
        <ele>91</ele>
        <time>2019-08-05T10:24:31Z</time>
      </trkpt>
      <trkpt lat="47.82488" lon="0.4886">
        <ele>96</ele>
        <time>2019-08-05T10:24:54Z</time>
      </trkpt>
      <trkpt lat="47.82492" lon="0.48876">
        <ele>96</ele>
        <time>2019-08-05T10:25:03Z</time>
      </trkpt>
      <trkpt lat="47.82492" lon="0.48882">
        <ele>96</ele>
        <time>2019-08-05T10:25:06Z</time>
      </trkpt>
      <trkpt lat="47.82494" lon="0.48886">
        <ele>95</ele>
        <time>2019-08-05T10:25:09Z</time>
      </trkpt>
      <trkpt lat="47.82494" lon="0.48896">
        <ele>97</ele>
        <time>2019-08-05T10:25:14Z</time>
      </trkpt>
      <trkpt lat="47.82495" lon="0.48903">
        <ele>97</ele>
        <time>2019-08-05T10:25:17Z</time>
      </trkpt>
      <trkpt lat="47.82496" lon="0.48917">
        <ele>97</ele>
        <time>2019-08-05T10:25:23Z</time>
      </trkpt>
      <trkpt lat="47.82495" lon="0.48921">
        <ele>97</ele>
        <time>2019-08-05T10:25:25Z</time>
      </trkpt>
      <trkpt lat="47.82503" lon="0.48945">
        <ele>96</ele>
        <time>2019-08-05T10:25:37Z</time>
      </trkpt>
      <trkpt lat="47.82507" lon="0.48952">
        <ele>96</ele>
        <time>2019-08-05T10:25:41Z</time>
      </trkpt>
      <trkpt lat="47.8251" lon="0.48957">
        <ele>96</ele>
        <time>2019-08-05T10:25:44Z</time>
      </trkpt>
      <trkpt lat="47.82512" lon="0.48961">
        <ele>95</ele>
        <time>2019-08-05T10:25:47Z</time>
      </trkpt>
      <trkpt lat="47.82513" lon="0.48967">
        <ele>95</ele>
        <time>2019-08-05T10:25:50Z</time>
      </trkpt>
      <trkpt lat="47.82517" lon="0.48982">
        <ele>92</ele>
        <time>2019-08-05T10:25:59Z</time>
      </trkpt>
      <trkpt lat="47.82529" lon="0.49026">
        <ele>91</ele>
        <time>2019-08-05T10:26:21Z</time>
      </trkpt>
      <trkpt lat="47.82533" lon="0.49038">
        <ele>95</ele>
        <time>2019-08-05T10:26:26Z</time>
      </trkpt>
      <trkpt lat="47.82529" lon="0.49048">
        <ele>95</ele>
        <time>2019-08-05T10:26:30Z</time>
      </trkpt>
      <trkpt lat="47.82533" lon="0.49063">
        <ele>94</ele>
        <time>2019-08-05T10:26:37Z</time>
      </trkpt>
      <trkpt lat="47.82535" lon="0.49074">
        <ele>93</ele>
        <time>2019-08-05T10:26:43Z</time>
      </trkpt>
      <trkpt lat="47.82534" lon="0.49081">
        <ele>93</ele>
        <time>2019-08-05T10:26:47Z</time>
      </trkpt>
      <trkpt lat="47.82534" lon="0.49088">
        <ele>95</ele>
        <time>2019-08-05T10:26:50Z</time>
      </trkpt>
      <trkpt lat="47.82532" lon="0.49093">
        <ele>95</ele>
        <time>2019-08-05T10:26:53Z</time>
      </trkpt>
      <trkpt lat="47.82529" lon="0.49099">
        <ele>95</ele>
        <time>2019-08-05T10:26:56Z</time>
      </trkpt>
      <trkpt lat="47.82523" lon="0.49106">
        <ele>94</ele>
        <time>2019-08-05T10:27:03Z</time>
      </trkpt>
      <trkpt lat="47.82522" lon="0.49111">
        <ele>92</ele>
        <time>2019-08-05T10:27:05Z</time>
      </trkpt>
      <trkpt lat="47.82515" lon="0.49137">
        <ele>92</ele>
        <time>2019-08-05T10:27:18Z</time>
      </trkpt>
      <trkpt lat="47.82508" lon="0.49158">
        <ele>87</ele>
        <time>2019-08-05T10:27:28Z</time>
      </trkpt>
      <trkpt lat="47.82502" lon="0.49168">
        <ele>89</ele>
        <time>2019-08-05T10:27:34Z</time>
      </trkpt>
      <trkpt lat="47.825" lon="0.49173">
        <ele>87</ele>
        <time>2019-08-05T10:27:37Z</time>
      </trkpt>
      <trkpt lat="47.82496" lon="0.49182">
        <ele>85</ele>
        <time>2019-08-05T10:27:42Z</time>
      </trkpt>
      <trkpt lat="47.82494" lon="0.49187">
        <ele>85</ele>
        <time>2019-08-05T10:27:45Z</time>
      </trkpt>
      <trkpt lat="47.82485" lon="0.49222">
        <ele>78</ele>
        <time>2019-08-05T10:28:05Z</time>
      </trkpt>
      <trkpt lat="47.82481" lon="0.49229">
        <ele>81</ele>
        <time>2019-08-05T10:28:09Z</time>
      </trkpt>
      <trkpt lat="47.82478" lon="0.49238">
        <ele>83</ele>
        <time>2019-08-05T10:28:14Z</time>
      </trkpt>
      <trkpt lat="47.82456" lon="0.49282">
        <ele>89</ele>
        <time>2019-08-05T10:28:37Z</time>
      </trkpt>
      <trkpt lat="47.82443" lon="0.49308">
        <ele>92</ele>
        <time>2019-08-05T10:28:53Z</time>
      </trkpt>
      <trkpt lat="47.82441" lon="0.4931">
        <ele>90</ele>
        <time>2019-08-05T10:28:57Z</time>
      </trkpt>
      <trkpt lat="47.82437" lon="0.49323">
        <ele>88</ele>
        <time>2019-08-05T10:29:08Z</time>
      </trkpt>
      <trkpt lat="47.82441" lon="0.49342">
        <ele>88</ele>
        <time>2019-08-05T10:29:17Z</time>
      </trkpt>
      <trkpt lat="47.82447" lon="0.49364">
        <ele>89</ele>
        <time>2019-08-05T10:29:27Z</time>
      </trkpt>
      <trkpt lat="47.82447" lon="0.49369">
        <ele>89</ele>
        <time>2019-08-05T10:29:29Z</time>
      </trkpt>
      <trkpt lat="47.82446" lon="0.49378">
        <ele>89</ele>
        <time>2019-08-05T10:29:33Z</time>
      </trkpt>
      <trkpt lat="47.82444" lon="0.49388">
        <ele>90</ele>
        <time>2019-08-05T10:29:38Z</time>
      </trkpt>
      <trkpt lat="47.82443" lon="0.49393">
        <ele>90</ele>
        <time>2019-08-05T10:29:40Z</time>
      </trkpt>
      <trkpt lat="47.82445" lon="0.4941">
        <ele>89</ele>
        <time>2019-08-05T10:29:49Z</time>
      </trkpt>
      <trkpt lat="47.8245" lon="0.49418">
        <ele>87</ele>
        <time>2019-08-05T10:30:02Z</time>
      </trkpt>
      <trkpt lat="47.82453" lon="0.49422">
        <ele>87</ele>
        <time>2019-08-05T10:30:05Z</time>
      </trkpt>
      <trkpt lat="47.82455" lon="0.49434">
        <ele>86</ele>
        <time>2019-08-05T10:30:11Z</time>
      </trkpt>
      <trkpt lat="47.82457" lon="0.49448">
        <ele>86</ele>
        <time>2019-08-05T10:30:20Z</time>
      </trkpt>
      <trkpt lat="47.82461" lon="0.49483">
        <ele>84</ele>
        <time>2019-08-05T10:30:38Z</time>
      </trkpt>
      <trkpt lat="47.82461" lon="0.49544">
        <ele>84</ele>
        <time>2019-08-05T10:31:08Z</time>
      </trkpt>
      <trkpt lat="47.8246" lon="0.4955">
        <ele>84</ele>
        <time>2019-08-05T10:31:11Z</time>
      </trkpt>
      <trkpt lat="47.82444" lon="0.49611">
        <ele>86</ele>
        <time>2019-08-05T10:31:41Z</time>
      </trkpt>
      <trkpt lat="47.82435" lon="0.49641">
        <ele>89</ele>
        <time>2019-08-05T10:31:55Z</time>
      </trkpt>
      <trkpt lat="47.82431" lon="0.4965">
        <ele>90</ele>
        <time>2019-08-05T10:32:01Z</time>
      </trkpt>
      <trkpt lat="47.82428" lon="0.49654">
        <ele>90</ele>
        <time>2019-08-05T10:32:04Z</time>
      </trkpt>
      <trkpt lat="47.82425" lon="0.49656">
        <ele>90</ele>
        <time>2019-08-05T10:32:07Z</time>
      </trkpt>
      <trkpt lat="47.82387" lon="0.49668">
        <ele>87</ele>
        <time>2019-08-05T10:32:38Z</time>
      </trkpt>
      <trkpt lat="47.82347" lon="0.49681">
        <ele>82</ele>
        <time>2019-08-05T10:33:09Z</time>
      </trkpt>
      <trkpt lat="47.82331" lon="0.49682">
        <ele>82</ele>
        <time>2019-08-05T10:33:20Z</time>
      </trkpt>
      <trkpt lat="47.82273" lon="0.49693">
        <ele>95</ele>
        <time>2019-08-05T10:34:04Z</time>
      </trkpt>
      <trkpt lat="47.82268" lon="0.49689">
        <ele>102</ele>
        <time>2019-08-05T10:34:08Z</time>
      </trkpt>
      <trkpt lat="47.8226" lon="0.4969">
        <ele>104</ele>
        <time>2019-08-05T10:34:14Z</time>
      </trkpt>
      <trkpt lat="47.82253" lon="0.4969">
        <ele>100</ele>
        <time>2019-08-05T10:34:19Z</time>
      </trkpt>
      <trkpt lat="47.82213" lon="0.49698">
        <ele>90</ele>
        <time>2019-08-05T10:34:45Z</time>
      </trkpt>
      <trkpt lat="47.82209" lon="0.497">
        <ele>89</ele>
        <time>2019-08-05T10:34:48Z</time>
      </trkpt>
      <trkpt lat="47.82165" lon="0.49711">
        <ele>86</ele>
        <time>2019-08-05T10:35:19Z</time>
      </trkpt>
      <trkpt lat="47.82148" lon="0.49716">
        <ele>85</ele>
        <time>2019-08-05T10:35:33Z</time>
      </trkpt>
      <trkpt lat="47.82107" lon="0.49722">
        <ele>83</ele>
        <time>2019-08-05T10:36:03Z</time>
      </trkpt>
      <trkpt lat="47.82093" lon="0.49725">
        <ele>84</ele>
        <time>2019-08-05T10:36:14Z</time>
      </trkpt>
      <trkpt lat="47.82074" lon="0.4973">
        <ele>85</ele>
        <time>2019-08-05T10:36:28Z</time>
      </trkpt>
      <trkpt lat="47.8207" lon="0.4973">
        <ele>84</ele>
        <time>2019-08-05T10:36:31Z</time>
      </trkpt>
      <trkpt lat="47.82051" lon="0.49737">
        <ele>86</ele>
        <time>2019-08-05T10:36:43Z</time>
      </trkpt>
      <trkpt lat="47.82046" lon="0.49738">
        <ele>86</ele>
        <time>2019-08-05T10:36:47Z</time>
      </trkpt>
      <trkpt lat="47.82029" lon="0.49747">
        <ele>84</ele>
        <time>2019-08-05T10:37:00Z</time>
      </trkpt>
      <trkpt lat="47.82026" lon="0.49748">
        <ele>84</ele>
        <time>2019-08-05T10:37:02Z</time>
      </trkpt>
      <trkpt lat="47.82023" lon="0.4975">
        <ele>84</ele>
        <time>2019-08-05T10:37:05Z</time>
      </trkpt>
      <trkpt lat="47.82016" lon="0.49754">
        <ele>80</ele>
        <time>2019-08-05T10:37:11Z</time>
      </trkpt>
      <trkpt lat="47.81995" lon="0.49768">
        <ele>79</ele>
        <time>2019-08-05T10:37:27Z</time>
      </trkpt>
      <trkpt lat="47.81975" lon="0.49785">
        <ele>81</ele>
        <time>2019-08-05T10:37:42Z</time>
      </trkpt>
      <trkpt lat="47.8194" lon="0.4981">
        <ele>79</ele>
        <time>2019-08-05T10:38:12Z</time>
      </trkpt>
      <trkpt lat="47.8192" lon="0.49824">
        <ele>78</ele>
        <time>2019-08-05T10:38:30Z</time>
      </trkpt>
      <trkpt lat="47.81917" lon="0.49826">
        <ele>79</ele>
        <time>2019-08-05T10:38:32Z</time>
      </trkpt>
      <trkpt lat="47.81876" lon="0.49865">
        <ele>83</ele>
        <time>2019-08-05T10:39:04Z</time>
      </trkpt>
      <trkpt lat="47.81873" lon="0.49868">
        <ele>83</ele>
        <time>2019-08-05T10:39:08Z</time>
      </trkpt>
      <trkpt lat="47.81837" lon="0.49902">
        <ele>90</ele>
        <time>2019-08-05T10:39:40Z</time>
      </trkpt>
      <trkpt lat="47.81832" lon="0.49909">
        <ele>90</ele>
        <time>2019-08-05T10:39:44Z</time>
      </trkpt>
      <trkpt lat="47.81817" lon="0.4992">
        <ele>89</ele>
        <time>2019-08-05T10:39:56Z</time>
      </trkpt>
      <trkpt lat="47.81815" lon="0.49922">
        <ele>89</ele>
        <time>2019-08-05T10:39:58Z</time>
      </trkpt>
      <trkpt lat="47.81806" lon="0.49928">
        <ele>89</ele>
        <time>2019-08-05T10:40:07Z</time>
      </trkpt>
      <trkpt lat="47.81796" lon="0.49935">
        <ele>89</ele>
        <time>2019-08-05T10:40:15Z</time>
      </trkpt>
      <trkpt lat="47.81794" lon="0.49937">
        <ele>89</ele>
        <time>2019-08-05T10:40:17Z</time>
      </trkpt>
      <trkpt lat="47.81754" lon="0.49969">
        <ele>90</ele>
        <time>2019-08-05T10:40:50Z</time>
      </trkpt>
      <trkpt lat="47.81751" lon="0.49973">
        <ele>90</ele>
        <time>2019-08-05T10:40:53Z</time>
      </trkpt>
      <trkpt lat="47.81749" lon="0.49976">
        <ele>89</ele>
        <time>2019-08-05T10:40:56Z</time>
      </trkpt>
      <trkpt lat="47.81743" lon="0.49981">
        <ele>86</ele>
        <time>2019-08-05T10:41:03Z</time>
      </trkpt>
      <trkpt lat="47.81724" lon="0.49993">
        <ele>84</ele>
        <time>2019-08-05T10:41:18Z</time>
      </trkpt>
      <trkpt lat="47.81721" lon="0.49995">
        <ele>85</ele>
        <time>2019-08-05T10:41:21Z</time>
      </trkpt>
      <trkpt lat="47.81683" lon="0.50023">
        <ele>82</ele>
        <time>2019-08-05T10:41:51Z</time>
      </trkpt>
      <trkpt lat="47.81661" lon="0.50046">
        <ele>81</ele>
        <time>2019-08-05T10:42:10Z</time>
      </trkpt>
      <trkpt lat="47.81645" lon="0.50065">
        <ele>84</ele>
        <time>2019-08-05T10:42:24Z</time>
      </trkpt>
      <trkpt lat="47.81643" lon="0.50069">
        <ele>84</ele>
        <time>2019-08-05T10:42:27Z</time>
      </trkpt>
      <trkpt lat="47.81641" lon="0.50072">
        <ele>84</ele>
        <time>2019-08-05T10:42:29Z</time>
      </trkpt>
      <trkpt lat="47.81619" lon="0.50087">
        <ele>84</ele>
        <time>2019-08-05T10:42:45Z</time>
      </trkpt>
      <trkpt lat="47.8161" lon="0.50102">
        <ele>81</ele>
        <time>2019-08-05T10:42:56Z</time>
      </trkpt>
      <trkpt lat="47.81574" lon="0.50139">
        <ele>85</ele>
        <time>2019-08-05T10:43:26Z</time>
      </trkpt>
      <trkpt lat="47.81553" lon="0.50167">
        <ele>95</ele>
        <time>2019-08-05T10:43:46Z</time>
      </trkpt>
      <trkpt lat="47.81547" lon="0.50176">
        <ele>91</ele>
        <time>2019-08-05T10:43:52Z</time>
      </trkpt>
      <trkpt lat="47.81536" lon="0.50195">
        <ele>94</ele>
        <time>2019-08-05T10:44:04Z</time>
      </trkpt>
      <trkpt lat="47.81516" lon="0.50237">
        <ele>88</ele>
        <time>2019-08-05T10:44:33Z</time>
      </trkpt>
      <trkpt lat="47.81458" lon="0.50322">
        <ele>12</ele>
        <time>2019-08-05T10:45:33Z</time>
      </trkpt>
      <trkpt lat="47.81453" lon="0.50339">
        <ele>102</ele>
        <time>2019-08-05T10:45:45Z</time>
      </trkpt>
      <trkpt lat="47.81452" lon="0.50346">
        <ele>94</ele>
        <time>2019-08-05T10:45:48Z</time>
      </trkpt>
      <trkpt lat="47.8145" lon="0.50353">
        <ele>89</ele>
        <time>2019-08-05T10:45:51Z</time>
      </trkpt>
      <trkpt lat="47.81438" lon="0.50368">
        <ele>88</ele>
        <time>2019-08-05T10:46:01Z</time>
      </trkpt>
      <trkpt lat="47.81427" lon="0.50385">
        <ele>82</ele>
        <time>2019-08-05T10:46:11Z</time>
      </trkpt>
      <trkpt lat="47.81413" lon="0.50409">
        <ele>85</ele>
        <time>2019-08-05T10:46:27Z</time>
      </trkpt>
      <trkpt lat="47.81411" lon="0.50418">
        <ele>87</ele>
        <time>2019-08-05T10:46:34Z</time>
      </trkpt>
      <trkpt lat="47.81401" lon="0.50441">
        <ele>87</ele>
        <time>2019-08-05T10:46:44Z</time>
      </trkpt>
      <trkpt lat="47.81396" lon="0.50457">
        <ele>86</ele>
        <time>2019-08-05T10:46:52Z</time>
      </trkpt>
      <trkpt lat="47.81395" lon="0.50467">
        <ele>91</ele>
        <time>2019-08-05T10:46:56Z</time>
      </trkpt>
      <trkpt lat="47.81394" lon="0.50473">
        <ele>93</ele>
        <time>2019-08-05T10:46:59Z</time>
      </trkpt>
      <trkpt lat="47.81392" lon="0.50483">
        <ele>92</ele>
        <time>2019-08-05T10:47:04Z</time>
      </trkpt>
      <trkpt lat="47.81391" lon="0.50489">
        <ele>95</ele>
        <time>2019-08-05T10:47:07Z</time>
      </trkpt>
      <trkpt lat="47.8139" lon="0.50495">
        <ele>96</ele>
        <time>2019-08-05T10:47:10Z</time>
      </trkpt>
      <trkpt lat="47.81379" lon="0.5056">
        <ele>85</ele>
        <time>2019-08-05T10:47:42Z</time>
      </trkpt>
      <trkpt lat="47.81374" lon="0.50584">
        <ele>84</ele>
        <time>2019-08-05T10:47:54Z</time>
      </trkpt>
      <trkpt lat="47.81373" lon="0.5059">
        <ele>86</ele>
        <time>2019-08-05T10:47:57Z</time>
      </trkpt>
      <trkpt lat="47.8137" lon="0.50612">
        <ele>92</ele>
        <time>2019-08-05T10:48:09Z</time>
      </trkpt>
      <trkpt lat="47.81366" lon="0.50621">
        <ele>94</ele>
        <time>2019-08-05T10:48:14Z</time>
      </trkpt>
      <trkpt lat="47.81353" lon="0.50685">
        <ele>100</ele>
        <time>2019-08-05T10:48:45Z</time>
      </trkpt>
      <trkpt lat="47.8134" lon="0.50751">
        <ele>89</ele>
        <time>2019-08-05T10:49:17Z</time>
      </trkpt>
      <trkpt lat="47.81324" lon="0.50815">
        <ele>88</ele>
        <time>2019-08-05T10:49:49Z</time>
      </trkpt>
      <trkpt lat="47.81309" lon="0.50878">
        <ele>88</ele>
        <time>2019-08-05T10:50:21Z</time>
      </trkpt>
      <trkpt lat="47.81305" lon="0.50897">
        <ele>88</ele>
        <time>2019-08-05T10:50:29Z</time>
      </trkpt>
      <trkpt lat="47.81291" lon="0.50953">
        <ele>88</ele>
        <time>2019-08-05T10:50:59Z</time>
      </trkpt>
      <trkpt lat="47.81277" lon="0.51011">
        <ele>109</ele>
        <time>2019-08-05T10:51:29Z</time>
      </trkpt>
      <trkpt lat="47.81276" lon="0.51017">
        <ele>104</ele>
        <time>2019-08-05T10:51:32Z</time>
      </trkpt>
      <trkpt lat="47.81264" lon="0.51054">
        <ele>89</ele>
        <time>2019-08-05T10:51:53Z</time>
      </trkpt>
      <trkpt lat="47.81253" lon="0.5111">
        <ele>88</ele>
        <time>2019-08-05T10:52:23Z</time>
      </trkpt>
      <trkpt lat="47.81244" lon="0.51157">
        <ele>87</ele>
        <time>2019-08-05T10:52:47Z</time>
      </trkpt>
      <trkpt lat="47.81232" lon="0.51224">
        <ele>113</ele>
        <time>2019-08-05T10:53:30Z</time>
      </trkpt>
      <trkpt lat="47.81227" lon="0.51241">
        <ele>128</ele>
        <time>2019-08-05T10:53:37Z</time>
      </trkpt>
      <trkpt lat="47.81224" lon="0.51271">
        <ele>118</ele>
        <time>2019-08-05T10:53:50Z</time>
      </trkpt>
      <trkpt lat="47.81224" lon="0.51284">
        <ele>114</ele>
        <time>2019-08-05T10:53:56Z</time>
      </trkpt>
      <trkpt lat="47.81223" lon="0.51293">
        <ele>111</ele>
        <time>2019-08-05T10:54:00Z</time>
      </trkpt>
      <trkpt lat="47.81223" lon="0.513">
        <ele>111</ele>
        <time>2019-08-05T10:54:03Z</time>
      </trkpt>
      <trkpt lat="47.81223" lon="0.51304">
        <ele>109</ele>
        <time>2019-08-05T10:54:05Z</time>
      </trkpt>
      <trkpt lat="47.81225" lon="0.51322">
        <ele>106</ele>
        <time>2019-08-05T10:54:11Z</time>
      </trkpt>
      <trkpt lat="47.81216" lon="0.51384">
        <ele>95</ele>
        <time>2019-08-05T10:54:41Z</time>
      </trkpt>
      <trkpt lat="47.81214" lon="0.51396">
        <ele>94</ele>
        <time>2019-08-05T10:54:47Z</time>
      </trkpt>
      <trkpt lat="47.81204" lon="0.5145">
        <ele>93</ele>
        <time>2019-08-05T10:55:10Z</time>
      </trkpt>
      <trkpt lat="47.81203" lon="0.51461">
        <ele>88</ele>
        <time>2019-08-05T10:55:15Z</time>
      </trkpt>
      <trkpt lat="47.81207" lon="0.51476">
        <ele>87</ele>
        <time>2019-08-05T10:55:23Z</time>
      </trkpt>
      <trkpt lat="47.81227" lon="0.51525">
        <ele>88</ele>
        <time>2019-08-05T10:55:53Z</time>
      </trkpt>
      <trkpt lat="47.81245" lon="0.51583">
        <ele>92</ele>
        <time>2019-08-05T10:56:24Z</time>
      </trkpt>
      <trkpt lat="47.81259" lon="0.51629">
        <ele>91</ele>
        <time>2019-08-05T10:56:47Z</time>
      </trkpt>
      <trkpt lat="47.81265" lon="0.51693">
        <ele>86</ele>
        <time>2019-08-05T10:57:17Z</time>
      </trkpt>
      <trkpt lat="47.81275" lon="0.51754">
        <ele>85</ele>
        <time>2019-08-05T10:57:49Z</time>
      </trkpt>
      <trkpt lat="47.81291" lon="0.51814">
        <ele>84</ele>
        <time>2019-08-05T10:58:19Z</time>
      </trkpt>
      <trkpt lat="47.81291" lon="0.5182">
        <ele>84</ele>
        <time>2019-08-05T10:58:22Z</time>
      </trkpt>
      <trkpt lat="47.81293" lon="0.51825">
        <ele>84</ele>
        <time>2019-08-05T10:58:47Z</time>
      </trkpt>
      <trkpt lat="47.81294" lon="0.5183">
        <ele>84</ele>
        <time>2019-08-05T10:58:50Z</time>
      </trkpt>
      <trkpt lat="47.81288" lon="0.51845">
        <ele>84</ele>
        <time>2019-08-05T10:58:58Z</time>
      </trkpt>
      <trkpt lat="47.81287" lon="0.51849">
        <ele>84</ele>
        <time>2019-08-05T10:59:01Z</time>
      </trkpt>
      <trkpt lat="47.81266" lon="0.51895">
        <ele>95</ele>
        <time>2019-08-05T10:59:32Z</time>
      </trkpt>
      <trkpt lat="47.81261" lon="0.51903">
        <ele>98</ele>
        <time>2019-08-05T10:59:36Z</time>
      </trkpt>
      <trkpt lat="47.81258" lon="0.51907">
        <ele>100</ele>
        <time>2019-08-05T10:59:38Z</time>
      </trkpt>
      <trkpt lat="47.81256" lon="0.51911">
        <ele>100</ele>
        <time>2019-08-05T10:59:40Z</time>
      </trkpt>
      <trkpt lat="47.81252" lon="0.5192">
        <ele>101</ele>
        <time>2019-08-05T10:59:45Z</time>
      </trkpt>
      <trkpt lat="47.81248" lon="0.51935">
        <ele>101</ele>
        <time>2019-08-05T10:59:54Z</time>
      </trkpt>
      <trkpt lat="47.81242" lon="0.51949">
        <ele>100</ele>
        <time>2019-08-05T11:00:04Z</time>
      </trkpt>
      <trkpt lat="47.8124" lon="0.51958">
        <ele>100</ele>
        <time>2019-08-05T11:00:09Z</time>
      </trkpt>
      <trkpt lat="47.81236" lon="0.51966">
        <ele>100</ele>
        <time>2019-08-05T11:00:13Z</time>
      </trkpt>
      <trkpt lat="47.81228" lon="0.51986">
        <ele>100</ele>
        <time>2019-08-05T11:00:25Z</time>
      </trkpt>
      <trkpt lat="47.81226" lon="0.5199">
        <ele>99</ele>
        <time>2019-08-05T11:00:27Z</time>
      </trkpt>
      <trkpt lat="47.81225" lon="0.51994">
        <ele>99</ele>
        <time>2019-08-05T11:00:30Z</time>
      </trkpt>
      <trkpt lat="47.81223" lon="0.52">
        <ele>98</ele>
        <time>2019-08-05T11:00:33Z</time>
      </trkpt>
      <trkpt lat="47.81218" lon="0.52021">
        <ele>96</ele>
        <time>2019-08-05T11:00:43Z</time>
      </trkpt>
      <trkpt lat="47.81216" lon="0.52026">
        <ele>95</ele>
        <time>2019-08-05T11:00:46Z</time>
      </trkpt>
      <trkpt lat="47.81188" lon="0.52056">
        <ele>94</ele>
        <time>2019-08-05T11:01:11Z</time>
      </trkpt>
      <trkpt lat="47.81183" lon="0.52063">
        <ele>93</ele>
        <time>2019-08-05T11:01:16Z</time>
      </trkpt>
      <trkpt lat="47.8118" lon="0.52067">
        <ele>92</ele>
        <time>2019-08-05T11:01:19Z</time>
      </trkpt>
      <trkpt lat="47.81159" lon="0.52104">
        <ele>90</ele>
        <time>2019-08-05T11:01:41Z</time>
      </trkpt>
      <trkpt lat="47.81156" lon="0.52114">
        <ele>89</ele>
        <time>2019-08-05T11:01:47Z</time>
      </trkpt>
      <trkpt lat="47.81154" lon="0.52123">
        <ele>89</ele>
        <time>2019-08-05T11:01:53Z</time>
      </trkpt>
      <trkpt lat="47.81146" lon="0.52145">
        <ele>86</ele>
        <time>2019-08-05T11:02:04Z</time>
      </trkpt>
      <trkpt lat="47.81144" lon="0.52149">
        <ele>86</ele>
        <time>2019-08-05T11:02:06Z</time>
      </trkpt>
      <trkpt lat="47.81139" lon="0.52177">
        <ele>90</ele>
        <time>2019-08-05T11:02:18Z</time>
      </trkpt>
      <trkpt lat="47.81138" lon="0.52182">
        <ele>88</ele>
        <time>2019-08-05T11:02:20Z</time>
      </trkpt>
      <trkpt lat="47.81135" lon="0.52197">
        <ele>88</ele>
        <time>2019-08-05T11:02:29Z</time>
      </trkpt>
      <trkpt lat="47.81134" lon="0.52215">
        <ele>88</ele>
        <time>2019-08-05T11:02:38Z</time>
      </trkpt>
      <trkpt lat="47.81133" lon="0.52221">
        <ele>87</ele>
        <time>2019-08-05T11:02:41Z</time>
      </trkpt>
      <trkpt lat="47.81131" lon="0.52231">
        <ele>86</ele>
        <time>2019-08-05T11:02:47Z</time>
      </trkpt>
      <trkpt lat="47.81129" lon="0.52241">
        <ele>83</ele>
        <time>2019-08-05T11:02:53Z</time>
      </trkpt>
      <trkpt lat="47.81124" lon="0.52256">
        <ele>83</ele>
        <time>2019-08-05T11:03:01Z</time>
      </trkpt>
      <trkpt lat="47.81121" lon="0.52265">
        <ele>84</ele>
        <time>2019-08-05T11:03:06Z</time>
      </trkpt>
      <trkpt lat="47.81108" lon="0.52322">
        <ele>83</ele>
        <time>2019-08-05T11:03:36Z</time>
      </trkpt>
      <trkpt lat="47.81106" lon="0.52333">
        <ele>84</ele>
        <time>2019-08-05T11:03:42Z</time>
      </trkpt>
      <trkpt lat="47.81105" lon="0.52337">
        <ele>85</ele>
        <time>2019-08-05T11:03:44Z</time>
      </trkpt>
      <trkpt lat="47.81101" lon="0.52368">
        <ele>85</ele>
        <time>2019-08-05T11:04:02Z</time>
      </trkpt>
      <trkpt lat="47.81098" lon="0.52384">
        <ele>85</ele>
        <time>2019-08-05T11:04:09Z</time>
      </trkpt>
      <trkpt lat="47.81094" lon="0.52429">
        <ele>106</ele>
        <time>2019-08-05T11:04:32Z</time>
      </trkpt>
      <trkpt lat="47.81094" lon="0.52435">
        <ele>107</ele>
        <time>2019-08-05T11:04:35Z</time>
      </trkpt>
      <trkpt lat="47.81094" lon="0.52458">
        <ele>92</ele>
        <time>2019-08-05T11:04:47Z</time>
      </trkpt>
      <trkpt lat="47.81091" lon="0.52479">
        <ele>86</ele>
        <time>2019-08-05T11:04:58Z</time>
      </trkpt>
      <trkpt lat="47.8109" lon="0.525">
        <ele>86</ele>
        <time>2019-08-05T11:05:09Z</time>
      </trkpt>
      <trkpt lat="47.81083" lon="0.52531">
        <ele>85</ele>
        <time>2019-08-05T11:05:22Z</time>
      </trkpt>
      <trkpt lat="47.81082" lon="0.52553">
        <ele>83</ele>
        <time>2019-08-05T11:05:35Z</time>
      </trkpt>
      <trkpt lat="47.81077" lon="0.52573">
        <ele>84</ele>
        <time>2019-08-05T11:05:46Z</time>
      </trkpt>
      <trkpt lat="47.81061" lon="0.52628">
        <ele>92</ele>
        <time>2019-08-05T11:06:16Z</time>
      </trkpt>
      <trkpt lat="47.81057" lon="0.52643">
        <ele>91</ele>
        <time>2019-08-05T11:06:24Z</time>
      </trkpt>
      <trkpt lat="47.81048" lon="0.52666">
        <ele>93</ele>
        <time>2019-08-05T11:06:36Z</time>
      </trkpt>
      <trkpt lat="47.81042" lon="0.52685">
        <ele>93</ele>
        <time>2019-08-05T11:06:47Z</time>
      </trkpt>
      <trkpt lat="47.81041" lon="0.52689">
        <ele>91</ele>
        <time>2019-08-05T11:06:50Z</time>
      </trkpt>
      <trkpt lat="47.8104" lon="0.52694">
        <ele>90</ele>
        <time>2019-08-05T11:06:53Z</time>
      </trkpt>
      <trkpt lat="47.81028" lon="0.52729">
        <ele>89</ele>
        <time>2019-08-05T11:07:11Z</time>
      </trkpt>
      <trkpt lat="47.81019" lon="0.52759">
        <ele>93</ele>
        <time>2019-08-05T11:07:28Z</time>
      </trkpt>
      <trkpt lat="47.81017" lon="0.52762">
        <ele>92</ele>
        <time>2019-08-05T11:07:30Z</time>
      </trkpt>
      <trkpt lat="47.81016" lon="0.52768">
        <ele>93</ele>
        <time>2019-08-05T11:07:33Z</time>
      </trkpt>
      <trkpt lat="47.81011" lon="0.52784">
        <ele>87</ele>
        <time>2019-08-05T11:07:42Z</time>
      </trkpt>
      <trkpt lat="47.81003" lon="0.52805">
        <ele>96</ele>
        <time>2019-08-05T11:07:54Z</time>
      </trkpt>
      <trkpt lat="47.80993" lon="0.52838">
        <ele>82</ele>
        <time>2019-08-05T11:08:11Z</time>
      </trkpt>
      <trkpt lat="47.80978" lon="0.52886">
        <ele>81</ele>
        <time>2019-08-05T11:08:37Z</time>
      </trkpt>
      <trkpt lat="47.80955" lon="0.52938">
        <ele>76</ele>
        <time>2019-08-05T11:09:08Z</time>
      </trkpt>
      <trkpt lat="47.80955" lon="0.52944">
        <ele>75</ele>
        <time>2019-08-05T11:09:11Z</time>
      </trkpt>
      <trkpt lat="47.80954" lon="0.5295">
        <ele>80</ele>
        <time>2019-08-05T11:09:14Z</time>
      </trkpt>
      <trkpt lat="47.80951" lon="0.52953">
        <ele>81</ele>
        <time>2019-08-05T11:09:17Z</time>
      </trkpt>
      <trkpt lat="47.80946" lon="0.52962">
        <ele>81</ele>
        <time>2019-08-05T11:09:23Z</time>
      </trkpt>
      <trkpt lat="47.80937" lon="0.52972">
        <ele>81</ele>
        <time>2019-08-05T11:09:30Z</time>
      </trkpt>
      <trkpt lat="47.80898" lon="0.53002">
        <ele>80</ele>
        <time>2019-08-05T11:10:01Z</time>
      </trkpt>
      <trkpt lat="47.80876" lon="0.53023">
        <ele>81</ele>
        <time>2019-08-05T11:10:23Z</time>
      </trkpt>
      <trkpt lat="47.80871" lon="0.53028">
        <ele>82</ele>
        <time>2019-08-05T11:10:31Z</time>
      </trkpt>
      <trkpt lat="47.8086" lon="0.53037">
        <ele>81</ele>
        <time>2019-08-05T11:10:39Z</time>
      </trkpt>
      <trkpt lat="47.80857" lon="0.53039">
        <ele>80</ele>
        <time>2019-08-05T11:10:41Z</time>
      </trkpt>
      <trkpt lat="47.80841" lon="0.53051">
        <ele>82</ele>
        <time>2019-08-05T11:10:56Z</time>
      </trkpt>
      <trkpt lat="47.80836" lon="0.53054">
        <ele>79</ele>
        <time>2019-08-05T11:11:00Z</time>
      </trkpt>
      <trkpt lat="47.8083" lon="0.53059">
        <ele>79</ele>
        <time>2019-08-05T11:11:04Z</time>
      </trkpt>
      <trkpt lat="47.80817" lon="0.5307">
        <ele>82</ele>
        <time>2019-08-05T11:11:14Z</time>
      </trkpt>
      <trkpt lat="47.80795" lon="0.53083">
        <ele>81</ele>
        <time>2019-08-05T11:11:31Z</time>
      </trkpt>
      <trkpt lat="47.80789" lon="0.53086">
        <ele>79</ele>
        <time>2019-08-05T11:11:35Z</time>
      </trkpt>
      <trkpt lat="47.80782" lon="0.53086">
        <ele>78</ele>
        <time>2019-08-05T11:11:39Z</time>
      </trkpt>
      <trkpt lat="47.80774" lon="0.53079">
        <ele>78</ele>
        <time>2019-08-05T11:11:46Z</time>
      </trkpt>
      <trkpt lat="47.80772" lon="0.53075">
        <ele>79</ele>
        <time>2019-08-05T11:11:49Z</time>
      </trkpt>
      <trkpt lat="47.8077" lon="0.53069">
        <ele>80</ele>
        <time>2019-08-05T11:11:52Z</time>
      </trkpt>
      <trkpt lat="47.80755" lon="0.53027">
        <ele>80</ele>
        <time>2019-08-05T11:12:15Z</time>
      </trkpt>
      <trkpt lat="47.80739" lon="0.52983">
        <ele>81</ele>
        <time>2019-08-05T11:12:40Z</time>
      </trkpt>
      <trkpt lat="47.80726" lon="0.52961">
        <ele>82</ele>
        <time>2019-08-05T11:12:52Z</time>
      </trkpt>
      <trkpt lat="47.80724" lon="0.52941">
        <ele>81</ele>
        <time>2019-08-05T11:13:01Z</time>
      </trkpt>
      <trkpt lat="47.80723" lon="0.52936">
        <ele>82</ele>
        <time>2019-08-05T11:13:04Z</time>
      </trkpt>
      <trkpt lat="47.80723" lon="0.52926">
        <ele>82</ele>
        <time>2019-08-05T11:13:08Z</time>
      </trkpt>
      <trkpt lat="47.80705" lon="0.52863">
        <ele>82</ele>
        <time>2019-08-05T11:13:40Z</time>
      </trkpt>
      <trkpt lat="47.80684" lon="0.52821">
        <ele>81</ele>
        <time>2019-08-05T11:14:06Z</time>
      </trkpt>
      <trkpt lat="47.80679" lon="0.52815">
        <ele>82</ele>
        <time>2019-08-05T11:14:11Z</time>
      </trkpt>
      <trkpt lat="47.8067" lon="0.52809">
        <ele>83</ele>
        <time>2019-08-05T11:14:20Z</time>
      </trkpt>
      <trkpt lat="47.80663" lon="0.52809">
        <ele>83</ele>
        <time>2019-08-05T11:14:25Z</time>
      </trkpt>
      <trkpt lat="47.80649" lon="0.52813">
        <ele>82</ele>
        <time>2019-08-05T11:14:33Z</time>
      </trkpt>
      <trkpt lat="47.80636" lon="0.52814">
        <ele>83</ele>
        <time>2019-08-05T11:14:43Z</time>
      </trkpt>
      <trkpt lat="47.80625" lon="0.52819">
        <ele>83</ele>
        <time>2019-08-05T11:14:51Z</time>
      </trkpt>
      <trkpt lat="47.80622" lon="0.52819">
        <ele>83</ele>
        <time>2019-08-05T11:14:53Z</time>
      </trkpt>
      <trkpt lat="47.80619" lon="0.52817">
        <ele>83</ele>
        <time>2019-08-05T11:14:55Z</time>
      </trkpt>
      <trkpt lat="47.80617" lon="0.52812">
        <ele>83</ele>
        <time>2019-08-05T11:14:57Z</time>
      </trkpt>
      <trkpt lat="47.80617" lon="0.52799">
        <ele>84</ele>
        <time>2019-08-05T11:15:03Z</time>
      </trkpt>
      <trkpt lat="47.80623" lon="0.52777">
        <ele>85</ele>
        <time>2019-08-05T11:15:13Z</time>
      </trkpt>
      <trkpt lat="47.80632" lon="0.52714">
        <ele>84</ele>
        <time>2019-08-05T11:15:45Z</time>
      </trkpt>
      <trkpt lat="47.80635" lon="0.52667">
        <ele>83</ele>
        <time>2019-08-05T11:16:10Z</time>
      </trkpt>
      <trkpt lat="47.80634" lon="0.5266">
        <ele>83</ele>
        <time>2019-08-05T11:16:13Z</time>
      </trkpt>
      <trkpt lat="47.80635" lon="0.52656">
        <ele>84</ele>
        <time>2019-08-05T11:16:15Z</time>
      </trkpt>
      <trkpt lat="47.80636" lon="0.52651">
        <ele>84</ele>
        <time>2019-08-05T11:16:17Z</time>
      </trkpt>
      <trkpt lat="47.80635" lon="0.52646">
        <ele>83</ele>
        <time>2019-08-05T11:16:19Z</time>
      </trkpt>
      <trkpt lat="47.80635" lon="0.5261">
        <ele>83</ele>
        <time>2019-08-05T11:16:36Z</time>
      </trkpt>
      <trkpt lat="47.80631" lon="0.52581">
        <ele>82</ele>
        <time>2019-08-05T11:16:52Z</time>
      </trkpt>
      <trkpt lat="47.80632" lon="0.52571">
        <ele>82</ele>
        <time>2019-08-05T11:16:59Z</time>
      </trkpt>
      <trkpt lat="47.80624" lon="0.52549">
        <ele>80</ele>
        <time>2019-08-05T11:17:21Z</time>
      </trkpt>
      <trkpt lat="47.80615" lon="0.52506">
        <ele>81</ele>
        <time>2019-08-05T11:17:50Z</time>
      </trkpt>
      <trkpt lat="47.80609" lon="0.52479">
        <ele>92</ele>
        <time>2019-08-05T11:18:06Z</time>
      </trkpt>
      <trkpt lat="47.8061" lon="0.52474">
        <ele>88</ele>
        <time>2019-08-05T11:18:16Z</time>
      </trkpt>
      <trkpt lat="47.80609" lon="0.52468">
        <ele>86</ele>
        <time>2019-08-05T11:18:19Z</time>
      </trkpt>
      <trkpt lat="47.80603" lon="0.52439">
        <ele>87</ele>
        <time>2019-08-05T11:18:38Z</time>
      </trkpt>
      <trkpt lat="47.80605" lon="0.52425">
        <ele>83</ele>
        <time>2019-08-05T11:18:47Z</time>
      </trkpt>
      <trkpt lat="47.80604" lon="0.52416">
        <ele>83</ele>
        <time>2019-08-05T11:18:54Z</time>
      </trkpt>
      <trkpt lat="47.80604" lon="0.52411">
        <ele>87</ele>
        <time>2019-08-05T11:18:58Z</time>
      </trkpt>
      <trkpt lat="47.80605" lon="0.52406">
        <ele>85</ele>
        <time>2019-08-05T11:19:01Z</time>
      </trkpt>
      <trkpt lat="47.80606" lon="0.52375">
        <ele>83</ele>
        <time>2019-08-05T11:19:19Z</time>
      </trkpt>
      <trkpt lat="47.80597" lon="0.52347">
        <ele>107</ele>
        <time>2019-08-05T11:19:30Z</time>
      </trkpt>
      <trkpt lat="47.80593" lon="0.52319">
        <ele>102</ele>
        <time>2019-08-05T11:19:49Z</time>
      </trkpt>
      <trkpt lat="47.80596" lon="0.52293">
        <ele>102</ele>
        <time>2019-08-05T11:20:03Z</time>
      </trkpt>
      <trkpt lat="47.80589" lon="0.52271">
        <ele>95</ele>
        <time>2019-08-05T11:20:15Z</time>
      </trkpt>
      <trkpt lat="47.80587" lon="0.52267">
        <ele>94</ele>
        <time>2019-08-05T11:20:18Z</time>
      </trkpt>
      <trkpt lat="47.80584" lon="0.52265">
        <ele>95</ele>
        <time>2019-08-05T11:20:20Z</time>
      </trkpt>
      <trkpt lat="47.80581" lon="0.52262">
        <ele>97</ele>
        <time>2019-08-05T11:20:24Z</time>
      </trkpt>
      <trkpt lat="47.8058" lon="0.52258">
        <ele>98</ele>
        <time>2019-08-05T11:20:27Z</time>
      </trkpt>
      <trkpt lat="47.80592" lon="0.52245">
        <ele>99</ele>
        <time>2019-08-05T11:20:38Z</time>
      </trkpt>
      <trkpt lat="47.80595" lon="0.52241">
        <ele>98</ele>
        <time>2019-08-05T11:20:41Z</time>
      </trkpt>
      <trkpt lat="47.80598" lon="0.52238">
        <ele>98</ele>
        <time>2019-08-05T11:20:44Z</time>
      </trkpt>
      <trkpt lat="47.80599" lon="0.52232">
        <ele>94</ele>
        <time>2019-08-05T11:20:48Z</time>
      </trkpt>
      <trkpt lat="47.80596" lon="0.52227">
        <ele>93</ele>
        <time>2019-08-05T11:20:51Z</time>
      </trkpt>
      <trkpt lat="47.80593" lon="0.52224">
        <ele>94</ele>
        <time>2019-08-05T11:20:53Z</time>
      </trkpt>
      <trkpt lat="47.8058" lon="0.52207">
        <ele>91</ele>
        <time>2019-08-05T11:21:06Z</time>
      </trkpt>
      <trkpt lat="47.80575" lon="0.52199">
        <ele>91</ele>
        <time>2019-08-05T11:21:12Z</time>
      </trkpt>
      <trkpt lat="47.80562" lon="0.52179">
        <ele>90</ele>
        <time>2019-08-05T11:21:27Z</time>
      </trkpt>
      <trkpt lat="47.80538" lon="0.52131">
        <ele>94</ele>
        <time>2019-08-05T11:21:59Z</time>
      </trkpt>
      <trkpt lat="47.80536" lon="0.52128">
        <ele>94</ele>
        <time>2019-08-05T11:22:02Z</time>
      </trkpt>
      <trkpt lat="47.8052" lon="0.52091">
        <ele>102</ele>
        <time>2019-08-05T11:22:24Z</time>
      </trkpt>
      <trkpt lat="47.8052" lon="0.52087">
        <ele>102</ele>
        <time>2019-08-05T11:22:26Z</time>
      </trkpt>
      <trkpt lat="47.80516" lon="0.52078">
        <ele>103</ele>
        <time>2019-08-05T11:22:31Z</time>
      </trkpt>
      <trkpt lat="47.80513" lon="0.52069">
        <ele>101</ele>
        <time>2019-08-05T11:22:36Z</time>
      </trkpt>
      <trkpt lat="47.80497" lon="0.52033">
        <ele>106</ele>
        <time>2019-08-05T11:22:59Z</time>
      </trkpt>
      <trkpt lat="47.80487" lon="0.51993">
        <ele>104</ele>
        <time>2019-08-05T11:23:23Z</time>
      </trkpt>
      <trkpt lat="47.80486" lon="0.51983">
        <ele>104</ele>
        <time>2019-08-05T11:23:29Z</time>
      </trkpt>
      <trkpt lat="47.80489" lon="0.51969">
        <ele>106</ele>
        <time>2019-08-05T11:23:36Z</time>
      </trkpt>
      <trkpt lat="47.80497" lon="0.51936">
        <ele>114</ele>
        <time>2019-08-05T11:23:53Z</time>
      </trkpt>
      <trkpt lat="47.80499" lon="0.5192">
        <ele>117</ele>
        <time>2019-08-05T11:24:01Z</time>
      </trkpt>
      <trkpt lat="47.80498" lon="0.51916">
        <ele>117</ele>
        <time>2019-08-05T11:24:03Z</time>
      </trkpt>
      <trkpt lat="47.80495" lon="0.51908">
        <ele>119</ele>
        <time>2019-08-05T11:24:09Z</time>
      </trkpt>
      <trkpt lat="47.80491" lon="0.519">
        <ele>117</ele>
        <time>2019-08-05T11:24:13Z</time>
      </trkpt>
      <trkpt lat="47.80476" lon="0.51861">
        <ele>120</ele>
        <time>2019-08-05T11:24:34Z</time>
      </trkpt>
      <trkpt lat="47.80474" lon="0.51848">
        <ele>121</ele>
        <time>2019-08-05T11:24:40Z</time>
      </trkpt>
      <trkpt lat="47.80472" lon="0.51844">
        <ele>122</ele>
        <time>2019-08-05T11:24:43Z</time>
      </trkpt>
      <trkpt lat="47.80471" lon="0.51839">
        <ele>122</ele>
        <time>2019-08-05T11:24:46Z</time>
      </trkpt>
      <trkpt lat="47.80464" lon="0.51773">
        <ele>124</ele>
        <time>2019-08-05T11:25:17Z</time>
      </trkpt>
      <trkpt lat="47.80464" lon="0.51749">
        <ele>121</ele>
        <time>2019-08-05T11:25:28Z</time>
      </trkpt>
      <trkpt lat="47.8046" lon="0.51722">
        <ele>120</ele>
        <time>2019-08-05T11:25:41Z</time>
      </trkpt>
      <trkpt lat="47.80446" lon="0.51689">
        <ele>118</ele>
        <time>2019-08-05T11:26:00Z</time>
      </trkpt>
      <trkpt lat="47.80444" lon="0.51685">
        <ele>118</ele>
        <time>2019-08-05T11:26:03Z</time>
      </trkpt>
      <trkpt lat="47.80427" lon="0.5165">
        <ele>117</ele>
        <time>2019-08-05T11:26:24Z</time>
      </trkpt>
      <trkpt lat="47.80408" lon="0.5159">
        <ele>116</ele>
        <time>2019-08-05T11:26:54Z</time>
      </trkpt>
      <trkpt lat="47.80405" lon="0.51578">
        <ele>117</ele>
        <time>2019-08-05T11:27:00Z</time>
      </trkpt>
      <trkpt lat="47.80393" lon="0.51519">
        <ele>118</ele>
        <time>2019-08-05T11:27:30Z</time>
      </trkpt>
      <trkpt lat="47.80381" lon="0.51463">
        <ele>119</ele>
        <time>2019-08-05T11:28:00Z</time>
      </trkpt>
      <trkpt lat="47.80365" lon="0.51411">
        <ele>118</ele>
        <time>2019-08-05T11:28:28Z</time>
      </trkpt>
      <trkpt lat="47.80362" lon="0.5139">
        <ele>123</ele>
        <time>2019-08-05T11:28:41Z</time>
      </trkpt>
      <trkpt lat="47.80362" lon="0.51383">
        <ele>123</ele>
        <time>2019-08-05T11:28:45Z</time>
      </trkpt>
      <trkpt lat="47.8036" lon="0.51372">
        <ele>119</ele>
        <time>2019-08-05T11:28:50Z</time>
      </trkpt>
      <trkpt lat="47.80361" lon="0.51341">
        <ele>119</ele>
        <time>2019-08-05T11:29:05Z</time>
      </trkpt>
      <trkpt lat="47.80361" lon="0.51337">
        <ele>119</ele>
        <time>2019-08-05T11:29:08Z</time>
      </trkpt>
      <trkpt lat="47.80363" lon="0.51301">
        <ele>122</ele>
        <time>2019-08-05T11:29:24Z</time>
      </trkpt>
      <trkpt lat="47.8036" lon="0.5128">
        <ele>121</ele>
        <time>2019-08-05T11:29:34Z</time>
      </trkpt>
      <trkpt lat="47.80349" lon="0.51237">
        <ele>121</ele>
        <time>2019-08-05T11:29:57Z</time>
      </trkpt>
      <trkpt lat="47.80349" lon="0.51232">
        <ele>122</ele>
        <time>2019-08-05T11:30:00Z</time>
      </trkpt>
      <trkpt lat="47.80343" lon="0.51205">
        <ele>125</ele>
        <time>2019-08-05T11:30:15Z</time>
      </trkpt>
      <trkpt lat="47.80342" lon="0.51201">
        <ele>124</ele>
        <time>2019-08-05T11:30:17Z</time>
      </trkpt>
      <trkpt lat="47.80341" lon="0.51196">
        <ele>123</ele>
        <time>2019-08-05T11:30:19Z</time>
      </trkpt>
      <trkpt lat="47.80337" lon="0.51175">
        <ele>122</ele>
        <time>2019-08-05T11:30:30Z</time>
      </trkpt>
      <trkpt lat="47.80337" lon="0.51158">
        <ele>122</ele>
        <time>2019-08-05T11:30:38Z</time>
      </trkpt>
      <trkpt lat="47.80332" lon="0.51139">
        <ele>122</ele>
        <time>2019-08-05T11:30:47Z</time>
      </trkpt>
      <trkpt lat="47.80328" lon="0.51133">
        <ele>123</ele>
        <time>2019-08-05T11:30:51Z</time>
      </trkpt>
      <trkpt lat="47.80326" lon="0.5113">
        <ele>124</ele>
        <time>2019-08-05T11:30:53Z</time>
      </trkpt>
      <trkpt lat="47.80316" lon="0.51117">
        <ele>124</ele>
        <time>2019-08-05T11:31:03Z</time>
      </trkpt>
      <trkpt lat="47.80311" lon="0.51112">
        <ele>123</ele>
        <time>2019-08-05T11:31:08Z</time>
      </trkpt>
      <trkpt lat="47.80301" lon="0.51089">
        <ele>121</ele>
        <time>2019-08-05T11:31:20Z</time>
      </trkpt>
      <trkpt lat="47.80299" lon="0.51085">
        <ele>122</ele>
        <time>2019-08-05T11:31:23Z</time>
      </trkpt>
      <trkpt lat="47.80295" lon="0.51076">
        <ele>123</ele>
        <time>2019-08-05T11:31:28Z</time>
      </trkpt>
      <trkpt lat="47.8029" lon="0.5107">
        <ele>122</ele>
        <time>2019-08-05T11:31:32Z</time>
      </trkpt>
      <trkpt lat="47.80284" lon="0.51067">
        <ele>121</ele>
        <time>2019-08-05T11:31:38Z</time>
      </trkpt>
      <trkpt lat="47.80274" lon="0.51074">
        <ele>122</ele>
        <time>2019-08-05T11:31:45Z</time>
      </trkpt>
      <trkpt lat="47.80267" lon="0.51093">
        <ele>122</ele>
        <time>2019-08-05T11:31:57Z</time>
      </trkpt>
      <trkpt lat="47.8026" lon="0.51105">
        <ele>122</ele>
        <time>2019-08-05T11:32:05Z</time>
      </trkpt>
      <trkpt lat="47.80256" lon="0.51108">
        <ele>121</ele>
        <time>2019-08-05T11:32:08Z</time>
      </trkpt>
      <trkpt lat="47.80247" lon="0.51109">
        <ele>120</ele>
        <time>2019-08-05T11:32:14Z</time>
      </trkpt>
      <trkpt lat="47.80243" lon="0.51109">
        <ele>121</ele>
        <time>2019-08-05T11:32:17Z</time>
      </trkpt>
      <trkpt lat="47.8024" lon="0.51105">
        <ele>122</ele>
        <time>2019-08-05T11:32:20Z</time>
      </trkpt>
      <trkpt lat="47.80212" lon="0.51058">
        <ele>124</ele>
        <time>2019-08-05T11:32:51Z</time>
      </trkpt>
      <trkpt lat="47.80202" lon="0.51036">
        <ele>125</ele>
        <time>2019-08-05T11:33:05Z</time>
      </trkpt>
      <trkpt lat="47.80199" lon="0.51031">
        <ele>125</ele>
        <time>2019-08-05T11:33:08Z</time>
      </trkpt>
      <trkpt lat="47.80178" lon="0.50981">
        <ele>124</ele>
        <time>2019-08-05T11:33:38Z</time>
      </trkpt>
      <trkpt lat="47.80174" lon="0.50972">
        <ele>124</ele>
        <time>2019-08-05T11:33:44Z</time>
      </trkpt>
      <trkpt lat="47.80171" lon="0.50969">
        <ele>124</ele>
        <time>2019-08-05T11:33:47Z</time>
      </trkpt>
      <trkpt lat="47.80166" lon="0.50955">
        <ele>124</ele>
        <time>2019-08-05T11:33:55Z</time>
      </trkpt>
      <trkpt lat="47.80165" lon="0.50949">
        <ele>124</ele>
        <time>2019-08-05T11:33:58Z</time>
      </trkpt>
      <trkpt lat="47.80157" lon="0.5093">
        <ele>124</ele>
        <time>2019-08-05T11:34:08Z</time>
      </trkpt>
      <trkpt lat="47.80155" lon="0.50925">
        <ele>124</ele>
        <time>2019-08-05T11:34:11Z</time>
      </trkpt>
      <trkpt lat="47.80146" lon="0.50896">
        <ele>125</ele>
        <time>2019-08-05T11:34:29Z</time>
      </trkpt>
      <trkpt lat="47.80145" lon="0.50891">
        <ele>125</ele>
        <time>2019-08-05T11:34:31Z</time>
      </trkpt>
      <trkpt lat="47.80126" lon="0.5083">
        <ele>124</ele>
        <time>2019-08-05T11:35:03Z</time>
      </trkpt>
      <trkpt lat="47.80118" lon="0.50811">
        <ele>123</ele>
        <time>2019-08-05T11:35:14Z</time>
      </trkpt>
      <trkpt lat="47.80112" lon="0.50796">
        <ele>123</ele>
        <time>2019-08-05T11:35:23Z</time>
      </trkpt>
      <trkpt lat="47.80111" lon="0.5079">
        <ele>123</ele>
        <time>2019-08-05T11:35:26Z</time>
      </trkpt>
      <trkpt lat="47.8009" lon="0.50737">
        <ele>124</ele>
        <time>2019-08-05T11:35:56Z</time>
      </trkpt>
      <trkpt lat="47.80086" lon="0.50726">
        <ele>124</ele>
        <time>2019-08-05T11:36:02Z</time>
      </trkpt>
      <trkpt lat="47.80084" lon="0.50721">
        <ele>124</ele>
        <time>2019-08-05T11:36:05Z</time>
      </trkpt>
      <trkpt lat="47.80083" lon="0.50716">
        <ele>123</ele>
        <time>2019-08-05T11:36:08Z</time>
      </trkpt>
      <trkpt lat="47.80078" lon="0.50706">
        <ele>124</ele>
        <time>2019-08-05T11:36:14Z</time>
      </trkpt>
      <trkpt lat="47.80077" lon="0.50702">
        <ele>124</ele>
        <time>2019-08-05T11:36:17Z</time>
      </trkpt>
      <trkpt lat="47.80073" lon="0.50692">
        <ele>125</ele>
        <time>2019-08-05T11:36:22Z</time>
      </trkpt>
      <trkpt lat="47.80071" lon="0.50687">
        <ele>125</ele>
        <time>2019-08-05T11:36:25Z</time>
      </trkpt>
      <trkpt lat="47.80066" lon="0.50673">
        <ele>126</ele>
        <time>2019-08-05T11:36:34Z</time>
      </trkpt>
      <trkpt lat="47.80062" lon="0.50658">
        <ele>126</ele>
        <time>2019-08-05T11:36:43Z</time>
      </trkpt>
      <trkpt lat="47.8005" lon="0.5063">
        <ele>125</ele>
        <time>2019-08-05T11:37:00Z</time>
      </trkpt>
      <trkpt lat="47.80045" lon="0.50624">
        <ele>125</ele>
        <time>2019-08-05T11:37:04Z</time>
      </trkpt>
      <trkpt lat="47.80043" lon="0.50619">
        <ele>125</ele>
        <time>2019-08-05T11:37:07Z</time>
      </trkpt>
      <trkpt lat="47.8004" lon="0.5061">
        <ele>126</ele>
        <time>2019-08-05T11:37:12Z</time>
      </trkpt>
      <trkpt lat="47.80034" lon="0.50593">
        <ele>126</ele>
        <time>2019-08-05T11:37:21Z</time>
      </trkpt>
      <trkpt lat="47.80032" lon="0.50588">
        <ele>126</ele>
        <time>2019-08-05T11:37:24Z</time>
      </trkpt>
      <trkpt lat="47.80031" lon="0.50582">
        <ele>127</ele>
        <time>2019-08-05T11:37:27Z</time>
      </trkpt>
      <trkpt lat="47.80011" lon="0.50526">
        <ele>129</ele>
        <time>2019-08-05T11:37:59Z</time>
      </trkpt>
      <trkpt lat="47.79989" lon="0.50473">
        <ele>129</ele>
        <time>2019-08-05T11:38:29Z</time>
      </trkpt>
      <trkpt lat="47.7997" lon="0.50421">
        <ele>129</ele>
        <time>2019-08-05T11:38:59Z</time>
      </trkpt>
      <trkpt lat="47.79948" lon="0.50368">
        <ele>129</ele>
        <time>2019-08-05T11:39:31Z</time>
      </trkpt>
      <trkpt lat="47.79926" lon="0.50316">
        <ele>128</ele>
        <time>2019-08-05T11:40:01Z</time>
      </trkpt>
      <trkpt lat="47.79905" lon="0.50263">
        <ele>128</ele>
        <time>2019-08-05T11:40:32Z</time>
      </trkpt>
      <trkpt lat="47.79882" lon="0.50205">
        <ele>130</ele>
        <time>2019-08-05T11:41:03Z</time>
      </trkpt>
      <trkpt lat="47.79862" lon="0.50161">
        <ele>129</ele>
        <time>2019-08-05T11:41:29Z</time>
      </trkpt>
      <trkpt lat="47.79861" lon="0.50157">
        <ele>130</ele>
        <time>2019-08-05T11:41:32Z</time>
      </trkpt>
      <trkpt lat="47.7985" lon="0.50125">
        <ele>119</ele>
        <time>2019-08-05T11:41:49Z</time>
      </trkpt>
      <trkpt lat="47.79838" lon="0.50099">
        <ele>130</ele>
        <time>2019-08-05T11:42:03Z</time>
      </trkpt>
      <trkpt lat="47.79836" lon="0.50096">
        <ele>131</ele>
        <time>2019-08-05T11:42:06Z</time>
      </trkpt>
      <trkpt lat="47.79832" lon="0.50087">
        <ele>132</ele>
        <time>2019-08-05T11:42:12Z</time>
      </trkpt>
      <trkpt lat="47.79829" lon="0.50084">
        <ele>132</ele>
        <time>2019-08-05T11:42:14Z</time>
      </trkpt>
      <trkpt lat="47.79827" lon="0.50079">
        <ele>133</ele>
        <time>2019-08-05T11:42:17Z</time>
      </trkpt>
      <trkpt lat="47.79825" lon="0.50071">
        <ele>132</ele>
        <time>2019-08-05T11:42:21Z</time>
      </trkpt>
      <trkpt lat="47.7981" lon="0.50036">
        <ele>130</ele>
        <time>2019-08-05T11:42:40Z</time>
      </trkpt>
      <trkpt lat="47.79791" lon="0.49984">
        <ele>133</ele>
        <time>2019-08-05T11:43:11Z</time>
      </trkpt>
      <trkpt lat="47.79788" lon="0.49977">
        <ele>133</ele>
        <time>2019-08-05T11:43:15Z</time>
      </trkpt>
      <trkpt lat="47.79783" lon="0.49969">
        <ele>133</ele>
        <time>2019-08-05T11:43:19Z</time>
      </trkpt>
      <trkpt lat="47.79778" lon="0.49957">
        <ele>132</ele>
        <time>2019-08-05T11:43:25Z</time>
      </trkpt>
      <trkpt lat="47.79756" lon="0.49898">
        <ele>132</ele>
        <time>2019-08-05T11:43:57Z</time>
      </trkpt>
      <trkpt lat="47.79737" lon="0.49848">
        <ele>132</ele>
        <time>2019-08-05T11:44:26Z</time>
      </trkpt>
      <trkpt lat="47.79732" lon="0.49842">
        <ele>131</ele>
        <time>2019-08-05T11:44:30Z</time>
      </trkpt>
      <trkpt lat="47.79717" lon="0.49816">
        <ele>133</ele>
        <time>2019-08-05T11:44:47Z</time>
      </trkpt>
      <trkpt lat="47.797" lon="0.4979">
        <ele>133</ele>
        <time>2019-08-05T11:45:04Z</time>
      </trkpt>
      <trkpt lat="47.79695" lon="0.49781">
        <ele>133</ele>
        <time>2019-08-05T11:45:10Z</time>
      </trkpt>
      <trkpt lat="47.79666" lon="0.49737">
        <ele>134</ele>
        <time>2019-08-05T11:45:41Z</time>
      </trkpt>
      <trkpt lat="47.7966" lon="0.49732">
        <ele>134</ele>
        <time>2019-08-05T11:45:45Z</time>
      </trkpt>
      <trkpt lat="47.79641" lon="0.49703">
        <ele>135</ele>
        <time>2019-08-05T11:46:02Z</time>
      </trkpt>
      <trkpt lat="47.79638" lon="0.49694">
        <ele>134</ele>
        <time>2019-08-05T11:46:07Z</time>
      </trkpt>
      <trkpt lat="47.79637" lon="0.4969">
        <ele>134</ele>
        <time>2019-08-05T11:46:10Z</time>
      </trkpt>
      <trkpt lat="47.79637" lon="0.49685">
        <ele>134</ele>
        <time>2019-08-05T11:46:13Z</time>
      </trkpt>
      <trkpt lat="47.79647" lon="0.49662">
        <ele>136</ele>
        <time>2019-08-05T11:46:28Z</time>
      </trkpt>
      <trkpt lat="47.7965" lon="0.49658">
        <ele>136</ele>
        <time>2019-08-05T11:46:31Z</time>
      </trkpt>
      <trkpt lat="47.79657" lon="0.49649">
        <ele>136</ele>
        <time>2019-08-05T11:46:37Z</time>
      </trkpt>
      <trkpt lat="47.79667" lon="0.49631">
        <ele>135</ele>
        <time>2019-08-05T11:46:49Z</time>
      </trkpt>
      <trkpt lat="47.79677" lon="0.49619">
        <ele>135</ele>
        <time>2019-08-05T11:46:58Z</time>
      </trkpt>
      <trkpt lat="47.79681" lon="0.49609">
        <ele>134</ele>
        <time>2019-08-05T11:47:04Z</time>
      </trkpt>
      <trkpt lat="47.79689" lon="0.49598">
        <ele>135</ele>
        <time>2019-08-05T11:47:11Z</time>
      </trkpt>
      <trkpt lat="47.79691" lon="0.49594">
        <ele>136</ele>
        <time>2019-08-05T11:47:14Z</time>
      </trkpt>
      <trkpt lat="47.79704" lon="0.49574">
        <ele>138</ele>
        <time>2019-08-05T11:47:27Z</time>
      </trkpt>
      <trkpt lat="47.79709" lon="0.49564">
        <ele>139</ele>
        <time>2019-08-05T11:47:33Z</time>
      </trkpt>
      <trkpt lat="47.79737" lon="0.49515">
        <ele>136</ele>
        <time>2019-08-05T11:48:02Z</time>
      </trkpt>
      <trkpt lat="47.79773" lon="0.49487">
        <ele>134</ele>
        <time>2019-08-05T11:48:34Z</time>
      </trkpt>
      <trkpt lat="47.79786" lon="0.49481">
        <ele>133</ele>
        <time>2019-08-05T11:48:43Z</time>
      </trkpt>
      <trkpt lat="47.7979" lon="0.49475">
        <ele>134</ele>
        <time>2019-08-05T11:48:47Z</time>
      </trkpt>
      <trkpt lat="47.79808" lon="0.49463">
        <ele>133</ele>
        <time>2019-08-05T11:49:00Z</time>
      </trkpt>
      <trkpt lat="47.79814" lon="0.49459">
        <ele>132</ele>
        <time>2019-08-05T11:49:05Z</time>
      </trkpt>
      <trkpt lat="47.79835" lon="0.49445">
        <ele>131</ele>
        <time>2019-08-05T11:49:23Z</time>
      </trkpt>
      <trkpt lat="47.79837" lon="0.49441">
        <ele>132</ele>
        <time>2019-08-05T11:49:26Z</time>
      </trkpt>
      <trkpt lat="47.79843" lon="0.49435">
        <ele>132</ele>
        <time>2019-08-05T11:49:32Z</time>
      </trkpt>
      <trkpt lat="47.79849" lon="0.49433">
        <ele>132</ele>
        <time>2019-08-05T11:49:36Z</time>
      </trkpt>
      <trkpt lat="47.7987" lon="0.49462">
        <ele>132</ele>
        <time>2019-08-05T11:49:54Z</time>
      </trkpt>
      <trkpt lat="47.79874" lon="0.49464">
        <ele>132</ele>
        <time>2019-08-05T11:49:57Z</time>
      </trkpt>
      <trkpt lat="47.79878" lon="0.49466">
        <ele>132</ele>
        <time>2019-08-05T11:50:00Z</time>
      </trkpt>
      <trkpt lat="47.79881" lon="0.49465">
        <ele>133</ele>
        <time>2019-08-05T11:50:03Z</time>
      </trkpt>
      <trkpt lat="47.79892" lon="0.49459">
        <ele>133</ele>
        <time>2019-08-05T11:50:12Z</time>
      </trkpt>
      <trkpt lat="47.79895" lon="0.49455">
        <ele>133</ele>
        <time>2019-08-05T11:50:15Z</time>
      </trkpt>
      <trkpt lat="47.79901" lon="0.49449">
        <ele>132</ele>
        <time>2019-08-05T11:50:21Z</time>
      </trkpt>
      <trkpt lat="47.79905" lon="0.49447">
        <ele>132</ele>
        <time>2019-08-05T11:50:24Z</time>
      </trkpt>
      <trkpt lat="47.7991" lon="0.49446">
        <ele>133</ele>
        <time>2019-08-05T11:50:27Z</time>
      </trkpt>
      <trkpt lat="47.79913" lon="0.49444">
        <ele>133</ele>
        <time>2019-08-05T11:50:29Z</time>
      </trkpt>
      <trkpt lat="47.79916" lon="0.4944">
        <ele>133</ele>
        <time>2019-08-05T11:50:32Z</time>
      </trkpt>
      <trkpt lat="47.79918" lon="0.49435">
        <ele>133</ele>
        <time>2019-08-05T11:50:36Z</time>
      </trkpt>
      <trkpt lat="47.79919" lon="0.49429">
        <ele>136</ele>
        <time>2019-08-05T11:50:42Z</time>
      </trkpt>
      <trkpt lat="47.79934" lon="0.4941">
        <ele>133</ele>
        <time>2019-08-05T11:50:56Z</time>
      </trkpt>
      <trkpt lat="47.79944" lon="0.49401">
        <ele>134</ele>
        <time>2019-08-05T11:51:03Z</time>
      </trkpt>
      <trkpt lat="47.79945" lon="0.49391">
        <ele>137</ele>
        <time>2019-08-05T11:51:11Z</time>
      </trkpt>
      <trkpt lat="47.79952" lon="0.4938">
        <ele>137</ele>
        <time>2019-08-05T11:51:18Z</time>
      </trkpt>
      <trkpt lat="47.79956" lon="0.49374">
        <ele>138</ele>
        <time>2019-08-05T11:51:24Z</time>
      </trkpt>
      <trkpt lat="47.79959" lon="0.49371">
        <ele>138</ele>
        <time>2019-08-05T11:51:27Z</time>
      </trkpt>
      <trkpt lat="47.79986" lon="0.49357">
        <ele>136</ele>
        <time>2019-08-05T11:51:43Z</time>
      </trkpt>
      <trkpt lat="47.79996" lon="0.49335">
        <ele>140</ele>
        <time>2019-08-05T11:52:01Z</time>
      </trkpt>
      <trkpt lat="47.80003" lon="0.49317">
        <ele>138</ele>
        <time>2019-08-05T11:52:10Z</time>
      </trkpt>
      <trkpt lat="47.80007" lon="0.49301">
        <ele>137</ele>
        <time>2019-08-05T11:52:16Z</time>
      </trkpt>
      <trkpt lat="47.80012" lon="0.49292">
        <ele>135</ele>
        <time>2019-08-05T11:52:21Z</time>
      </trkpt>
      <trkpt lat="47.80015" lon="0.49287">
        <ele>135</ele>
        <time>2019-08-05T11:52:24Z</time>
      </trkpt>
      <trkpt lat="47.80018" lon="0.49285">
        <ele>134</ele>
        <time>2019-08-05T11:52:26Z</time>
      </trkpt>
      <trkpt lat="47.80021" lon="0.49281">
        <ele>134</ele>
        <time>2019-08-05T11:52:29Z</time>
      </trkpt>
      <trkpt lat="47.80027" lon="0.49277">
        <ele>132</ele>
        <time>2019-08-05T11:52:36Z</time>
      </trkpt>
      <trkpt lat="47.8003" lon="0.49263">
        <ele>133</ele>
        <time>2019-08-05T11:52:44Z</time>
      </trkpt>
      <trkpt lat="47.80054" lon="0.49205">
        <ele>137</ele>
        <time>2019-08-05T11:53:15Z</time>
      </trkpt>
      <trkpt lat="47.80072" lon="0.49175">
        <ele>137</ele>
        <time>2019-08-05T11:53:34Z</time>
      </trkpt>
      <trkpt lat="47.80079" lon="0.49164">
        <ele>138</ele>
        <time>2019-08-05T11:53:40Z</time>
      </trkpt>
      <trkpt lat="47.80085" lon="0.49154">
        <ele>138</ele>
        <time>2019-08-05T11:53:45Z</time>
      </trkpt>
      <trkpt lat="47.80099" lon="0.49136">
        <ele>137</ele>
        <time>2019-08-05T11:53:55Z</time>
      </trkpt>
      <trkpt lat="47.80105" lon="0.49125">
        <ele>136</ele>
        <time>2019-08-05T11:54:02Z</time>
      </trkpt>
      <trkpt lat="47.80111" lon="0.49116">
        <ele>135</ele>
        <time>2019-08-05T11:54:09Z</time>
      </trkpt>
      <trkpt lat="47.80118" lon="0.49095">
        <ele>134</ele>
        <time>2019-08-05T11:54:21Z</time>
      </trkpt>
      <trkpt lat="47.80118" lon="0.49088">
        <ele>134</ele>
        <time>2019-08-05T11:54:24Z</time>
      </trkpt>
      <trkpt lat="47.80117" lon="0.49067">
        <ele>134</ele>
        <time>2019-08-05T11:54:34Z</time>
      </trkpt>
      <trkpt lat="47.80115" lon="0.49061">
        <ele>134</ele>
        <time>2019-08-05T11:54:37Z</time>
      </trkpt>
      <trkpt lat="47.80109" lon="0.49049">
        <ele>134</ele>
        <time>2019-08-05T11:54:42Z</time>
      </trkpt>
      <trkpt lat="47.80103" lon="0.49031">
        <ele>134</ele>
        <time>2019-08-05T11:54:51Z</time>
      </trkpt>
      <trkpt lat="47.80102" lon="0.49025">
        <ele>134</ele>
        <time>2019-08-05T11:54:54Z</time>
      </trkpt>
      <trkpt lat="47.80101" lon="0.49019">
        <ele>134</ele>
        <time>2019-08-05T11:54:57Z</time>
      </trkpt>
      <trkpt lat="47.801" lon="0.49012">
        <ele>134</ele>
        <time>2019-08-05T11:55:01Z</time>
      </trkpt>
      <trkpt lat="47.80101" lon="0.49007">
        <ele>133</ele>
        <time>2019-08-05T11:55:04Z</time>
      </trkpt>
      <trkpt lat="47.80102" lon="0.49001">
        <ele>132</ele>
        <time>2019-08-05T11:55:08Z</time>
      </trkpt>
      <trkpt lat="47.80104" lon="0.48995">
        <ele>132</ele>
        <time>2019-08-05T11:55:11Z</time>
      </trkpt>
      <trkpt lat="47.80106" lon="0.48989">
        <ele>133</ele>
        <time>2019-08-05T11:55:15Z</time>
      </trkpt>
      <trkpt lat="47.80111" lon="0.48988">
        <ele>133</ele>
        <time>2019-08-05T11:55:18Z</time>
      </trkpt>
      <trkpt lat="47.80119" lon="0.4899">
        <ele>134</ele>
        <time>2019-08-05T11:55:27Z</time>
      </trkpt>
      <trkpt lat="47.80131" lon="0.49008">
        <ele>137</ele>
        <time>2019-08-05T11:55:39Z</time>
      </trkpt>
      <trkpt lat="47.80137" lon="0.49017">
        <ele>137</ele>
        <time>2019-08-05T11:55:45Z</time>
      </trkpt>
      <trkpt lat="47.80145" lon="0.49032">
        <ele>136</ele>
        <time>2019-08-05T11:55:56Z</time>
      </trkpt>
      <trkpt lat="47.80156" lon="0.49052">
        <ele>136</ele>
        <time>2019-08-05T11:56:10Z</time>
      </trkpt>
      <trkpt lat="47.80165" lon="0.49064">
        <ele>137</ele>
        <time>2019-08-05T11:56:18Z</time>
      </trkpt>
      <trkpt lat="47.80169" lon="0.49069">
        <ele>137</ele>
        <time>2019-08-05T11:56:21Z</time>
      </trkpt>
      <trkpt lat="47.80172" lon="0.49071">
        <ele>137</ele>
        <time>2019-08-05T11:56:23Z</time>
      </trkpt>
      <trkpt lat="47.80178" lon="0.4908">
        <ele>137</ele>
        <time>2019-08-05T11:56:28Z</time>
      </trkpt>
      <trkpt lat="47.80208" lon="0.49123">
        <ele>135</ele>
        <time>2019-08-05T11:56:59Z</time>
      </trkpt>
      <trkpt lat="47.80211" lon="0.49126">
        <ele>135</ele>
        <time>2019-08-05T11:57:01Z</time>
      </trkpt>
      <trkpt lat="47.8023" lon="0.49157">
        <ele>134</ele>
        <time>2019-08-05T11:57:23Z</time>
      </trkpt>
      <trkpt lat="47.80233" lon="0.49162">
        <ele>134</ele>
        <time>2019-08-05T11:57:26Z</time>
      </trkpt>
      <trkpt lat="47.80241" lon="0.4917">
        <ele>134</ele>
        <time>2019-08-05T11:57:33Z</time>
      </trkpt>
      <trkpt lat="47.80247" lon="0.49182">
        <ele>133</ele>
        <time>2019-08-05T11:57:43Z</time>
      </trkpt>
      <trkpt lat="47.80254" lon="0.49188">
        <ele>133</ele>
        <time>2019-08-05T11:57:55Z</time>
      </trkpt>
      <trkpt lat="47.80263" lon="0.49196">
        <ele>135</ele>
        <time>2019-08-05T11:58:03Z</time>
      </trkpt>
      <trkpt lat="47.8027" lon="0.49205">
        <ele>134</ele>
        <time>2019-08-05T11:58:08Z</time>
      </trkpt>
      <trkpt lat="47.80281" lon="0.49217">
        <ele>132</ele>
        <time>2019-08-05T11:58:19Z</time>
      </trkpt>
      <trkpt lat="47.80292" lon="0.49234">
        <ele>134</ele>
        <time>2019-08-05T11:58:29Z</time>
      </trkpt>
      <trkpt lat="47.80296" lon="0.49239">
        <ele>134</ele>
        <time>2019-08-05T11:58:32Z</time>
      </trkpt>
      <trkpt lat="47.80299" lon="0.49243">
        <ele>134</ele>
        <time>2019-08-05T11:58:35Z</time>
      </trkpt>
      <trkpt lat="47.80302" lon="0.4925">
        <ele>133</ele>
        <time>2019-08-05T11:58:39Z</time>
      </trkpt>
      <trkpt lat="47.80314" lon="0.49275">
        <ele>131</ele>
        <time>2019-08-05T11:58:52Z</time>
      </trkpt>
      <trkpt lat="47.80317" lon="0.49279">
        <ele>131</ele>
        <time>2019-08-05T11:58:56Z</time>
      </trkpt>
      <trkpt lat="47.80319" lon="0.49286">
        <ele>131</ele>
        <time>2019-08-05T11:59:08Z</time>
      </trkpt>
      <trkpt lat="47.8032" lon="0.49291">
        <ele>128</ele>
        <time>2019-08-05T11:59:11Z</time>
      </trkpt>
      <trkpt lat="47.80324" lon="0.49294">
        <ele>127</ele>
        <time>2019-08-05T11:59:14Z</time>
      </trkpt>
      <trkpt lat="47.80327" lon="0.493">
        <ele>128</ele>
        <time>2019-08-05T11:59:18Z</time>
      </trkpt>
      <trkpt lat="47.80338" lon="0.49309">
        <ele>133</ele>
        <time>2019-08-05T11:59:25Z</time>
      </trkpt>
      <trkpt lat="47.80356" lon="0.49315">
        <ele>135</ele>
        <time>2019-08-05T11:59:36Z</time>
      </trkpt>
      <trkpt lat="47.80372" lon="0.49311">
        <ele>133</ele>
        <time>2019-08-05T11:59:49Z</time>
      </trkpt>
      <trkpt lat="47.80399" lon="0.49315">
        <ele>129</ele>
        <time>2019-08-05T12:00:20Z</time>
      </trkpt>
      <trkpt lat="47.80411" lon="0.49317">
        <ele>130</ele>
        <time>2019-08-05T12:00:28Z</time>
      </trkpt>
      <trkpt lat="47.80417" lon="0.49317">
        <ele>131</ele>
        <time>2019-08-05T12:00:32Z</time>
      </trkpt>
      <trkpt lat="47.8042" lon="0.49311">
        <ele>133</ele>
        <time>2019-08-05T12:00:41Z</time>
      </trkpt>
      <trkpt lat="47.80425" lon="0.4931">
        <ele>134</ele>
        <time>2019-08-05T12:00:45Z</time>
      </trkpt>
      <trkpt lat="47.80431" lon="0.49301">
        <ele>135</ele>
        <time>2019-08-05T12:00:52Z</time>
      </trkpt>
      <trkpt lat="47.8046" lon="0.493">
        <ele>133</ele>
        <time>2019-08-05T12:01:15Z</time>
      </trkpt>
      <trkpt lat="47.80476" lon="0.49285">
        <ele>133</ele>
        <time>2019-08-05T12:01:27Z</time>
      </trkpt>
      <trkpt lat="47.80493" lon="0.49275">
        <ele>133</ele>
        <time>2019-08-05T12:01:42Z</time>
      </trkpt>
      <trkpt lat="47.80547" lon="0.49284">
        <ele>124</ele>
        <time>2019-08-05T12:02:14Z</time>
      </trkpt>
      <trkpt lat="47.80552" lon="0.49285">
        <ele>125</ele>
        <time>2019-08-05T12:02:17Z</time>
      </trkpt>
      <trkpt lat="47.80557" lon="0.49287">
        <ele>120</ele>
        <time>2019-08-05T12:02:21Z</time>
      </trkpt>
      <trkpt lat="47.80571" lon="0.4929">
        <ele>110</ele>
        <time>2019-08-05T12:02:31Z</time>
      </trkpt>
      <trkpt lat="47.80582" lon="0.49289">
        <ele>111</ele>
        <time>2019-08-05T12:02:39Z</time>
      </trkpt>
      <trkpt lat="47.80585" lon="0.4929">
        <ele>110</ele>
        <time>2019-08-05T12:02:41Z</time>
      </trkpt>
      <trkpt lat="47.80595" lon="0.49289">
        <ele>115</ele>
        <time>2019-08-05T12:02:50Z</time>
      </trkpt>
      <trkpt lat="47.80602" lon="0.49288">
        <ele>114</ele>
        <time>2019-08-05T12:02:55Z</time>
      </trkpt>
      <trkpt lat="47.80627" lon="0.49278">
        <ele>124</ele>
        <time>2019-08-05T12:03:18Z</time>
      </trkpt>
      <trkpt lat="47.80636" lon="0.49276">
        <ele>123</ele>
        <time>2019-08-05T12:03:25Z</time>
      </trkpt>
      <trkpt lat="47.8064" lon="0.49275">
        <ele>122</ele>
        <time>2019-08-05T12:03:28Z</time>
      </trkpt>
      <trkpt lat="47.80644" lon="0.49272">
        <ele>120</ele>
        <time>2019-08-05T12:03:32Z</time>
      </trkpt>
      <trkpt lat="47.80648" lon="0.49268">
        <ele>119</ele>
        <time>2019-08-05T12:03:35Z</time>
      </trkpt>
      <trkpt lat="47.80651" lon="0.49257">
        <ele>110</ele>
        <time>2019-08-05T12:03:40Z</time>
      </trkpt>
      <trkpt lat="47.80651" lon="0.49253">
        <ele>108</ele>
        <time>2019-08-05T12:03:44Z</time>
      </trkpt>
      <trkpt lat="47.80653" lon="0.49248">
        <ele>105</ele>
        <time>2019-08-05T12:03:52Z</time>
      </trkpt>
      <trkpt lat="47.80664" lon="0.49213">
        <ele>102</ele>
        <time>2019-08-05T12:04:13Z</time>
      </trkpt>
      <trkpt lat="47.80666" lon="0.49208">
        <ele>102</ele>
        <time>2019-08-05T12:04:16Z</time>
      </trkpt>
      <trkpt lat="47.8067" lon="0.49197">
        <ele>102</ele>
        <time>2019-08-05T12:04:22Z</time>
      </trkpt>
      <trkpt lat="47.80676" lon="0.4918">
        <ele>103</ele>
        <time>2019-08-05T12:04:34Z</time>
      </trkpt>
      <trkpt lat="47.80681" lon="0.49157">
        <ele>119</ele>
        <time>2019-08-05T12:04:49Z</time>
      </trkpt>
      <trkpt lat="47.80685" lon="0.49141">
        <ele>112</ele>
        <time>2019-08-05T12:05:00Z</time>
      </trkpt>
      <trkpt lat="47.80688" lon="0.49131">
        <ele>112</ele>
        <time>2019-08-05T12:05:06Z</time>
      </trkpt>
      <trkpt lat="47.80703" lon="0.49094">
        <ele>113</ele>
        <time>2019-08-05T12:05:27Z</time>
      </trkpt>
      <trkpt lat="47.80723" lon="0.4907">
        <ele>113</ele>
        <time>2019-08-05T12:05:46Z</time>
      </trkpt>
      <trkpt lat="47.80731" lon="0.49056">
        <ele>116</ele>
        <time>2019-08-05T12:05:55Z</time>
      </trkpt>
      <trkpt lat="47.80761" lon="0.49016">
        <ele>121</ele>
        <time>2019-08-05T12:06:25Z</time>
      </trkpt>
      <trkpt lat="47.80766" lon="0.49008">
        <ele>121</ele>
        <time>2019-08-05T12:06:30Z</time>
      </trkpt>
      <trkpt lat="47.80767" lon="0.49003">
        <ele>122</ele>
        <time>2019-08-05T12:06:34Z</time>
      </trkpt>
      <trkpt lat="47.80773" lon="0.48991">
        <ele>127</ele>
        <time>2019-08-05T12:06:44Z</time>
      </trkpt>
      <trkpt lat="47.80776" lon="0.48989">
        <ele>127</ele>
        <time>2019-08-05T12:06:46Z</time>
      </trkpt>
      <trkpt lat="47.80783" lon="0.48984">
        <ele>127</ele>
        <time>2019-08-05T12:06:51Z</time>
      </trkpt>
      <trkpt lat="47.80788" lon="0.4897">
        <ele>127</ele>
        <time>2019-08-05T12:07:02Z</time>
      </trkpt>
      <trkpt lat="47.80791" lon="0.48965">
        <ele>126</ele>
        <time>2019-08-05T12:07:05Z</time>
      </trkpt>
      <trkpt lat="47.80795" lon="0.48962">
        <ele>127</ele>
        <time>2019-08-05T12:07:08Z</time>
      </trkpt>
      <trkpt lat="47.80799" lon="0.48953">
        <ele>128</ele>
        <time>2019-08-05T12:07:14Z</time>
      </trkpt>
      <trkpt lat="47.80802" lon="0.48949">
        <ele>129</ele>
        <time>2019-08-05T12:07:17Z</time>
      </trkpt>
      <trkpt lat="47.8081" lon="0.48944">
        <ele>128</ele>
        <time>2019-08-05T12:07:22Z</time>
      </trkpt>
      <trkpt lat="47.80812" lon="0.48941">
        <ele>128</ele>
        <time>2019-08-05T12:07:24Z</time>
      </trkpt>
      <trkpt lat="47.80833" lon="0.48912">
        <ele>128</ele>
        <time>2019-08-05T12:07:39Z</time>
      </trkpt>
      <trkpt lat="47.80833" lon="0.48907">
        <ele>126</ele>
        <time>2019-08-05T12:07:42Z</time>
      </trkpt>
      <trkpt lat="47.80827" lon="0.48902">
        <ele>124</ele>
        <time>2019-08-05T12:07:46Z</time>
      </trkpt>
      <trkpt lat="47.80825" lon="0.48899">
        <ele>124</ele>
        <time>2019-08-05T12:07:48Z</time>
      </trkpt>
      <trkpt lat="47.80822" lon="0.48893">
        <ele>124</ele>
        <time>2019-08-05T12:07:51Z</time>
      </trkpt>
      <trkpt lat="47.80809" lon="0.48882">
        <ele>125</ele>
        <time>2019-08-05T12:08:00Z</time>
      </trkpt>
      <trkpt lat="47.80796" lon="0.48867">
        <ele>128</ele>
        <time>2019-08-05T12:08:14Z</time>
      </trkpt>
      <trkpt lat="47.80792" lon="0.48862">
        <ele>128</ele>
        <time>2019-08-05T12:08:18Z</time>
      </trkpt>
      <trkpt lat="47.80769" lon="0.48852">
        <ele>130</ele>
        <time>2019-08-05T12:08:36Z</time>
      </trkpt>
      <trkpt lat="47.80765" lon="0.48849">
        <ele>131</ele>
        <time>2019-08-05T12:08:40Z</time>
      </trkpt>
      <trkpt lat="47.80761" lon="0.48846">
        <ele>133</ele>
        <time>2019-08-05T12:08:44Z</time>
      </trkpt>
      <trkpt lat="47.8076" lon="0.4884">
        <ele>133</ele>
        <time>2019-08-05T12:08:47Z</time>
      </trkpt>
      <trkpt lat="47.80753" lon="0.48821">
        <ele>130</ele>
        <time>2019-08-05T12:08:55Z</time>
      </trkpt>
      <trkpt lat="47.80712" lon="0.48777">
        <ele>135</ele>
        <time>2019-08-05T12:09:28Z</time>
      </trkpt>
      <trkpt lat="47.80698" lon="0.4876">
        <ele>135</ele>
        <time>2019-08-05T12:09:40Z</time>
      </trkpt>
      <trkpt lat="47.80693" lon="0.48749">
        <ele>135</ele>
        <time>2019-08-05T12:09:44Z</time>
      </trkpt>
      <trkpt lat="47.80691" lon="0.4872">
        <ele>129</ele>
        <time>2019-08-05T12:09:53Z</time>
      </trkpt>
      <trkpt lat="47.80687" lon="0.48709">
        <ele>129</ele>
        <time>2019-08-05T12:10:00Z</time>
      </trkpt>
      <trkpt lat="47.80665" lon="0.48693">
        <ele>129</ele>
        <time>2019-08-05T12:10:17Z</time>
      </trkpt>
      <trkpt lat="47.80662" lon="0.48687">
        <ele>130</ele>
        <time>2019-08-05T12:10:20Z</time>
      </trkpt>
      <trkpt lat="47.80648" lon="0.48678">
        <ele>131</ele>
        <time>2019-08-05T12:10:30Z</time>
      </trkpt>
      <trkpt lat="47.80635" lon="0.4866">
        <ele>131</ele>
        <time>2019-08-05T12:10:41Z</time>
      </trkpt>
      <trkpt lat="47.80634" lon="0.48656">
        <ele>131</ele>
        <time>2019-08-05T12:10:43Z</time>
      </trkpt>
      <trkpt lat="47.80631" lon="0.48651">
        <ele>131</ele>
        <time>2019-08-05T12:10:47Z</time>
      </trkpt>
      <trkpt lat="47.80628" lon="0.48649">
        <ele>130</ele>
        <time>2019-08-05T12:10:49Z</time>
      </trkpt>
      <trkpt lat="47.80624" lon="0.48646">
        <ele>130</ele>
        <time>2019-08-05T12:10:52Z</time>
      </trkpt>
      <trkpt lat="47.80623" lon="0.4864">
        <ele>130</ele>
        <time>2019-08-05T12:10:55Z</time>
      </trkpt>
      <trkpt lat="47.80619" lon="0.48634">
        <ele>130</ele>
        <time>2019-08-05T12:10:59Z</time>
      </trkpt>
      <trkpt lat="47.80615" lon="0.48631">
        <ele>131</ele>
        <time>2019-08-05T12:11:02Z</time>
      </trkpt>
      <trkpt lat="47.80604" lon="0.48615">
        <ele>132</ele>
        <time>2019-08-05T12:11:11Z</time>
      </trkpt>
      <trkpt lat="47.80609" lon="0.48595">
        <ele>133</ele>
        <time>2019-08-05T12:11:20Z</time>
      </trkpt>
      <trkpt lat="47.8061" lon="0.48589">
        <ele>133</ele>
        <time>2019-08-05T12:11:22Z</time>
      </trkpt>
      <trkpt lat="47.80608" lon="0.48571">
        <ele>131</ele>
        <time>2019-08-05T12:11:29Z</time>
      </trkpt>
      <trkpt lat="47.80605" lon="0.48558">
        <ele>132</ele>
        <time>2019-08-05T12:11:35Z</time>
      </trkpt>
      <trkpt lat="47.80589" lon="0.48527">
        <ele>132</ele>
        <time>2019-08-05T12:11:55Z</time>
      </trkpt>
      <trkpt lat="47.80589" lon="0.4852">
        <ele>132</ele>
        <time>2019-08-05T12:11:58Z</time>
      </trkpt>
      <trkpt lat="47.80588" lon="0.48514">
        <ele>132</ele>
        <time>2019-08-05T12:12:01Z</time>
      </trkpt>
      <trkpt lat="47.80573" lon="0.48495">
        <ele>133</ele>
        <time>2019-08-05T12:12:13Z</time>
      </trkpt>
      <trkpt lat="47.80568" lon="0.4849">
        <ele>133</ele>
        <time>2019-08-05T12:12:17Z</time>
      </trkpt>
      <trkpt lat="47.80565" lon="0.48489">
        <ele>133</ele>
        <time>2019-08-05T12:12:19Z</time>
      </trkpt>
      <trkpt lat="47.80562" lon="0.48487">
        <ele>133</ele>
        <time>2019-08-05T12:12:21Z</time>
      </trkpt>
      <trkpt lat="47.80555" lon="0.48477">
        <ele>133</ele>
        <time>2019-08-05T12:12:27Z</time>
      </trkpt>
      <trkpt lat="47.80551" lon="0.48474">
        <ele>133</ele>
        <time>2019-08-05T12:12:30Z</time>
      </trkpt>
      <trkpt lat="47.80547" lon="0.48471">
        <ele>-48</ele>
        <time>2019-08-05T12:12:35Z</time>
      </trkpt>
      <trkpt lat="47.80522" lon="0.48467">
        <ele>136</ele>
        <time>2019-08-05T12:12:56Z</time>
      </trkpt>
      <trkpt lat="47.8052" lon="0.48476">
        <ele>137</ele>
        <time>2019-08-05T12:13:05Z</time>
      </trkpt>
      <trkpt lat="47.80515" lon="0.48485">
        <ele>135</ele>
        <time>2019-08-05T12:13:13Z</time>
      </trkpt>
      <trkpt lat="47.80513" lon="0.48493">
        <ele>135</ele>
        <time>2019-08-05T12:13:23Z</time>
      </trkpt>
      <trkpt lat="47.8051" lon="0.48497">
        <ele>133</ele>
        <time>2019-08-05T12:13:37Z</time>
      </trkpt>
      <trkpt lat="47.80508" lon="0.485">
        <ele>132</ele>
        <time>2019-08-05T12:13:43Z</time>
      </trkpt>
      <trkpt lat="47.80506" lon="0.48504">
        <ele>133</ele>
        <time>2019-08-05T12:13:46Z</time>
      </trkpt>
      <trkpt lat="47.80498" lon="0.48523">
        <ele>133</ele>
        <time>2019-08-05T12:13:56Z</time>
      </trkpt>
      <trkpt lat="47.80495" lon="0.48528">
        <ele>130</ele>
        <time>2019-08-05T12:14:00Z</time>
      </trkpt>
      <trkpt lat="47.8049" lon="0.48533">
        <ele>130</ele>
        <time>2019-08-05T12:14:04Z</time>
      </trkpt>
      <trkpt lat="47.80467" lon="0.4857">
        <ele>127</ele>
        <time>2019-08-05T12:14:31Z</time>
      </trkpt>
      <trkpt lat="47.8046" lon="0.48582">
        <ele>128</ele>
        <time>2019-08-05T12:14:37Z</time>
      </trkpt>
      <trkpt lat="47.80452" lon="0.48587">
        <ele>130</ele>
        <time>2019-08-05T12:14:45Z</time>
      </trkpt>
      <trkpt lat="47.80442" lon="0.48586">
        <ele>131</ele>
        <time>2019-08-05T12:14:51Z</time>
      </trkpt>
      <trkpt lat="47.80438" lon="0.48585">
        <ele>132</ele>
        <time>2019-08-05T12:14:54Z</time>
      </trkpt>
      <trkpt lat="47.80434" lon="0.48584">
        <ele>132</ele>
        <time>2019-08-05T12:14:57Z</time>
      </trkpt>
      <trkpt lat="47.80431" lon="0.48585">
        <ele>133</ele>
        <time>2019-08-05T12:15:08Z</time>
      </trkpt>
      <trkpt lat="47.80431" lon="0.48582">
        <ele>132</ele>
        <time>2019-08-05T12:16:01Z</time>
      </trkpt>
      <trkpt lat="47.80433" lon="0.48571">
        <ele>130</ele>
        <time>2019-08-05T12:16:07Z</time>
      </trkpt>
      <trkpt lat="47.80435" lon="0.4856">
        <ele>128</ele>
        <time>2019-08-05T12:16:13Z</time>
      </trkpt>
      <trkpt lat="47.80436" lon="0.48549">
        <ele>127</ele>
        <time>2019-08-05T12:16:19Z</time>
      </trkpt>
      <trkpt lat="47.80437" lon="0.48544">
        <ele>127</ele>
        <time>2019-08-05T12:16:22Z</time>
      </trkpt>
      <trkpt lat="47.80438" lon="0.4854">
        <ele>128</ele>
        <time>2019-08-05T12:16:24Z</time>
      </trkpt>
      <trkpt lat="47.80438" lon="0.48536">
        <ele>128</ele>
        <time>2019-08-05T12:16:27Z</time>
      </trkpt>
      <trkpt lat="47.80437" lon="0.48529">
        <ele>128</ele>
        <time>2019-08-05T12:16:30Z</time>
      </trkpt>
      <trkpt lat="47.80436" lon="0.48519">
        <ele>130</ele>
        <time>2019-08-05T12:16:37Z</time>
      </trkpt>
      <trkpt lat="47.80435" lon="0.48515">
        <ele>129</ele>
        <time>2019-08-05T12:16:39Z</time>
      </trkpt>
      <trkpt lat="47.80421" lon="0.48491">
        <ele>127</ele>
        <time>2019-08-05T12:16:52Z</time>
      </trkpt>
      <trkpt lat="47.80418" lon="0.48471">
        <ele>126</ele>
        <time>2019-08-05T12:17:01Z</time>
      </trkpt>
      <trkpt lat="47.80418" lon="0.48465">
        <ele>127</ele>
        <time>2019-08-05T12:17:04Z</time>
      </trkpt>
      <trkpt lat="47.80418" lon="0.48459">
        <ele>128</ele>
        <time>2019-08-05T12:17:08Z</time>
      </trkpt>
      <trkpt lat="47.80417" lon="0.48454">
        <ele>128</ele>
        <time>2019-08-05T12:17:19Z</time>
      </trkpt>
      <trkpt lat="47.80406" lon="0.48409">
        <ele>128</ele>
        <time>2019-08-05T12:17:43Z</time>
      </trkpt>
      <trkpt lat="47.80395" lon="0.48371">
        <ele>129</ele>
        <time>2019-08-05T12:18:05Z</time>
      </trkpt>
      <trkpt lat="47.80385" lon="0.48345">
        <ele>132</ele>
        <time>2019-08-05T12:18:19Z</time>
      </trkpt>
      <trkpt lat="47.80378" lon="0.48319">
        <ele>128</ele>
        <time>2019-08-05T12:18:42Z</time>
      </trkpt>
      <trkpt lat="47.80373" lon="0.48306">
        <ele>128</ele>
        <time>2019-08-05T12:18:50Z</time>
      </trkpt>
      <trkpt lat="47.80362" lon="0.48253">
        <ele>130</ele>
        <time>2019-08-05T12:19:18Z</time>
      </trkpt>
      <trkpt lat="47.80354" lon="0.48246">
        <ele>132</ele>
        <time>2019-08-05T12:19:24Z</time>
      </trkpt>
      <trkpt lat="47.80348" lon="0.48238">
        <ele>134</ele>
        <time>2019-08-05T12:19:33Z</time>
      </trkpt>
      <trkpt lat="47.80341" lon="0.4823">
        <ele>138</ele>
        <time>2019-08-05T12:19:42Z</time>
      </trkpt>
      <trkpt lat="47.80336" lon="0.48218">
        <ele>138</ele>
        <time>2019-08-05T12:19:49Z</time>
      </trkpt>
      <trkpt lat="47.80324" lon="0.48181">
        <ele>139</ele>
        <time>2019-08-05T12:20:10Z</time>
      </trkpt>
      <trkpt lat="47.80323" lon="0.48165">
        <ele>137</ele>
        <time>2019-08-05T12:20:15Z</time>
      </trkpt>
      <trkpt lat="47.80321" lon="0.48151">
        <ele>135</ele>
        <time>2019-08-05T12:20:20Z</time>
      </trkpt>
      <trkpt lat="47.80317" lon="0.48138">
        <ele>134</ele>
        <time>2019-08-05T12:20:25Z</time>
      </trkpt>
      <trkpt lat="47.80314" lon="0.48125">
        <ele>131</ele>
        <time>2019-08-05T12:20:31Z</time>
      </trkpt>
      <trkpt lat="47.80313" lon="0.4812">
        <ele>130</ele>
        <time>2019-08-05T12:20:33Z</time>
      </trkpt>
      <trkpt lat="47.80308" lon="0.48105">
        <ele>131</ele>
        <time>2019-08-05T12:20:42Z</time>
      </trkpt>
      <trkpt lat="47.80303" lon="0.48094">
        <ele>132</ele>
        <time>2019-08-05T12:20:48Z</time>
      </trkpt>
      <trkpt lat="47.80297" lon="0.48084">
        <ele>133</ele>
        <time>2019-08-05T12:20:54Z</time>
      </trkpt>
      <trkpt lat="47.80291" lon="0.48078">
        <ele>132</ele>
        <time>2019-08-05T12:20:59Z</time>
      </trkpt>
      <trkpt lat="47.80289" lon="0.48074">
        <ele>132</ele>
        <time>2019-08-05T12:21:02Z</time>
      </trkpt>
      <trkpt lat="47.80287" lon="0.4807">
        <ele>132</ele>
        <time>2019-08-05T12:21:05Z</time>
      </trkpt>
      <trkpt lat="47.80287" lon="0.48066">
        <ele>131</ele>
        <time>2019-08-05T12:21:09Z</time>
      </trkpt>
      <trkpt lat="47.80286" lon="0.48061">
        <ele>131</ele>
        <time>2019-08-05T12:21:13Z</time>
      </trkpt>
      <trkpt lat="47.80284" lon="0.48058">
        <ele>131</ele>
        <time>2019-08-05T12:21:16Z</time>
      </trkpt>
      <trkpt lat="47.80282" lon="0.48052">
        <ele>132</ele>
        <time>2019-08-05T12:21:21Z</time>
      </trkpt>
      <trkpt lat="47.80278" lon="0.48047">
        <ele>131</ele>
        <time>2019-08-05T12:21:24Z</time>
      </trkpt>
      <trkpt lat="47.80274" lon="0.48041">
        <ele>131</ele>
        <time>2019-08-05T12:21:28Z</time>
      </trkpt>
      <trkpt lat="47.80262" lon="0.48027">
        <ele>130</ele>
        <time>2019-08-05T12:21:38Z</time>
      </trkpt>
      <trkpt lat="47.80259" lon="0.48022">
        <ele>130</ele>
        <time>2019-08-05T12:21:41Z</time>
      </trkpt>
      <trkpt lat="47.80253" lon="0.48015">
        <ele>130</ele>
        <time>2019-08-05T12:21:45Z</time>
      </trkpt>
      <trkpt lat="47.80247" lon="0.48004">
        <ele>129</ele>
        <time>2019-08-05T12:21:51Z</time>
      </trkpt>
      <trkpt lat="47.80229" lon="0.47973">
        <ele>129</ele>
        <time>2019-08-05T12:22:12Z</time>
      </trkpt>
      <trkpt lat="47.80221" lon="0.47959">
        <ele>130</ele>
        <time>2019-08-05T12:22:22Z</time>
      </trkpt>
      <trkpt lat="47.80215" lon="0.47951">
        <ele>131</ele>
        <time>2019-08-05T12:22:27Z</time>
      </trkpt>
      <trkpt lat="47.80213" lon="0.47946">
        <ele>132</ele>
        <time>2019-08-05T12:22:30Z</time>
      </trkpt>
      <trkpt lat="47.80212" lon="0.47942">
        <ele>132</ele>
        <time>2019-08-05T12:22:32Z</time>
      </trkpt>
      <trkpt lat="47.8021" lon="0.4794">
        <ele>132</ele>
        <time>2019-08-05T12:22:34Z</time>
      </trkpt>
      <trkpt lat="47.80206" lon="0.47936">
        <ele>132</ele>
        <time>2019-08-05T12:22:37Z</time>
      </trkpt>
      <trkpt lat="47.80205" lon="0.47932">
        <ele>129</ele>
        <time>2019-08-05T12:22:40Z</time>
      </trkpt>
      <trkpt lat="47.80191" lon="0.47901">
        <ele>132</ele>
        <time>2019-08-05T12:22:57Z</time>
      </trkpt>
      <trkpt lat="47.80189" lon="0.47897">
        <ele>132</ele>
        <time>2019-08-05T12:23:00Z</time>
      </trkpt>
      <trkpt lat="47.80188" lon="0.47891">
        <ele>131</ele>
        <time>2019-08-05T12:23:04Z</time>
      </trkpt>
      <trkpt lat="47.80185" lon="0.47887">
        <ele>131</ele>
        <time>2019-08-05T12:23:07Z</time>
      </trkpt>
      <trkpt lat="47.80184" lon="0.47886">
        <ele>134</ele>
        <time>2019-08-05T12:25:09Z</time>
      </trkpt>
      <trkpt lat="47.80198" lon="0.47869">
        <ele>133</ele>
        <time>2019-08-05T12:25:25Z</time>
      </trkpt>
      <trkpt lat="47.80201" lon="0.47867">
        <ele>133</ele>
        <time>2019-08-05T12:25:27Z</time>
      </trkpt>
      <trkpt lat="47.80204" lon="0.47865">
        <ele>135</ele>
        <time>2019-08-05T12:25:29Z</time>
      </trkpt>
      <trkpt lat="47.80219" lon="0.4785">
        <ele>135</ele>
        <time>2019-08-05T12:25:41Z</time>
      </trkpt>
      <trkpt lat="47.80221" lon="0.47845">
        <ele>135</ele>
        <time>2019-08-05T12:25:44Z</time>
      </trkpt>
      <trkpt lat="47.80256" lon="0.47808">
        <ele>134</ele>
        <time>2019-08-05T12:26:15Z</time>
      </trkpt>
      <trkpt lat="47.80275" lon="0.47784">
        <ele>133</ele>
        <time>2019-08-05T12:26:32Z</time>
      </trkpt>
      <trkpt lat="47.80284" lon="0.47776">
        <ele>133</ele>
        <time>2019-08-05T12:26:41Z</time>
      </trkpt>
      <trkpt lat="47.80318" lon="0.47786">
        <ele>132</ele>
        <time>2019-08-05T12:27:07Z</time>
      </trkpt>
      <trkpt lat="47.80322" lon="0.47788">
        <ele>133</ele>
        <time>2019-08-05T12:27:10Z</time>
      </trkpt>
      <trkpt lat="47.80326" lon="0.47789">
        <ele>133</ele>
        <time>2019-08-05T12:27:13Z</time>
      </trkpt>
      <trkpt lat="47.80333" lon="0.47791">
        <ele>134</ele>
        <time>2019-08-05T12:27:19Z</time>
      </trkpt>
      <trkpt lat="47.80347" lon="0.47795">
        <ele>134</ele>
        <time>2019-08-05T12:27:32Z</time>
      </trkpt>
      <trkpt lat="47.80383" lon="0.47797">
        <ele>132</ele>
        <time>2019-08-05T12:28:02Z</time>
      </trkpt>
      <trkpt lat="47.80411" lon="0.47808">
        <ele>131</ele>
        <time>2019-08-05T12:28:20Z</time>
      </trkpt>
      <trkpt lat="47.80428" lon="0.47813">
        <ele>132</ele>
        <time>2019-08-05T12:28:33Z</time>
      </trkpt>
      <trkpt lat="47.80439" lon="0.47814">
        <ele>130</ele>
        <time>2019-08-05T12:28:41Z</time>
      </trkpt>
      <trkpt lat="47.80446" lon="0.47816">
        <ele>131</ele>
        <time>2019-08-05T12:28:47Z</time>
      </trkpt>
      <trkpt lat="47.80454" lon="0.47817">
        <ele>132</ele>
        <time>2019-08-05T12:28:53Z</time>
      </trkpt>
      <trkpt lat="47.80457" lon="0.47817">
        <ele>132</ele>
        <time>2019-08-05T12:28:56Z</time>
      </trkpt>
      <trkpt lat="47.8046" lon="0.47817">
        <ele>132</ele>
        <time>2019-08-05T12:28:59Z</time>
      </trkpt>
      <trkpt lat="47.80468" lon="0.47817">
        <ele>130</ele>
        <time>2019-08-05T12:29:05Z</time>
      </trkpt>
      <trkpt lat="47.80508" lon="0.47821">
        <ele>131</ele>
        <time>2019-08-05T12:29:40Z</time>
      </trkpt>
      <trkpt lat="47.80548" lon="0.47823">
        <ele>129</ele>
        <time>2019-08-05T12:30:10Z</time>
      </trkpt>
      <trkpt lat="47.80581" lon="0.47833">
        <ele>131</ele>
        <time>2019-08-05T12:30:36Z</time>
      </trkpt>
      <trkpt lat="47.80584" lon="0.47833">
        <ele>131</ele>
        <time>2019-08-05T12:30:38Z</time>
      </trkpt>
      <trkpt lat="47.80603" lon="0.47837">
        <ele>131</ele>
        <time>2019-08-05T12:30:52Z</time>
      </trkpt>
      <trkpt lat="47.80615" lon="0.47835">
        <ele>131</ele>
        <time>2019-08-05T12:31:01Z</time>
      </trkpt>
      <trkpt lat="47.80625" lon="0.4783">
        <ele>131</ele>
        <time>2019-08-05T12:31:11Z</time>
      </trkpt>
      <trkpt lat="47.80657" lon="0.47811">
        <ele>128</ele>
        <time>2019-08-05T12:31:38Z</time>
      </trkpt>
      <trkpt lat="47.807" lon="0.47797">
        <ele>129</ele>
        <time>2019-08-05T12:32:08Z</time>
      </trkpt>
      <trkpt lat="47.80704" lon="0.47797">
        <ele>129</ele>
        <time>2019-08-05T12:32:11Z</time>
      </trkpt>
      <trkpt lat="47.80741" lon="0.47793">
        <ele>121</ele>
        <time>2019-08-05T12:32:41Z</time>
      </trkpt>
      <trkpt lat="47.80784" lon="0.47801">
        <ele>121</ele>
        <time>2019-08-05T12:33:12Z</time>
      </trkpt>
      <trkpt lat="47.80817" lon="0.47805">
        <ele>119</ele>
        <time>2019-08-05T12:33:37Z</time>
      </trkpt>
      <trkpt lat="47.80825" lon="0.47805">
        <ele>120</ele>
        <time>2019-08-05T12:33:43Z</time>
      </trkpt>
      <trkpt lat="47.80828" lon="0.47805">
        <ele>120</ele>
        <time>2019-08-05T12:33:46Z</time>
      </trkpt>
      <trkpt lat="47.80848" lon="0.47803">
        <ele>119</ele>
        <time>2019-08-05T12:34:01Z</time>
      </trkpt>
      <trkpt lat="47.80851" lon="0.47803">
        <ele>119</ele>
        <time>2019-08-05T12:34:04Z</time>
      </trkpt>
      <trkpt lat="47.80865" lon="0.47802">
        <ele>118</ele>
        <time>2019-08-05T12:34:15Z</time>
      </trkpt>
      <trkpt lat="47.80876" lon="0.47806">
        <ele>123</ele>
        <time>2019-08-05T12:34:23Z</time>
      </trkpt>
      <trkpt lat="47.8089" lon="0.47808">
        <ele>116</ele>
        <time>2019-08-05T12:34:36Z</time>
      </trkpt>
      <trkpt lat="47.80897" lon="0.47808">
        <ele>115</ele>
        <time>2019-08-05T12:34:42Z</time>
      </trkpt>
      <trkpt lat="47.809" lon="0.47807">
        <ele>114</ele>
        <time>2019-08-05T12:34:45Z</time>
      </trkpt>
      <trkpt lat="47.80907" lon="0.47806">
        <ele>115</ele>
        <time>2019-08-05T12:34:52Z</time>
      </trkpt>
      <trkpt lat="47.80914" lon="0.47806">
        <ele>116</ele>
        <time>2019-08-05T12:34:59Z</time>
      </trkpt>
      <trkpt lat="47.80928" lon="0.47804">
        <ele>115</ele>
        <time>2019-08-05T12:35:11Z</time>
      </trkpt>
      <trkpt lat="47.80935" lon="0.47805">
        <ele>113</ele>
        <time>2019-08-05T12:35:17Z</time>
      </trkpt>
      <trkpt lat="47.80957" lon="0.47809">
        <ele>109</ele>
        <time>2019-08-05T12:35:36Z</time>
      </trkpt>
      <trkpt lat="47.80961" lon="0.4781">
        <ele>109</ele>
        <time>2019-08-05T12:35:39Z</time>
      </trkpt>
      <trkpt lat="47.80965" lon="0.47809">
        <ele>109</ele>
        <time>2019-08-05T12:35:41Z</time>
      </trkpt>
      <trkpt lat="47.80968" lon="0.47808">
        <ele>108</ele>
        <time>2019-08-05T12:35:44Z</time>
      </trkpt>
      <trkpt lat="47.80972" lon="0.47807">
        <ele>107</ele>
        <time>2019-08-05T12:35:48Z</time>
      </trkpt>
      <trkpt lat="47.80983" lon="0.47805">
        <ele>106</ele>
        <time>2019-08-05T12:35:57Z</time>
      </trkpt>
      <trkpt lat="47.80989" lon="0.47805">
        <ele>106</ele>
        <time>2019-08-05T12:36:00Z</time>
      </trkpt>
      <trkpt lat="47.80992" lon="0.47806">
        <ele>107</ele>
        <time>2019-08-05T12:36:03Z</time>
      </trkpt>
      <trkpt lat="47.80996" lon="0.47808">
        <ele>107</ele>
        <time>2019-08-05T12:36:07Z</time>
      </trkpt>
      <trkpt lat="47.80998" lon="0.47812">
        <ele>104</ele>
        <time>2019-08-05T12:36:12Z</time>
      </trkpt>
      <trkpt lat="47.81023" lon="0.47808">
        <ele>102</ele>
        <time>2019-08-05T12:36:32Z</time>
      </trkpt>
      <trkpt lat="47.81026" lon="0.47805">
        <ele>102</ele>
        <time>2019-08-05T12:36:35Z</time>
      </trkpt>
      <trkpt lat="47.81027" lon="0.478">
        <ele>101</ele>
        <time>2019-08-05T12:36:38Z</time>
      </trkpt>
      <trkpt lat="47.81022" lon="0.47792">
        <ele>99</ele>
        <time>2019-08-05T12:36:44Z</time>
      </trkpt>
      <trkpt lat="47.81013" lon="0.47755">
        <ele>102</ele>
        <time>2019-08-05T12:37:04Z</time>
      </trkpt>
      <trkpt lat="47.81007" lon="0.47737">
        <ele>100</ele>
        <time>2019-08-05T12:37:16Z</time>
      </trkpt>
      <trkpt lat="47.81002" lon="0.4773">
        <ele>100</ele>
        <time>2019-08-05T12:37:21Z</time>
      </trkpt>
      <trkpt lat="47.80999" lon="0.47725">
        <ele>100</ele>
        <time>2019-08-05T12:37:24Z</time>
      </trkpt>
      <trkpt lat="47.80998" lon="0.47719">
        <ele>100</ele>
        <time>2019-08-05T12:37:27Z</time>
      </trkpt>
      <trkpt lat="47.80998" lon="0.47714">
        <ele>100</ele>
        <time>2019-08-05T12:37:30Z</time>
      </trkpt>
      <trkpt lat="47.80992" lon="0.47701">
        <ele>99</ele>
        <time>2019-08-05T12:37:38Z</time>
      </trkpt>
      <trkpt lat="47.8099" lon="0.47698">
        <ele>99</ele>
        <time>2019-08-05T12:37:41Z</time>
      </trkpt>
      <trkpt lat="47.80988" lon="0.47693">
        <ele>99</ele>
        <time>2019-08-05T12:37:44Z</time>
      </trkpt>
      <trkpt lat="47.80986" lon="0.47688">
        <ele>99</ele>
        <time>2019-08-05T12:37:47Z</time>
      </trkpt>
      <trkpt lat="47.8097" lon="0.47647">
        <ele>104</ele>
        <time>2019-08-05T12:38:12Z</time>
      </trkpt>
      <trkpt lat="47.80967" lon="0.47637">
        <ele>104</ele>
        <time>2019-08-05T12:38:18Z</time>
      </trkpt>
      <trkpt lat="47.80966" lon="0.47633">
        <ele>105</ele>
        <time>2019-08-05T12:38:22Z</time>
      </trkpt>
      <trkpt lat="47.80965" lon="0.47627">
        <ele>105</ele>
        <time>2019-08-05T12:38:26Z</time>
      </trkpt>
      <trkpt lat="47.80964" lon="0.47623">
        <ele>105</ele>
        <time>2019-08-05T12:38:31Z</time>
      </trkpt>
      <trkpt lat="47.80962" lon="0.47619">
        <ele>105</ele>
        <time>2019-08-05T12:38:37Z</time>
      </trkpt>
      <trkpt lat="47.80949" lon="0.47598">
        <ele>105</ele>
        <time>2019-08-05T12:38:48Z</time>
      </trkpt>
      <trkpt lat="47.80945" lon="0.47581">
        <ele>105</ele>
        <time>2019-08-05T12:38:55Z</time>
      </trkpt>
      <trkpt lat="47.80941" lon="0.47575">
        <ele>105</ele>
        <time>2019-08-05T12:38:59Z</time>
      </trkpt>
      <trkpt lat="47.80938" lon="0.47572">
        <ele>104</ele>
        <time>2019-08-05T12:39:01Z</time>
      </trkpt>
      <trkpt lat="47.80936" lon="0.47567">
        <ele>105</ele>
        <time>2019-08-05T12:39:04Z</time>
      </trkpt>
      <trkpt lat="47.80934" lon="0.47563">
        <ele>106</ele>
        <time>2019-08-05T12:39:07Z</time>
      </trkpt>
      <trkpt lat="47.80908" lon="0.47518">
        <ele>105</ele>
        <time>2019-08-05T12:39:35Z</time>
      </trkpt>
      <trkpt lat="47.80887" lon="0.47495">
        <ele>107</ele>
        <time>2019-08-05T12:40:01Z</time>
      </trkpt>
      <trkpt lat="47.80885" lon="0.47492">
        <ele>107</ele>
        <time>2019-08-05T12:40:05Z</time>
      </trkpt>
      <trkpt lat="47.80878" lon="0.47482">
        <ele>107</ele>
        <time>2019-08-05T12:40:14Z</time>
      </trkpt>
      <trkpt lat="47.80875" lon="0.47479">
        <ele>107</ele>
        <time>2019-08-05T12:40:17Z</time>
      </trkpt>
      <trkpt lat="47.80871" lon="0.47476">
        <ele>107</ele>
        <time>2019-08-05T12:40:20Z</time>
      </trkpt>
      <trkpt lat="47.80867" lon="0.47473">
        <ele>110</ele>
        <time>2019-08-05T12:40:23Z</time>
      </trkpt>
      <trkpt lat="47.80865" lon="0.47469">
        <ele>112</ele>
        <time>2019-08-05T12:40:25Z</time>
      </trkpt>
      <trkpt lat="47.80857" lon="0.47459">
        <ele>114</ele>
        <time>2019-08-05T12:40:31Z</time>
      </trkpt>
      <trkpt lat="47.80856" lon="0.47454">
        <ele>111</ele>
        <time>2019-08-05T12:40:34Z</time>
      </trkpt>
      <trkpt lat="47.80854" lon="0.4745">
        <ele>111</ele>
        <time>2019-08-05T12:40:36Z</time>
      </trkpt>
      <trkpt lat="47.80851" lon="0.47443">
        <ele>110</ele>
        <time>2019-08-05T12:40:40Z</time>
      </trkpt>
      <trkpt lat="47.80841" lon="0.47429">
        <ele>110</ele>
        <time>2019-08-05T12:40:52Z</time>
      </trkpt>
      <trkpt lat="47.80836" lon="0.47423">
        <ele>110</ele>
        <time>2019-08-05T12:40:56Z</time>
      </trkpt>
      <trkpt lat="47.80828" lon="0.47414">
        <ele>111</ele>
        <time>2019-08-05T12:41:04Z</time>
      </trkpt>
      <trkpt lat="47.80822" lon="0.47405">
        <ele>111</ele>
        <time>2019-08-05T12:41:11Z</time>
      </trkpt>
      <trkpt lat="47.80787" lon="0.47364">
        <ele>108</ele>
        <time>2019-08-05T12:41:41Z</time>
      </trkpt>
      <trkpt lat="47.80752" lon="0.47329">
        <ele>110</ele>
        <time>2019-08-05T12:42:12Z</time>
      </trkpt>
      <trkpt lat="47.80746" lon="0.47324">
        <ele>109</ele>
        <time>2019-08-05T12:42:17Z</time>
      </trkpt>
      <trkpt lat="47.8074" lon="0.47317">
        <ele>115</ele>
        <time>2019-08-05T12:42:22Z</time>
      </trkpt>
      <trkpt lat="47.80719" lon="0.47303">
        <ele>119</ele>
        <time>2019-08-05T12:42:39Z</time>
      </trkpt>
      <trkpt lat="47.80715" lon="0.47303">
        <ele>119</ele>
        <time>2019-08-05T12:42:42Z</time>
      </trkpt>
      <trkpt lat="47.80712" lon="0.47301">
        <ele>121</ele>
        <time>2019-08-05T12:42:45Z</time>
      </trkpt>
      <trkpt lat="47.80707" lon="0.47296">
        <ele>122</ele>
        <time>2019-08-05T12:42:52Z</time>
      </trkpt>
      <trkpt lat="47.80705" lon="0.4729">
        <ele>121</ele>
        <time>2019-08-05T12:42:54Z</time>
      </trkpt>
      <trkpt lat="47.80691" lon="0.47265">
        <ele>119</ele>
        <time>2019-08-05T12:43:08Z</time>
      </trkpt>
      <trkpt lat="47.80684" lon="0.47259">
        <ele>120</ele>
        <time>2019-08-05T12:43:13Z</time>
      </trkpt>
      <trkpt lat="47.80657" lon="0.47212">
        <ele>121</ele>
        <time>2019-08-05T12:43:43Z</time>
      </trkpt>
      <trkpt lat="47.80654" lon="0.47209">
        <ele>121</ele>
        <time>2019-08-05T12:43:46Z</time>
      </trkpt>
      <trkpt lat="47.80651" lon="0.47205">
        <ele>121</ele>
        <time>2019-08-05T12:43:49Z</time>
      </trkpt>
      <trkpt lat="47.80641" lon="0.47191">
        <ele>120</ele>
        <time>2019-08-05T12:43:58Z</time>
      </trkpt>
      <trkpt lat="47.80609" lon="0.47154">
        <ele>120</ele>
        <time>2019-08-05T12:44:28Z</time>
      </trkpt>
      <trkpt lat="47.80604" lon="0.47147">
        <ele>122</ele>
        <time>2019-08-05T12:44:34Z</time>
      </trkpt>
      <trkpt lat="47.80601" lon="0.47145">
        <ele>122</ele>
        <time>2019-08-05T12:44:37Z</time>
      </trkpt>
      <trkpt lat="47.80574" lon="0.47116">
        <ele>121</ele>
        <time>2019-08-05T12:45:02Z</time>
      </trkpt>
      <trkpt lat="47.80573" lon="0.4711">
        <ele>121</ele>
        <time>2019-08-05T12:45:05Z</time>
      </trkpt>
      <trkpt lat="47.80556" lon="0.47095">
        <ele>118</ele>
        <time>2019-08-05T12:45:20Z</time>
      </trkpt>
      <trkpt lat="47.80545" lon="0.4709">
        <ele>112</ele>
        <time>2019-08-05T12:45:29Z</time>
      </trkpt>
      <trkpt lat="47.80518" lon="0.47059">
        <ele>118</ele>
        <time>2019-08-05T12:45:53Z</time>
      </trkpt>
      <trkpt lat="47.80506" lon="0.47042">
        <ele>118</ele>
        <time>2019-08-05T12:46:08Z</time>
      </trkpt>
      <trkpt lat="47.80503" lon="0.47037">
        <ele>118</ele>
        <time>2019-08-05T12:46:11Z</time>
      </trkpt>
      <trkpt lat="47.80496" lon="0.47028">
        <ele>118</ele>
        <time>2019-08-05T12:46:20Z</time>
      </trkpt>
      <trkpt lat="47.80487" lon="0.4702">
        <ele>119</ele>
        <time>2019-08-05T12:46:28Z</time>
      </trkpt>
      <trkpt lat="47.80484" lon="0.47016">
        <ele>120</ele>
        <time>2019-08-05T12:46:31Z</time>
      </trkpt>
      <trkpt lat="47.80477" lon="0.47006">
        <ele>121</ele>
        <time>2019-08-05T12:46:37Z</time>
      </trkpt>
      <trkpt lat="47.80474" lon="0.47002">
        <ele>121</ele>
        <time>2019-08-05T12:46:40Z</time>
      </trkpt>
      <trkpt lat="47.80453" lon="0.46981">
        <ele>116</ele>
        <time>2019-08-05T12:47:01Z</time>
      </trkpt>
      <trkpt lat="47.80449" lon="0.4698">
        <ele>117</ele>
        <time>2019-08-05T12:47:04Z</time>
      </trkpt>
      <trkpt lat="47.80438" lon="0.46973">
        <ele>116</ele>
        <time>2019-08-05T12:47:13Z</time>
      </trkpt>
      <trkpt lat="47.80427" lon="0.46969">
        <ele>115</ele>
        <time>2019-08-05T12:47:21Z</time>
      </trkpt>
      <trkpt lat="47.80424" lon="0.46966">
        <ele>116</ele>
        <time>2019-08-05T12:47:24Z</time>
      </trkpt>
      <trkpt lat="47.8041" lon="0.46959">
        <ele>116</ele>
        <time>2019-08-05T12:47:36Z</time>
      </trkpt>
      <trkpt lat="47.80369" lon="0.4694">
        <ele>116</ele>
        <time>2019-08-05T12:48:07Z</time>
      </trkpt>
      <trkpt lat="47.80333" lon="0.46928">
        <ele>111</ele>
        <time>2019-08-05T12:48:36Z</time>
      </trkpt>
      <trkpt lat="47.8033" lon="0.46925">
        <ele>110</ele>
        <time>2019-08-05T12:48:39Z</time>
      </trkpt>
      <trkpt lat="47.80327" lon="0.46916">
        <ele>110</ele>
        <time>2019-08-05T12:48:44Z</time>
      </trkpt>
      <trkpt lat="47.80323" lon="0.46908">
        <ele>110</ele>
        <time>2019-08-05T12:48:50Z</time>
      </trkpt>
      <trkpt lat="47.80322" lon="0.46898">
        <ele>111</ele>
        <time>2019-08-05T12:48:55Z</time>
      </trkpt>
      <trkpt lat="47.80323" lon="0.46892">
        <ele>110</ele>
        <time>2019-08-05T12:49:01Z</time>
      </trkpt>
      <trkpt lat="47.80322" lon="0.46888">
        <ele>109</ele>
        <time>2019-08-05T12:49:03Z</time>
      </trkpt>
      <trkpt lat="47.8032" lon="0.46884">
        <ele>111</ele>
        <time>2019-08-05T12:49:06Z</time>
      </trkpt>
      <trkpt lat="47.80319" lon="0.46869">
        <ele>113</ele>
        <time>2019-08-05T12:49:12Z</time>
      </trkpt>
      <trkpt lat="47.80317" lon="0.46864">
        <ele>112</ele>
        <time>2019-08-05T12:49:14Z</time>
      </trkpt>
      <trkpt lat="47.80307" lon="0.46828">
        <ele>110</ele>
        <time>2019-08-05T12:49:33Z</time>
      </trkpt>
      <trkpt lat="47.80299" lon="0.46791">
        <ele>105</ele>
        <time>2019-08-05T12:49:51Z</time>
      </trkpt>
      <trkpt lat="47.80292" lon="0.46767">
        <ele>105</ele>
        <time>2019-08-05T12:50:04Z</time>
      </trkpt>
      <trkpt lat="47.80287" lon="0.46751">
        <ele>98</ele>
        <time>2019-08-05T12:50:13Z</time>
      </trkpt>
      <trkpt lat="47.80283" lon="0.46738">
        <ele>104</ele>
        <time>2019-08-05T12:50:20Z</time>
      </trkpt>
      <trkpt lat="47.80279" lon="0.46727">
        <ele>104</ele>
        <time>2019-08-05T12:50:26Z</time>
      </trkpt>
      <trkpt lat="47.80277" lon="0.46724">
        <ele>104</ele>
        <time>2019-08-05T12:50:28Z</time>
      </trkpt>
      <trkpt lat="47.80275" lon="0.4672">
        <ele>103</ele>
        <time>2019-08-05T12:50:31Z</time>
      </trkpt>
      <trkpt lat="47.80264" lon="0.46678">
        <ele>104</ele>
        <time>2019-08-05T12:50:53Z</time>
      </trkpt>
      <trkpt lat="47.80263" lon="0.46674">
        <ele>103</ele>
        <time>2019-08-05T12:50:55Z</time>
      </trkpt>
      <trkpt lat="47.80257" lon="0.4666">
        <ele>104</ele>
        <time>2019-08-05T12:51:03Z</time>
      </trkpt>
      <trkpt lat="47.80248" lon="0.46638">
        <ele>95</ele>
        <time>2019-08-05T12:51:17Z</time>
      </trkpt>
      <trkpt lat="47.80242" lon="0.46625">
        <ele>95</ele>
        <time>2019-08-05T12:51:25Z</time>
      </trkpt>
      <trkpt lat="47.80237" lon="0.46612">
        <ele>95</ele>
        <time>2019-08-05T12:51:32Z</time>
      </trkpt>
      <trkpt lat="47.80233" lon="0.46603">
        <ele>94</ele>
        <time>2019-08-05T12:51:37Z</time>
      </trkpt>
      <trkpt lat="47.80227" lon="0.46592">
        <ele>94</ele>
        <time>2019-08-05T12:51:45Z</time>
      </trkpt>
      <trkpt lat="47.80216" lon="0.46577">
        <ele>93</ele>
        <time>2019-08-05T12:51:57Z</time>
      </trkpt>
      <trkpt lat="47.8021" lon="0.46565">
        <ele>93</ele>
        <time>2019-08-05T12:52:06Z</time>
      </trkpt>
      <trkpt lat="47.80192" lon="0.46541">
        <ele>94</ele>
        <time>2019-08-05T12:52:28Z</time>
      </trkpt>
      <trkpt lat="47.80183" lon="0.46533">
        <ele>95</ele>
        <time>2019-08-05T12:52:35Z</time>
      </trkpt>
      <trkpt lat="47.80173" lon="0.46519">
        <ele>99</ele>
        <time>2019-08-05T12:52:47Z</time>
      </trkpt>
      <trkpt lat="47.80159" lon="0.46508">
        <ele>98</ele>
        <time>2019-08-05T12:52:57Z</time>
      </trkpt>
      <trkpt lat="47.80157" lon="0.46504">
        <ele>98</ele>
        <time>2019-08-05T12:52:59Z</time>
      </trkpt>
      <trkpt lat="47.80144" lon="0.46492">
        <ele>99</ele>
        <time>2019-08-05T12:53:09Z</time>
      </trkpt>
      <trkpt lat="47.80124" lon="0.46461">
        <ele>100</ele>
        <time>2019-08-05T12:53:32Z</time>
      </trkpt>
      <trkpt lat="47.80104" lon="0.4644">
        <ele>99</ele>
        <time>2019-08-05T12:53:50Z</time>
      </trkpt>
      <trkpt lat="47.80083" lon="0.46442">
        <ele>106</ele>
        <time>2019-08-05T12:54:08Z</time>
      </trkpt>
      <trkpt lat="47.80066" lon="0.46427">
        <ele>107</ele>
        <time>2019-08-05T12:54:22Z</time>
      </trkpt>
      <trkpt lat="47.80062" lon="0.46425">
        <ele>107</ele>
        <time>2019-08-05T12:54:26Z</time>
      </trkpt>
      <trkpt lat="47.80059" lon="0.4642">
        <ele>107</ele>
        <time>2019-08-05T12:54:29Z</time>
      </trkpt>
      <trkpt lat="47.80058" lon="0.46416">
        <ele>105</ele>
        <time>2019-08-05T12:54:31Z</time>
      </trkpt>
      <trkpt lat="47.80056" lon="0.46411">
        <ele>105</ele>
        <time>2019-08-05T12:54:33Z</time>
      </trkpt>
      <trkpt lat="47.80052" lon="0.46404">
        <ele>106</ele>
        <time>2019-08-05T12:54:51Z</time>
      </trkpt>
      <trkpt lat="47.8005" lon="0.46404">
        <ele>105</ele>
        <time>2019-08-05T12:55:00Z</time>
      </trkpt>
      <trkpt lat="47.80047" lon="0.46402">
        <ele>105</ele>
        <time>2019-08-05T12:55:04Z</time>
      </trkpt>
      <trkpt lat="47.80043" lon="0.46402">
        <ele>106</ele>
        <time>2019-08-05T12:55:06Z</time>
      </trkpt>
      <trkpt lat="47.80035" lon="0.46396">
        <ele>105</ele>
        <time>2019-08-05T12:55:10Z</time>
      </trkpt>
      <trkpt lat="47.80026" lon="0.46377">
        <ele>102</ele>
        <time>2019-08-05T12:55:18Z</time>
      </trkpt>
      <trkpt lat="47.80022" lon="0.46368">
        <ele>101</ele>
        <time>2019-08-05T12:55:22Z</time>
      </trkpt>
      <trkpt lat="47.80017" lon="0.46362">
        <ele>100</ele>
        <time>2019-08-05T12:55:27Z</time>
      </trkpt>
      <trkpt lat="47.80014" lon="0.4636">
        <ele>100</ele>
        <time>2019-08-05T12:55:30Z</time>
      </trkpt>
      <trkpt lat="47.80008" lon="0.46354">
        <ele>101</ele>
        <time>2019-08-05T12:55:35Z</time>
      </trkpt>
      <trkpt lat="47.80004" lon="0.46351">
        <ele>100</ele>
        <time>2019-08-05T12:55:38Z</time>
      </trkpt>
      <trkpt lat="47.80001" lon="0.46348">
        <ele>100</ele>
        <time>2019-08-05T12:55:40Z</time>
      </trkpt>
      <trkpt lat="47.80001" lon="0.46344">
        <ele>100</ele>
        <time>2019-08-05T12:55:43Z</time>
      </trkpt>
      <trkpt lat="47.80008" lon="0.46338">
        <ele>97</ele>
        <time>2019-08-05T12:55:48Z</time>
      </trkpt>
      <trkpt lat="47.8001" lon="0.46334">
        <ele>98</ele>
        <time>2019-08-05T12:55:50Z</time>
      </trkpt>
      <trkpt lat="47.80012" lon="0.46332">
        <ele>99</ele>
        <time>2019-08-05T12:55:52Z</time>
      </trkpt>
      <trkpt lat="47.80025" lon="0.46323">
        <ele>101</ele>
        <time>2019-08-05T12:56:02Z</time>
      </trkpt>
      <trkpt lat="47.80034" lon="0.46308">
        <ele>100</ele>
        <time>2019-08-05T12:56:15Z</time>
      </trkpt>
      <trkpt lat="47.80036" lon="0.46303">
        <ele>100</ele>
        <time>2019-08-05T12:56:19Z</time>
      </trkpt>
      <trkpt lat="47.80039" lon="0.463">
        <ele>100</ele>
        <time>2019-08-05T12:56:22Z</time>
      </trkpt>
      <trkpt lat="47.80041" lon="0.46297">
        <ele>99</ele>
        <time>2019-08-05T12:56:25Z</time>
      </trkpt>
      <trkpt lat="47.80043" lon="0.46292">
        <ele>98</ele>
        <time>2019-08-05T12:56:30Z</time>
      </trkpt>
      <trkpt lat="47.80043" lon="0.46285">
        <ele>100</ele>
        <time>2019-08-05T12:56:36Z</time>
      </trkpt>
      <trkpt lat="47.80046" lon="0.4628">
        <ele>103</ele>
        <time>2019-08-05T12:56:41Z</time>
      </trkpt>
      <trkpt lat="47.8005" lon="0.46278">
        <ele>105</ele>
        <time>2019-08-05T12:56:44Z</time>
      </trkpt>
      <trkpt lat="47.80065" lon="0.46265">
        <ele>104</ele>
        <time>2019-08-05T12:56:56Z</time>
      </trkpt>
      <trkpt lat="47.80068" lon="0.46265">
        <ele>106</ele>
        <time>2019-08-05T12:56:59Z</time>
      </trkpt>
      <trkpt lat="47.80071" lon="0.46268">
        <ele>107</ele>
        <time>2019-08-05T12:57:02Z</time>
      </trkpt>
      <trkpt lat="47.80074" lon="0.46265">
        <ele>107</ele>
        <time>2019-08-05T12:57:05Z</time>
      </trkpt>
      <trkpt lat="47.80075" lon="0.46261">
        <ele>107</ele>
        <time>2019-08-05T12:57:07Z</time>
      </trkpt>
      <trkpt lat="47.80077" lon="0.46257">
        <ele>108</ele>
        <time>2019-08-05T12:57:11Z</time>
      </trkpt>
      <trkpt lat="47.80085" lon="0.46251">
        <ele>109</ele>
        <time>2019-08-05T12:57:20Z</time>
      </trkpt>
      <trkpt lat="47.80087" lon="0.46246">
        <ele>111</ele>
        <time>2019-08-05T12:57:24Z</time>
      </trkpt>
      <trkpt lat="47.80096" lon="0.46236">
        <ele>114</ele>
        <time>2019-08-05T12:57:34Z</time>
      </trkpt>
      <trkpt lat="47.80107" lon="0.46232">
        <ele>114</ele>
        <time>2019-08-05T12:57:41Z</time>
      </trkpt>
      <trkpt lat="47.80109" lon="0.46231">
        <ele>113</ele>
        <time>2019-08-05T12:57:43Z</time>
      </trkpt>
      <trkpt lat="47.80112" lon="0.46227">
        <ele>113</ele>
        <time>2019-08-05T12:57:46Z</time>
      </trkpt>
      <trkpt lat="47.80112" lon="0.46222">
        <ele>113</ele>
        <time>2019-08-05T12:57:50Z</time>
      </trkpt>
      <trkpt lat="47.80111" lon="0.46218">
        <ele>113</ele>
        <time>2019-08-05T12:58:00Z</time>
      </trkpt>
      <trkpt lat="47.80109" lon="0.46215">
        <ele>114</ele>
        <time>2019-08-05T12:58:06Z</time>
      </trkpt>
      <trkpt lat="47.80112" lon="0.46213">
        <ele>114</ele>
        <time>2019-08-05T12:58:43Z</time>
      </trkpt>
      <trkpt lat="47.80113" lon="0.46209">
        <ele>115</ele>
        <time>2019-08-05T12:58:55Z</time>
      </trkpt>
      <trkpt lat="47.80113" lon="0.46197">
        <ele>113</ele>
        <time>2019-08-05T12:59:00Z</time>
      </trkpt>
      <trkpt lat="47.80121" lon="0.46187">
        <ele>112</ele>
        <time>2019-08-05T12:59:12Z</time>
      </trkpt>
      <trkpt lat="47.80123" lon="0.46185">
        <ele>112</ele>
        <time>2019-08-05T12:59:17Z</time>
      </trkpt>
      <trkpt lat="47.8013" lon="0.46172">
        <ele>112</ele>
        <time>2019-08-05T12:59:26Z</time>
      </trkpt>
      <trkpt lat="47.80132" lon="0.46168">
        <ele>113</ele>
        <time>2019-08-05T12:59:28Z</time>
      </trkpt>
      <trkpt lat="47.80139" lon="0.46158">
        <ele>115</ele>
        <time>2019-08-05T12:59:37Z</time>
      </trkpt>
      <trkpt lat="47.80142" lon="0.46153">
        <ele>117</ele>
        <time>2019-08-05T12:59:40Z</time>
      </trkpt>
      <trkpt lat="47.80144" lon="0.4615">
        <ele>117</ele>
        <time>2019-08-05T12:59:43Z</time>
      </trkpt>
      <trkpt lat="47.80169" lon="0.46121">
        <ele>121</ele>
        <time>2019-08-05T13:00:13Z</time>
      </trkpt>
      <trkpt lat="47.80175" lon="0.46108">
        <ele>122</ele>
        <time>2019-08-05T13:00:23Z</time>
      </trkpt>
      <trkpt lat="47.80179" lon="0.46101">
        <ele>123</ele>
        <time>2019-08-05T13:00:28Z</time>
      </trkpt>
      <trkpt lat="47.80184" lon="0.46094">
        <ele>122</ele>
        <time>2019-08-05T13:00:34Z</time>
      </trkpt>
      <trkpt lat="47.80205" lon="0.46071">
        <ele>122</ele>
        <time>2019-08-05T13:00:53Z</time>
      </trkpt>
      <trkpt lat="47.80212" lon="0.46066">
        <ele>123</ele>
        <time>2019-08-05T13:00:59Z</time>
      </trkpt>
      <trkpt lat="47.8022" lon="0.46057">
        <ele>121</ele>
        <time>2019-08-05T13:01:08Z</time>
      </trkpt>
      <trkpt lat="47.80222" lon="0.46054">
        <ele>122</ele>
        <time>2019-08-05T13:01:11Z</time>
      </trkpt>
      <trkpt lat="47.80227" lon="0.46048">
        <ele>122</ele>
        <time>2019-08-05T13:01:17Z</time>
      </trkpt>
      <trkpt lat="47.80246" lon="0.46034">
        <ele>134</ele>
        <time>2019-08-05T13:01:36Z</time>
      </trkpt>
      <trkpt lat="47.8025" lon="0.46032">
        <ele>130</ele>
        <time>2019-08-05T13:01:39Z</time>
      </trkpt>
      <trkpt lat="47.80268" lon="0.46005">
        <ele>129</ele>
        <time>2019-08-05T13:02:00Z</time>
      </trkpt>
      <trkpt lat="47.80274" lon="0.46003">
        <ele>129</ele>
        <time>2019-08-05T13:02:04Z</time>
      </trkpt>
      <trkpt lat="47.80279" lon="0.46004">
        <ele>135</ele>
        <time>2019-08-05T13:02:06Z</time>
      </trkpt>
      <trkpt lat="47.80284" lon="0.46">
        <ele>137</ele>
        <time>2019-08-05T13:02:10Z</time>
      </trkpt>
      <trkpt lat="47.80288" lon="0.45997">
        <ele>137</ele>
        <time>2019-08-05T13:02:13Z</time>
      </trkpt>
      <trkpt lat="47.80297" lon="0.45996">
        <ele>138</ele>
        <time>2019-08-05T13:02:18Z</time>
      </trkpt>
      <trkpt lat="47.80303" lon="0.4599">
        <ele>139</ele>
        <time>2019-08-05T13:02:25Z</time>
      </trkpt>
      <trkpt lat="47.80308" lon="0.45981">
        <ele>139</ele>
        <time>2019-08-05T13:02:31Z</time>
      </trkpt>
      <trkpt lat="47.80311" lon="0.45972">
        <ele>139</ele>
        <time>2019-08-05T13:02:35Z</time>
      </trkpt>
      <trkpt lat="47.80338" lon="0.45937">
        <ele>129</ele>
        <time>2019-08-05T13:03:03Z</time>
      </trkpt>
      <trkpt lat="47.80348" lon="0.45928">
        <ele>128</ele>
        <time>2019-08-05T13:03:12Z</time>
      </trkpt>
      <trkpt lat="47.80361" lon="0.45916">
        <ele>127</ele>
        <time>2019-08-05T13:03:24Z</time>
      </trkpt>
      <trkpt lat="47.8037" lon="0.45909">
        <ele>127</ele>
        <time>2019-08-05T13:03:30Z</time>
      </trkpt>
      <trkpt lat="47.80375" lon="0.459">
        <ele>129</ele>
        <time>2019-08-05T13:03:36Z</time>
      </trkpt>
      <trkpt lat="47.80379" lon="0.45898">
        <ele>128</ele>
        <time>2019-08-05T13:03:39Z</time>
      </trkpt>
      <trkpt lat="47.80386" lon="0.4589">
        <ele>128</ele>
        <time>2019-08-05T13:03:45Z</time>
      </trkpt>
      <trkpt lat="47.80405" lon="0.45859">
        <ele>128</ele>
        <time>2019-08-05T13:04:06Z</time>
      </trkpt>
      <trkpt lat="47.80407" lon="0.45855">
        <ele>131</ele>
        <time>2019-08-05T13:04:08Z</time>
      </trkpt>
      <trkpt lat="47.80416" lon="0.45846">
        <ele>126</ele>
        <time>2019-08-05T13:04:16Z</time>
      </trkpt>
      <trkpt lat="47.80437" lon="0.45808">
        <ele>121</ele>
        <time>2019-08-05T13:04:42Z</time>
      </trkpt>
      <trkpt lat="47.8044" lon="0.45805">
        <ele>122</ele>
        <time>2019-08-05T13:04:45Z</time>
      </trkpt>
      <trkpt lat="47.80463" lon="0.45763">
        <ele>125</ele>
        <time>2019-08-05T13:05:13Z</time>
      </trkpt>
      <trkpt lat="47.80468" lon="0.45756">
        <ele>126</ele>
        <time>2019-08-05T13:05:18Z</time>
      </trkpt>
      <trkpt lat="47.80475" lon="0.45742">
        <ele>126</ele>
        <time>2019-08-05T13:05:26Z</time>
      </trkpt>
      <trkpt lat="47.80477" lon="0.45738">
        <ele>126</ele>
        <time>2019-08-05T13:05:28Z</time>
      </trkpt>
      <trkpt lat="47.80478" lon="0.45735">
        <ele>126</ele>
        <time>2019-08-05T13:05:30Z</time>
      </trkpt>
      <trkpt lat="47.80483" lon="0.45727">
        <ele>125</ele>
        <time>2019-08-05T13:05:35Z</time>
      </trkpt>
      <trkpt lat="47.80486" lon="0.45717">
        <ele>125</ele>
        <time>2019-08-05T13:05:40Z</time>
      </trkpt>
      <trkpt lat="47.80507" lon="0.45669">
        <ele>124</ele>
        <time>2019-08-05T13:06:08Z</time>
      </trkpt>
      <trkpt lat="47.80509" lon="0.45659">
        <ele>123</ele>
        <time>2019-08-05T13:06:13Z</time>
      </trkpt>
      <trkpt lat="47.8052" lon="0.45643">
        <ele>122</ele>
        <time>2019-08-05T13:06:25Z</time>
      </trkpt>
      <trkpt lat="47.80522" lon="0.45639">
        <ele>122</ele>
        <time>2019-08-05T13:06:28Z</time>
      </trkpt>
      <trkpt lat="47.80524" lon="0.45636">
        <ele>121</ele>
        <time>2019-08-05T13:06:30Z</time>
      </trkpt>
      <trkpt lat="47.80527" lon="0.45632">
        <ele>120</ele>
        <time>2019-08-05T13:06:33Z</time>
      </trkpt>
      <trkpt lat="47.80557" lon="0.45618">
        <ele>119</ele>
        <time>2019-08-05T13:06:54Z</time>
      </trkpt>
      <trkpt lat="47.80578" lon="0.45614">
        <ele>116</ele>
        <time>2019-08-05T13:07:11Z</time>
      </trkpt>
      <trkpt lat="47.80584" lon="0.4561">
        <ele>117</ele>
        <time>2019-08-05T13:07:17Z</time>
      </trkpt>
      <trkpt lat="47.80588" lon="0.45609">
        <ele>118</ele>
        <time>2019-08-05T13:07:20Z</time>
      </trkpt>
      <trkpt lat="47.80596" lon="0.45602">
        <ele>119</ele>
        <time>2019-08-05T13:07:25Z</time>
      </trkpt>
      <trkpt lat="47.80603" lon="0.45597">
        <ele>120</ele>
        <time>2019-08-05T13:07:31Z</time>
      </trkpt>
      <trkpt lat="47.80608" lon="0.45591">
        <ele>120</ele>
        <time>2019-08-05T13:07:35Z</time>
      </trkpt>
      <trkpt lat="47.80614" lon="0.45587">
        <ele>126</ele>
        <time>2019-08-05T13:07:46Z</time>
      </trkpt>
      <trkpt lat="47.80615" lon="0.45592">
        <ele>126</ele>
        <time>2019-08-05T13:07:48Z</time>
      </trkpt>
      <trkpt lat="47.80616" lon="0.45596">
        <ele>124</ele>
        <time>2019-08-05T13:08:33Z</time>
      </trkpt>
      <trkpt lat="47.80619" lon="0.456">
        <ele>123</ele>
        <time>2019-08-05T13:08:36Z</time>
      </trkpt>
      <trkpt lat="47.8062" lon="0.45607">
        <ele>123</ele>
        <time>2019-08-05T13:08:45Z</time>
      </trkpt>
      <trkpt lat="47.80624" lon="0.45615">
        <ele>123</ele>
        <time>2019-08-05T13:08:48Z</time>
      </trkpt>
      <trkpt lat="47.80627" lon="0.45626">
        <ele>123</ele>
        <time>2019-08-05T13:08:50Z</time>
      </trkpt>
      <trkpt lat="47.80631" lon="0.45636">
        <ele>128</ele>
        <time>2019-08-05T13:09:00Z</time>
      </trkpt>
      <trkpt lat="47.80636" lon="0.45646">
        <ele>127</ele>
        <time>2019-08-05T13:09:04Z</time>
      </trkpt>
      <trkpt lat="47.80643" lon="0.45655">
        <ele>126</ele>
        <time>2019-08-05T13:09:10Z</time>
      </trkpt>
      <trkpt lat="47.80645" lon="0.45657">
        <ele>126</ele>
        <time>2019-08-05T13:09:14Z</time>
      </trkpt>
      <trkpt lat="47.80679" lon="0.45674">
        <ele>130</ele>
        <time>2019-08-05T13:09:42Z</time>
      </trkpt>
      <trkpt lat="47.80695" lon="0.45679">
        <ele>130</ele>
        <time>2019-08-05T13:09:53Z</time>
      </trkpt>
      <trkpt lat="47.80702" lon="0.45678">
        <ele>132</ele>
        <time>2019-08-05T13:10:00Z</time>
      </trkpt>
      <trkpt lat="47.8071" lon="0.45678">
        <ele>134</ele>
        <time>2019-08-05T13:10:06Z</time>
      </trkpt>
      <trkpt lat="47.80716" lon="0.45678">
        <ele>133</ele>
        <time>2019-08-05T13:10:10Z</time>
      </trkpt>
      <trkpt lat="47.80762" lon="0.45679">
        <ele>134</ele>
        <time>2019-08-05T13:10:41Z</time>
      </trkpt>
      <trkpt lat="47.80766" lon="0.45679">
        <ele>134</ele>
        <time>2019-08-05T13:10:45Z</time>
      </trkpt>
      <trkpt lat="47.80769" lon="0.45678">
        <ele>135</ele>
        <time>2019-08-05T13:10:48Z</time>
      </trkpt>
      <trkpt lat="47.80772" lon="0.45675">
        <ele>136</ele>
        <time>2019-08-05T13:10:50Z</time>
      </trkpt>
      <trkpt lat="47.80814" lon="0.4567">
        <ele>139</ele>
        <time>2019-08-05T13:11:20Z</time>
      </trkpt>
      <trkpt lat="47.80818" lon="0.45669">
        <ele>139</ele>
        <time>2019-08-05T13:11:24Z</time>
      </trkpt>
      <trkpt lat="47.80821" lon="0.45669">
        <ele>139</ele>
        <time>2019-08-05T13:11:26Z</time>
      </trkpt>
      <trkpt lat="47.80842" lon="0.45666">
        <ele>137</ele>
        <time>2019-08-05T13:11:41Z</time>
      </trkpt>
      <trkpt lat="47.80846" lon="0.45665">
        <ele>137</ele>
        <time>2019-08-05T13:11:44Z</time>
      </trkpt>
      <trkpt lat="47.80848" lon="0.45662">
        <ele>138</ele>
        <time>2019-08-05T13:11:47Z</time>
      </trkpt>
      <trkpt lat="47.80858" lon="0.45658">
        <ele>139</ele>
        <time>2019-08-05T13:11:55Z</time>
      </trkpt>
      <trkpt lat="47.80905" lon="0.45653">
        <ele>132</ele>
        <time>2019-08-05T13:12:25Z</time>
      </trkpt>
      <trkpt lat="47.80908" lon="0.45652">
        <ele>132</ele>
        <time>2019-08-05T13:12:27Z</time>
      </trkpt>
      <trkpt lat="47.80914" lon="0.45651">
        <ele>131</ele>
        <time>2019-08-05T13:12:31Z</time>
      </trkpt>
      <trkpt lat="47.80924" lon="0.45654">
        <ele>130</ele>
        <time>2019-08-05T13:12:38Z</time>
      </trkpt>
      <trkpt lat="47.80931" lon="0.45659">
        <ele>130</ele>
        <time>2019-08-05T13:12:44Z</time>
      </trkpt>
      <trkpt lat="47.80947" lon="0.45657">
        <ele>129</ele>
        <time>2019-08-05T13:12:56Z</time>
      </trkpt>
      <trkpt lat="47.80968" lon="0.45645">
        <ele>118</ele>
        <time>2019-08-05T13:13:15Z</time>
      </trkpt>
      <trkpt lat="47.80981" lon="0.4564">
        <ele>127</ele>
        <time>2019-08-05T13:13:24Z</time>
      </trkpt>
      <trkpt lat="47.80992" lon="0.45637">
        <ele>127</ele>
        <time>2019-08-05T13:13:34Z</time>
      </trkpt>
      <trkpt lat="47.80996" lon="0.45635">
        <ele>127</ele>
        <time>2019-08-05T13:13:37Z</time>
      </trkpt>
      <trkpt lat="47.81014" lon="0.45629">
        <ele>126</ele>
        <time>2019-08-05T13:13:50Z</time>
      </trkpt>
      <trkpt lat="47.81018" lon="0.45627">
        <ele>127</ele>
        <time>2019-08-05T13:13:53Z</time>
      </trkpt>
      <trkpt lat="47.81032" lon="0.45618">
        <ele>122</ele>
        <time>2019-08-05T13:14:05Z</time>
      </trkpt>
      <trkpt lat="47.81045" lon="0.45602">
        <ele>122</ele>
        <time>2019-08-05T13:14:18Z</time>
      </trkpt>
      <trkpt lat="47.81047" lon="0.45598">
        <ele>122</ele>
        <time>2019-08-05T13:14:21Z</time>
      </trkpt>
      <trkpt lat="47.81053" lon="0.45591">
        <ele>123</ele>
        <time>2019-08-05T13:14:28Z</time>
      </trkpt>
      <trkpt lat="47.81065" lon="0.45562">
        <ele>128</ele>
        <time>2019-08-05T13:14:45Z</time>
      </trkpt>
      <trkpt lat="47.81079" lon="0.45542">
        <ele>131</ele>
        <time>2019-08-05T13:14:58Z</time>
      </trkpt>
      <trkpt lat="47.81092" lon="0.45527">
        <ele>129</ele>
        <time>2019-08-05T13:15:16Z</time>
      </trkpt>
      <trkpt lat="47.81095" lon="0.45524">
        <ele>119</ele>
        <time>2019-08-05T13:15:19Z</time>
      </trkpt>
      <trkpt lat="47.81108" lon="0.45503">
        <ele>112</ele>
        <time>2019-08-05T13:15:40Z</time>
      </trkpt>
      <trkpt lat="47.81112" lon="0.45501">
        <ele>112</ele>
        <time>2019-08-05T13:15:43Z</time>
      </trkpt>
      <trkpt lat="47.81115" lon="0.45498">
        <ele>112</ele>
        <time>2019-08-05T13:15:46Z</time>
      </trkpt>
      <trkpt lat="47.81117" lon="0.45495">
        <ele>112</ele>
        <time>2019-08-05T13:15:48Z</time>
      </trkpt>
      <trkpt lat="47.8112" lon="0.45493">
        <ele>112</ele>
        <time>2019-08-05T13:15:50Z</time>
      </trkpt>
      <trkpt lat="47.81125" lon="0.45486">
        <ele>113</ele>
        <time>2019-08-05T13:15:56Z</time>
      </trkpt>
      <trkpt lat="47.81138" lon="0.45471">
        <ele>113</ele>
        <time>2019-08-05T13:16:13Z</time>
      </trkpt>
      <trkpt lat="47.81144" lon="0.45465">
        <ele>109</ele>
        <time>2019-08-05T13:16:17Z</time>
      </trkpt>
      <trkpt lat="47.81147" lon="0.45461">
        <ele>108</ele>
        <time>2019-08-05T13:16:19Z</time>
      </trkpt>
      <trkpt lat="47.81151" lon="0.45455">
        <ele>108</ele>
        <time>2019-08-05T13:16:21Z</time>
      </trkpt>
      <trkpt lat="47.81171" lon="0.45435">
        <ele>108</ele>
        <time>2019-08-05T13:16:42Z</time>
      </trkpt>
      <trkpt lat="47.8118" lon="0.45434">
        <ele>106</ele>
        <time>2019-08-05T13:16:59Z</time>
      </trkpt>
      <trkpt lat="47.81187" lon="0.45447">
        <ele>106</ele>
        <time>2019-08-05T13:17:19Z</time>
      </trkpt>
      <trkpt lat="47.81191" lon="0.45448">
        <ele>106</ele>
        <time>2019-08-05T13:17:22Z</time>
      </trkpt>
      <trkpt lat="47.81206" lon="0.4544">
        <ele>109</ele>
        <time>2019-08-05T13:17:42Z</time>
      </trkpt>
      <trkpt lat="47.81214" lon="0.45431">
        <ele>109</ele>
        <time>2019-08-05T13:17:52Z</time>
      </trkpt>
      <trkpt lat="47.81221" lon="0.45424">
        <ele>109</ele>
        <time>2019-08-05T13:17:57Z</time>
      </trkpt>
      <trkpt lat="47.81226" lon="0.45417">
        <ele>111</ele>
        <time>2019-08-05T13:18:02Z</time>
      </trkpt>
      <trkpt lat="47.81229" lon="0.45413">
        <ele>110</ele>
        <time>2019-08-05T13:18:05Z</time>
      </trkpt>
      <trkpt lat="47.81231" lon="0.45411">
        <ele>110</ele>
        <time>2019-08-05T13:18:10Z</time>
      </trkpt>
      <trkpt lat="47.81235" lon="0.45412">
        <ele>110</ele>
        <time>2019-08-05T13:18:18Z</time>
      </trkpt>
      <trkpt lat="47.81249" lon="0.45427">
        <ele>111</ele>
        <time>2019-08-05T13:18:35Z</time>
      </trkpt>
      <trkpt lat="47.81251" lon="0.4543">
        <ele>111</ele>
        <time>2019-08-05T13:18:37Z</time>
      </trkpt>
      <trkpt lat="47.81273" lon="0.45455">
        <ele>112</ele>
        <time>2019-08-05T13:18:56Z</time>
      </trkpt>
      <trkpt lat="47.81276" lon="0.45457">
        <ele>112</ele>
        <time>2019-08-05T13:18:58Z</time>
      </trkpt>
      <trkpt lat="47.81279" lon="0.45459">
        <ele>111</ele>
        <time>2019-08-05T13:19:06Z</time>
      </trkpt>
      <trkpt lat="47.81295" lon="0.45486">
        <ele>116</ele>
        <time>2019-08-05T13:19:24Z</time>
      </trkpt>
      <trkpt lat="47.81297" lon="0.45489">
        <ele>116</ele>
        <time>2019-08-05T13:19:26Z</time>
      </trkpt>
      <trkpt lat="47.81301" lon="0.45494">
        <ele>115</ele>
        <time>2019-08-05T13:19:29Z</time>
      </trkpt>
      <trkpt lat="47.81308" lon="0.45501">
        <ele>116</ele>
        <time>2019-08-05T13:19:33Z</time>
      </trkpt>
      <trkpt lat="47.8132" lon="0.45525">
        <ele>117</ele>
        <time>2019-08-05T13:19:46Z</time>
      </trkpt>
      <trkpt lat="47.8132" lon="0.45529">
        <ele>117</ele>
        <time>2019-08-05T13:19:50Z</time>
      </trkpt>
      <trkpt lat="47.81323" lon="0.45531">
        <ele>117</ele>
        <time>2019-08-05T13:19:55Z</time>
      </trkpt>
      <trkpt lat="47.81334" lon="0.4554">
        <ele>120</ele>
        <time>2019-08-05T13:20:04Z</time>
      </trkpt>
      <trkpt lat="47.8134" lon="0.45547">
        <ele>120</ele>
        <time>2019-08-05T13:20:09Z</time>
      </trkpt>
      <trkpt lat="47.81345" lon="0.45555">
        <ele>120</ele>
        <time>2019-08-05T13:20:13Z</time>
      </trkpt>
      <trkpt lat="47.81347" lon="0.45559">
        <ele>120</ele>
        <time>2019-08-05T13:20:15Z</time>
      </trkpt>
      <trkpt lat="47.81359" lon="0.45573">
        <ele>121</ele>
        <time>2019-08-05T13:20:25Z</time>
      </trkpt>
      <trkpt lat="47.81361" lon="0.45576">
        <ele>121</ele>
        <time>2019-08-05T13:20:27Z</time>
      </trkpt>
      <trkpt lat="47.81363" lon="0.45579">
        <ele>121</ele>
        <time>2019-08-05T13:20:29Z</time>
      </trkpt>
      <trkpt lat="47.81365" lon="0.45584">
        <ele>121</ele>
        <time>2019-08-05T13:20:32Z</time>
      </trkpt>
      <trkpt lat="47.81367" lon="0.45588">
        <ele>120</ele>
        <time>2019-08-05T13:20:35Z</time>
      </trkpt>
      <trkpt lat="47.81395" lon="0.45621">
        <ele>118</ele>
        <time>2019-08-05T13:21:02Z</time>
      </trkpt>
      <trkpt lat="47.81409" lon="0.45635">
        <ele>119</ele>
        <time>2019-08-05T13:21:19Z</time>
      </trkpt>
      <trkpt lat="47.81421" lon="0.45647">
        <ele>119</ele>
        <time>2019-08-05T13:21:28Z</time>
      </trkpt>
      <trkpt lat="47.81433" lon="0.45656">
        <ele>122</ele>
        <time>2019-08-05T13:21:39Z</time>
      </trkpt>
      <trkpt lat="47.8145" lon="0.45675">
        <ele>119</ele>
        <time>2019-08-05T13:21:54Z</time>
      </trkpt>
      <trkpt lat="47.81456" lon="0.45681">
        <ele>119</ele>
        <time>2019-08-05T13:21:59Z</time>
      </trkpt>
      <trkpt lat="47.81468" lon="0.45692">
        <ele>119</ele>
        <time>2019-08-05T13:22:10Z</time>
      </trkpt>
      <trkpt lat="47.81471" lon="0.45695">
        <ele>119</ele>
        <time>2019-08-05T13:22:15Z</time>
      </trkpt>
      <trkpt lat="47.81477" lon="0.45701">
        <ele>117</ele>
        <time>2019-08-05T13:22:19Z</time>
      </trkpt>
      <trkpt lat="47.81513" lon="0.45738">
        <ele>119</ele>
        <time>2019-08-05T13:22:51Z</time>
      </trkpt>
      <trkpt lat="47.81523" lon="0.45746">
        <ele>119</ele>
        <time>2019-08-05T13:23:01Z</time>
      </trkpt>
      <trkpt lat="47.81527" lon="0.45749">
        <ele>119</ele>
        <time>2019-08-05T13:23:03Z</time>
      </trkpt>
      <trkpt lat="47.81538" lon="0.45759">
        <ele>120</ele>
        <time>2019-08-05T13:23:12Z</time>
      </trkpt>
      <trkpt lat="47.81541" lon="0.45763">
        <ele>120</ele>
        <time>2019-08-05T13:23:15Z</time>
      </trkpt>
      <trkpt lat="47.81545" lon="0.45766">
        <ele>120</ele>
        <time>2019-08-05T13:23:18Z</time>
      </trkpt>
      <trkpt lat="47.81551" lon="0.45771">
        <ele>118</ele>
        <time>2019-08-05T13:23:23Z</time>
      </trkpt>
      <trkpt lat="47.81554" lon="0.45773">
        <ele>118</ele>
        <time>2019-08-05T13:23:25Z</time>
      </trkpt>
      <trkpt lat="47.8156" lon="0.45775">
        <ele>117</ele>
        <time>2019-08-05T13:23:30Z</time>
      </trkpt>
      <trkpt lat="47.81564" lon="0.45773">
        <ele>116</ele>
        <time>2019-08-05T13:23:33Z</time>
      </trkpt>
      <trkpt lat="47.81567" lon="0.45769">
        <ele>115</ele>
        <time>2019-08-05T13:23:36Z</time>
      </trkpt>
      <trkpt lat="47.8157" lon="0.4576">
        <ele>116</ele>
        <time>2019-08-05T13:23:43Z</time>
      </trkpt>
      <trkpt lat="47.81572" lon="0.45756">
        <ele>116</ele>
        <time>2019-08-05T13:23:46Z</time>
      </trkpt>
      <trkpt lat="47.81577" lon="0.45741">
        <ele>118</ele>
        <time>2019-08-05T13:23:54Z</time>
      </trkpt>
      <trkpt lat="47.81578" lon="0.45736">
        <ele>118</ele>
        <time>2019-08-05T13:23:57Z</time>
      </trkpt>
      <trkpt lat="47.81579" lon="0.4573">
        <ele>119</ele>
        <time>2019-08-05T13:24:00Z</time>
      </trkpt>
      <trkpt lat="47.81581" lon="0.45719">
        <ele>119</ele>
        <time>2019-08-05T13:24:06Z</time>
      </trkpt>
      <trkpt lat="47.81585" lon="0.45709">
        <ele>120</ele>
        <time>2019-08-05T13:24:12Z</time>
      </trkpt>
      <trkpt lat="47.81604" lon="0.45663">
        <ele>122</ele>
        <time>2019-08-05T13:24:43Z</time>
      </trkpt>
      <trkpt lat="47.81606" lon="0.45658">
        <ele>122</ele>
        <time>2019-08-05T13:24:46Z</time>
      </trkpt>
      <trkpt lat="47.81606" lon="0.45653">
        <ele>135.2</ele>
      </trkpt>
      <trkpt lat="47.81652" lon="0.4556">
        <ele>138.4</ele>
      </trkpt>
      <trkpt lat="47.81661" lon="0.45555">
        <ele>138.2</ele>
      </trkpt>
      <trkpt lat="47.81669" lon="0.45554">
        <ele>108</ele>
        <time>2019-08-05T13:26:20Z</time>
      </trkpt>
      <trkpt lat="47.81676" lon="0.45555">
        <ele>137.3</ele>
      </trkpt>
      <trkpt lat="47.8169" lon="0.45552">
        <ele>111</ele>
        <time>2019-08-05T13:26:37Z</time>
      </trkpt>
      <trkpt lat="47.81702" lon="0.45554">
        <ele>112</ele>
        <time>2019-08-05T13:26:46Z</time>
      </trkpt>
      <trkpt lat="47.81708" lon="0.45553">
        <ele>113</ele>
        <time>2019-08-05T13:26:51Z</time>
      </trkpt>
      <trkpt lat="47.8171" lon="0.45555">
        <ele>115</ele>
        <time>2019-08-05T13:26:55Z</time>
      </trkpt>
      <trkpt lat="47.81716" lon="0.45569">
        <ele>130</ele>
        <time>2019-08-05T13:27:04Z</time>
      </trkpt>
      <trkpt lat="47.81715" lon="0.45573">
        <ele>130</ele>
        <time>2019-08-05T13:27:07Z</time>
      </trkpt>
      <trkpt lat="47.81721" lon="0.45589">
        <ele>127</ele>
        <time>2019-08-05T13:27:16Z</time>
      </trkpt>
      <trkpt lat="47.81725" lon="0.45599">
        <ele>130</ele>
        <time>2019-08-05T13:27:20Z</time>
      </trkpt>
      <trkpt lat="47.81735" lon="0.45636">
        <ele>120</ele>
        <time>2019-08-05T13:27:38Z</time>
      </trkpt>
      <trkpt lat="47.81735" lon="0.45642">
        <ele>121</ele>
        <time>2019-08-05T13:27:41Z</time>
      </trkpt>
      <trkpt lat="47.81736" lon="0.45648">
        <ele>121</ele>
        <time>2019-08-05T13:27:44Z</time>
      </trkpt>
      <trkpt lat="47.81738" lon="0.45658">
        <ele>122</ele>
        <time>2019-08-05T13:27:50Z</time>
      </trkpt>
      <trkpt lat="47.81744" lon="0.45673">
        <ele>123</ele>
        <time>2019-08-05T13:27:58Z</time>
      </trkpt>
      <trkpt lat="47.81749" lon="0.45682">
        <ele>122</ele>
        <time>2019-08-05T13:28:02Z</time>
      </trkpt>
      <trkpt lat="47.81755" lon="0.45686">
        <ele>123</ele>
        <time>2019-08-05T13:28:06Z</time>
      </trkpt>
      <trkpt lat="47.81763" lon="0.45685">
        <ele>122</ele>
        <time>2019-08-05T13:28:10Z</time>
      </trkpt>
      <trkpt lat="47.81768" lon="0.45679">
        <ele>122</ele>
        <time>2019-08-05T13:28:14Z</time>
      </trkpt>
      <trkpt lat="47.81774" lon="0.45667">
        <ele>123</ele>
        <time>2019-08-05T13:28:22Z</time>
      </trkpt>
      <trkpt lat="47.81776" lon="0.45664">
        <ele>128</ele>
        <time>2019-08-05T13:28:25Z</time>
      </trkpt>
      <trkpt lat="47.81779" lon="0.45661">
        <ele>126</ele>
        <time>2019-08-05T13:28:29Z</time>
      </trkpt>
      <trkpt lat="47.81781" lon="0.45657">
        <ele>124</ele>
        <time>2019-08-05T13:28:32Z</time>
      </trkpt>
      <trkpt lat="47.81781" lon="0.45651">
        <ele>123</ele>
        <time>2019-08-05T13:28:35Z</time>
      </trkpt>
      <trkpt lat="47.81784" lon="0.45642">
        <ele>121</ele>
        <time>2019-08-05T13:28:39Z</time>
      </trkpt>
      <trkpt lat="47.81788" lon="0.45632">
        <ele>122</ele>
        <time>2019-08-05T13:28:43Z</time>
      </trkpt>
      <trkpt lat="47.81789" lon="0.45626">
        <ele>127</ele>
        <time>2019-08-05T13:28:46Z</time>
      </trkpt>
      <trkpt lat="47.81796" lon="0.45609">
        <ele>121</ele>
        <time>2019-08-05T13:28:58Z</time>
      </trkpt>
      <trkpt lat="47.81797" lon="0.45603">
        <ele>119</ele>
        <time>2019-08-05T13:29:01Z</time>
      </trkpt>
      <trkpt lat="47.81799" lon="0.45597">
        <ele>119</ele>
        <time>2019-08-05T13:29:04Z</time>
      </trkpt>
      <trkpt lat="47.81823" lon="0.45543">
        <ele>117</ele>
        <time>2019-08-05T13:29:35Z</time>
      </trkpt>
      <trkpt lat="47.81844" lon="0.45496">
        <ele>119</ele>
        <time>2019-08-05T13:30:05Z</time>
      </trkpt>
      <trkpt lat="47.81846" lon="0.45492">
        <ele>118</ele>
        <time>2019-08-05T13:30:08Z</time>
      </trkpt>
      <trkpt lat="47.81851" lon="0.45483">
        <ele>115</ele>
        <time>2019-08-05T13:30:14Z</time>
      </trkpt>
      <trkpt lat="47.81853" lon="0.45475">
        <ele>115</ele>
        <time>2019-08-05T13:30:21Z</time>
      </trkpt>
      <trkpt lat="47.81823" lon="0.45438">
        <ele>115</ele>
        <time>2019-08-05T13:30:51Z</time>
      </trkpt>
      <trkpt lat="47.81821" lon="0.45435">
        <ele>115</ele>
        <time>2019-08-05T13:30:53Z</time>
      </trkpt>
      <trkpt lat="47.81811" lon="0.45422">
        <ele>116</ele>
        <time>2019-08-05T13:31:02Z</time>
      </trkpt>
      <trkpt lat="47.81801" lon="0.45408">
        <ele>116</ele>
        <time>2019-08-05T13:31:12Z</time>
      </trkpt>
      <trkpt lat="47.81796" lon="0.45403">
        <ele>116</ele>
        <time>2019-08-05T13:31:17Z</time>
      </trkpt>
      <trkpt lat="47.81791" lon="0.45385">
        <ele>117</ele>
        <time>2019-08-05T13:31:25Z</time>
      </trkpt>
      <trkpt lat="47.8179" lon="0.45355">
        <ele>117</ele>
        <time>2019-08-05T13:31:39Z</time>
      </trkpt>
      <trkpt lat="47.81791" lon="0.45349">
        <ele>117</ele>
        <time>2019-08-05T13:31:42Z</time>
      </trkpt>
      <trkpt lat="47.81792" lon="0.45344">
        <ele>117</ele>
        <time>2019-08-05T13:31:45Z</time>
      </trkpt>
      <trkpt lat="47.81794" lon="0.45339">
        <ele>117</ele>
        <time>2019-08-05T13:31:48Z</time>
      </trkpt>
      <trkpt lat="47.81806" lon="0.45316">
        <ele>127</ele>
        <time>2019-08-05T13:32:02Z</time>
      </trkpt>
      <trkpt lat="47.81811" lon="0.45307">
        <ele>128</ele>
        <time>2019-08-05T13:32:08Z</time>
      </trkpt>
      <trkpt lat="47.81815" lon="0.45297">
        <ele>127</ele>
        <time>2019-08-05T13:32:14Z</time>
      </trkpt>
      <trkpt lat="47.81818" lon="0.45292">
        <ele>124</ele>
        <time>2019-08-05T13:32:17Z</time>
      </trkpt>
      <trkpt lat="47.8183" lon="0.45264">
        <ele>129</ele>
        <time>2019-08-05T13:32:34Z</time>
      </trkpt>
      <trkpt lat="47.81837" lon="0.4524">
        <ele>129</ele>
        <time>2019-08-05T13:32:46Z</time>
      </trkpt>
      <trkpt lat="47.81838" lon="0.45203">
        <ele>126</ele>
        <time>2019-08-05T13:33:06Z</time>
      </trkpt>
      <trkpt lat="47.81839" lon="0.45197">
        <ele>126</ele>
        <time>2019-08-05T13:33:09Z</time>
      </trkpt>
      <trkpt lat="47.81838" lon="0.45192">
        <ele>126</ele>
        <time>2019-08-05T13:33:11Z</time>
      </trkpt>
      <trkpt lat="47.81835" lon="0.45177">
        <ele>125</ele>
        <time>2019-08-05T13:33:18Z</time>
      </trkpt>
      <trkpt lat="47.81834" lon="0.45171">
        <ele>124</ele>
        <time>2019-08-05T13:33:21Z</time>
      </trkpt>
      <trkpt lat="47.81831" lon="0.45148">
        <ele>123</ele>
        <time>2019-08-05T13:33:33Z</time>
      </trkpt>
      <trkpt lat="47.81831" lon="0.45142">
        <ele>123</ele>
        <time>2019-08-05T13:33:36Z</time>
      </trkpt>
      <trkpt lat="47.81834" lon="0.45133">
        <ele>122</ele>
        <time>2019-08-05T13:33:42Z</time>
      </trkpt>
      <trkpt lat="47.81836" lon="0.45128">
        <ele>122</ele>
        <time>2019-08-05T13:33:45Z</time>
      </trkpt>
      <trkpt lat="47.81842" lon="0.45114">
        <ele>120</ele>
        <time>2019-08-05T13:33:55Z</time>
      </trkpt>
      <trkpt lat="47.81853" lon="0.45093">
        <ele>123</ele>
        <time>2019-08-05T13:34:08Z</time>
      </trkpt>
      <trkpt lat="47.81856" lon="0.4508">
        <ele>122</ele>
        <time>2019-08-05T13:34:14Z</time>
      </trkpt>
      <trkpt lat="47.8186" lon="0.45072">
        <ele>122</ele>
        <time>2019-08-05T13:34:19Z</time>
      </trkpt>
      <trkpt lat="47.81862" lon="0.45069">
        <ele>123</ele>
        <time>2019-08-05T13:34:21Z</time>
      </trkpt>
      <trkpt lat="47.81865" lon="0.4506">
        <ele>129</ele>
        <time>2019-08-05T13:34:27Z</time>
      </trkpt>
      <trkpt lat="47.81873" lon="0.45036">
        <ele>127</ele>
        <time>2019-08-05T13:34:39Z</time>
      </trkpt>
      <trkpt lat="47.81876" lon="0.45026">
        <ele>127</ele>
        <time>2019-08-05T13:34:45Z</time>
      </trkpt>
      <trkpt lat="47.81878" lon="0.45022">
        <ele>127</ele>
        <time>2019-08-05T13:34:48Z</time>
      </trkpt>
      <trkpt lat="47.81885" lon="0.45005">
        <ele>128</ele>
        <time>2019-08-05T13:35:00Z</time>
      </trkpt>
      <trkpt lat="47.81886" lon="0.45">
        <ele>128</ele>
        <time>2019-08-05T13:35:03Z</time>
      </trkpt>
      <trkpt lat="47.81902" lon="0.44969">
        <ele>130</ele>
        <time>2019-08-05T13:35:23Z</time>
      </trkpt>
      <trkpt lat="47.81904" lon="0.44964">
        <ele>126</ele>
        <time>2019-08-05T13:35:26Z</time>
      </trkpt>
      <trkpt lat="47.81916" lon="0.44943">
        <ele>125</ele>
        <time>2019-08-05T13:35:41Z</time>
      </trkpt>
      <trkpt lat="47.81918" lon="0.44938">
        <ele>125</ele>
        <time>2019-08-05T13:35:44Z</time>
      </trkpt>
      <trkpt lat="47.8192" lon="0.44935">
        <ele>125</ele>
        <time>2019-08-05T13:35:46Z</time>
      </trkpt>
      <trkpt lat="47.81927" lon="0.44924">
        <ele>125</ele>
        <time>2019-08-05T13:35:54Z</time>
      </trkpt>
      <trkpt lat="47.81933" lon="0.44916">
        <ele>126</ele>
        <time>2019-08-05T13:36:00Z</time>
      </trkpt>
      <trkpt lat="47.81944" lon="0.44906">
        <ele>127</ele>
        <time>2019-08-05T13:36:08Z</time>
      </trkpt>
      <trkpt lat="47.81953" lon="0.44877">
        <ele>125</ele>
        <time>2019-08-05T13:36:26Z</time>
      </trkpt>
      <trkpt lat="47.81958" lon="0.44857">
        <ele>135</ele>
        <time>2019-08-05T13:36:42Z</time>
      </trkpt>
      <trkpt lat="47.81962" lon="0.44851">
        <ele>120</ele>
        <time>2019-08-05T13:36:46Z</time>
      </trkpt>
      <trkpt lat="47.8197" lon="0.44833">
        <ele>120</ele>
        <time>2019-08-05T13:36:53Z</time>
      </trkpt>
      <trkpt lat="47.81974" lon="0.44824">
        <ele>123</ele>
        <time>2019-08-05T13:36:57Z</time>
      </trkpt>
      <trkpt lat="47.81983" lon="0.448">
        <ele>126</ele>
        <time>2019-08-05T13:37:11Z</time>
      </trkpt>
      <trkpt lat="47.81994" lon="0.44778">
        <ele>124</ele>
        <time>2019-08-05T13:37:25Z</time>
      </trkpt>
      <trkpt lat="47.82003" lon="0.44759">
        <ele>130</ele>
        <time>2019-08-05T13:37:37Z</time>
      </trkpt>
      <trkpt lat="47.82009" lon="0.44752">
        <ele>132</ele>
        <time>2019-08-05T13:37:43Z</time>
      </trkpt>
      <trkpt lat="47.82012" lon="0.44748">
        <ele>131</ele>
        <time>2019-08-05T13:37:46Z</time>
      </trkpt>
      <trkpt lat="47.82014" lon="0.44742">
        <ele>128</ele>
        <time>2019-08-05T13:37:49Z</time>
      </trkpt>
      <trkpt lat="47.82016" lon="0.44738">
        <ele>126</ele>
        <time>2019-08-05T13:37:51Z</time>
      </trkpt>
      <trkpt lat="47.82019" lon="0.44729">
        <ele>123</ele>
        <time>2019-08-05T13:37:56Z</time>
      </trkpt>
      <trkpt lat="47.82021" lon="0.44724">
        <ele>122</ele>
        <time>2019-08-05T13:37:59Z</time>
      </trkpt>
      <trkpt lat="47.82024" lon="0.44719">
        <ele>122</ele>
        <time>2019-08-05T13:38:02Z</time>
      </trkpt>
      <trkpt lat="47.82025" lon="0.44709">
        <ele>121</ele>
        <time>2019-08-05T13:38:08Z</time>
      </trkpt>
      <trkpt lat="47.82029" lon="0.447">
        <ele>120</ele>
        <time>2019-08-05T13:38:14Z</time>
      </trkpt>
      <trkpt lat="47.8203" lon="0.4469">
        <ele>121</ele>
        <time>2019-08-05T13:38:19Z</time>
      </trkpt>
      <trkpt lat="47.82047" lon="0.44655">
        <ele>118</ele>
        <time>2019-08-05T13:38:42Z</time>
      </trkpt>
      <trkpt lat="47.82049" lon="0.44651">
        <ele>118</ele>
        <time>2019-08-05T13:38:45Z</time>
      </trkpt>
      <trkpt lat="47.82053" lon="0.44643">
        <ele>119</ele>
        <time>2019-08-05T13:38:50Z</time>
      </trkpt>
      <trkpt lat="47.82069" lon="0.44616">
        <ele>121</ele>
        <time>2019-08-05T13:39:10Z</time>
      </trkpt>
      <trkpt lat="47.82079" lon="0.44606">
        <ele>122</ele>
        <time>2019-08-05T13:39:20Z</time>
      </trkpt>
      <trkpt lat="47.82082" lon="0.44601">
        <ele>122</ele>
        <time>2019-08-05T13:39:23Z</time>
      </trkpt>
      <trkpt lat="47.82087" lon="0.44595">
        <ele>123</ele>
        <time>2019-08-05T13:39:27Z</time>
      </trkpt>
      <trkpt lat="47.82102" lon="0.44586">
        <ele>123</ele>
        <time>2019-08-05T13:39:37Z</time>
      </trkpt>
      <trkpt lat="47.82107" lon="0.44581">
        <ele>124</ele>
        <time>2019-08-05T13:39:41Z</time>
      </trkpt>
      <trkpt lat="47.82111" lon="0.44573">
        <ele>125</ele>
        <time>2019-08-05T13:39:47Z</time>
      </trkpt>
      <trkpt lat="47.82113" lon="0.44568">
        <ele>125</ele>
        <time>2019-08-05T13:39:50Z</time>
      </trkpt>
      <trkpt lat="47.82116" lon="0.44558">
        <ele>124</ele>
        <time>2019-08-05T13:39:56Z</time>
      </trkpt>
      <trkpt lat="47.82118" lon="0.44553">
        <ele>124</ele>
        <time>2019-08-05T13:39:59Z</time>
      </trkpt>
      <trkpt lat="47.8212" lon="0.44549">
        <ele>124</ele>
        <time>2019-08-05T13:40:02Z</time>
      </trkpt>
      <trkpt lat="47.82131" lon="0.44523">
        <ele>124</ele>
        <time>2019-08-05T13:40:19Z</time>
      </trkpt>
      <trkpt lat="47.82147" lon="0.44497">
        <ele>127</ele>
        <time>2019-08-05T13:40:41Z</time>
      </trkpt>
      <trkpt lat="47.82151" lon="0.44495">
        <ele>127</ele>
        <time>2019-08-05T13:40:43Z</time>
      </trkpt>
      <trkpt lat="47.82154" lon="0.44487">
        <ele>127</ele>
        <time>2019-08-05T13:40:46Z</time>
      </trkpt>
      <trkpt lat="47.82168" lon="0.44456">
        <ele>124</ele>
        <time>2019-08-05T13:41:03Z</time>
      </trkpt>
      <trkpt lat="47.82175" lon="0.44446">
        <ele>125</ele>
        <time>2019-08-05T13:41:09Z</time>
      </trkpt>
      <trkpt lat="47.82183" lon="0.44427">
        <ele>123</ele>
        <time>2019-08-05T13:41:22Z</time>
      </trkpt>
      <trkpt lat="47.82187" lon="0.44411">
        <ele>126</ele>
        <time>2019-08-05T13:41:31Z</time>
      </trkpt>
      <trkpt lat="47.82198" lon="0.4439">
        <ele>125</ele>
        <time>2019-08-05T13:41:45Z</time>
      </trkpt>
      <trkpt lat="47.82201" lon="0.44387">
        <ele>125</ele>
        <time>2019-08-05T13:41:48Z</time>
      </trkpt>
      <trkpt lat="47.82203" lon="0.44384">
        <ele>126</ele>
        <time>2019-08-05T13:41:50Z</time>
      </trkpt>
      <trkpt lat="47.82207" lon="0.4438">
        <ele>127</ele>
        <time>2019-08-05T13:41:53Z</time>
      </trkpt>
      <trkpt lat="47.82219" lon="0.44361">
        <ele>125</ele>
        <time>2019-08-05T13:42:08Z</time>
      </trkpt>
      <trkpt lat="47.82222" lon="0.44357">
        <ele>125</ele>
        <time>2019-08-05T13:42:11Z</time>
      </trkpt>
      <trkpt lat="47.82227" lon="0.44351">
        <ele>125</ele>
        <time>2019-08-05T13:42:15Z</time>
      </trkpt>
      <trkpt lat="47.82229" lon="0.44346">
        <ele>126</ele>
        <time>2019-08-05T13:42:17Z</time>
      </trkpt>
      <trkpt lat="47.82233" lon="0.44341">
        <ele>127</ele>
        <time>2019-08-05T13:42:21Z</time>
      </trkpt>
      <trkpt lat="47.82241" lon="0.44328">
        <ele>127</ele>
        <time>2019-08-05T13:42:28Z</time>
      </trkpt>
      <trkpt lat="47.82252" lon="0.44312">
        <ele>126</ele>
        <time>2019-08-05T13:42:33Z</time>
      </trkpt>
      <trkpt lat="47.82274" lon="0.44278">
        <ele>129.8</ele>
      </trkpt>
      <trkpt lat="47.82287" lon="0.44258">
        <ele>129.7</ele>
      </trkpt>
      <trkpt lat="47.8232" lon="0.44204">
        <ele>127</ele>
      </trkpt>
      <trkpt lat="47.82343" lon="0.44176">
        <ele>126</ele>
      </trkpt>
      <trkpt lat="47.82353" lon="0.44166">
        <ele>125.6</ele>
      </trkpt>
      <trkpt lat="47.82359" lon="0.4416">
        <ele>125.2</ele>
      </trkpt>
      <trkpt lat="47.82364" lon="0.44155">
        <ele>124.7</ele>
      </trkpt>
      <trkpt lat="47.82372" lon="0.44148">
        <ele>110</ele>
        <time>2019-08-05T13:44:48Z</time>
      </trkpt>
      <trkpt lat="47.82377" lon="0.44141">
        <ele>110</ele>
        <time>2019-08-05T13:44:53Z</time>
      </trkpt>
      <trkpt lat="47.82383" lon="0.44135">
        <ele>111</ele>
        <time>2019-08-05T13:44:57Z</time>
      </trkpt>
      <trkpt lat="47.82386" lon="0.44131">
        <ele>111</ele>
        <time>2019-08-05T13:45:00Z</time>
      </trkpt>
      <trkpt lat="47.82388" lon="0.44126">
        <ele>111</ele>
        <time>2019-08-05T13:45:03Z</time>
      </trkpt>
      <trkpt lat="47.82413" lon="0.441">
        <ele>112</ele>
        <time>2019-08-05T13:45:27Z</time>
      </trkpt>
      <trkpt lat="47.82415" lon="0.44097">
        <ele>112</ele>
        <time>2019-08-05T13:45:29Z</time>
      </trkpt>
      <trkpt lat="47.82423" lon="0.44085">
        <ele>110</ele>
        <time>2019-08-05T13:45:37Z</time>
      </trkpt>
      <trkpt lat="47.82439" lon="0.44064">
        <ele>108</ele>
        <time>2019-08-05T13:45:52Z</time>
      </trkpt>
      <trkpt lat="47.82441" lon="0.44061">
        <ele>108</ele>
        <time>2019-08-05T13:45:54Z</time>
      </trkpt>
      <trkpt lat="47.82443" lon="0.44056">
        <ele>108</ele>
        <time>2019-08-05T13:45:57Z</time>
      </trkpt>
      <trkpt lat="47.82447" lon="0.44054">
        <ele>107</ele>
        <time>2019-08-05T13:46:01Z</time>
      </trkpt>
      <trkpt lat="47.82459" lon="0.44034">
        <ele>109</ele>
        <time>2019-08-05T13:46:14Z</time>
      </trkpt>
      <trkpt lat="47.82464" lon="0.44027">
        <ele>110</ele>
        <time>2019-08-05T13:46:19Z</time>
      </trkpt>
      <trkpt lat="47.82475" lon="0.44012">
        <ele>113</ele>
        <time>2019-08-05T13:46:30Z</time>
      </trkpt>
      <trkpt lat="47.82475" lon="0.43999">
        <ele>113</ele>
        <time>2019-08-05T13:46:37Z</time>
      </trkpt>
      <trkpt lat="47.82476" lon="0.43984">
        <ele>113</ele>
        <time>2019-08-05T13:46:43Z</time>
      </trkpt>
      <trkpt lat="47.82477" lon="0.43979">
        <ele>115</ele>
        <time>2019-08-05T13:46:46Z</time>
      </trkpt>
      <trkpt lat="47.82481" lon="0.43974">
        <ele>116</ele>
        <time>2019-08-05T13:46:51Z</time>
      </trkpt>
      <trkpt lat="47.82485" lon="0.43963">
        <ele>117</ele>
        <time>2019-08-05T13:46:57Z</time>
      </trkpt>
      <trkpt lat="47.82488" lon="0.4396">
        <ele>118</ele>
        <time>2019-08-05T13:46:59Z</time>
      </trkpt>
      <trkpt lat="47.82492" lon="0.4396">
        <ele>118</ele>
        <time>2019-08-05T13:47:03Z</time>
      </trkpt>
      <trkpt lat="47.82496" lon="0.43961">
        <ele>119</ele>
        <time>2019-08-05T13:47:06Z</time>
      </trkpt>
      <trkpt lat="47.82516" lon="0.4396">
        <ele>123</ele>
        <time>2019-08-05T13:47:23Z</time>
      </trkpt>
      <trkpt lat="47.82519" lon="0.4396">
        <ele>124</ele>
        <time>2019-08-05T13:47:26Z</time>
      </trkpt>
      <trkpt lat="47.82534" lon="0.43959">
        <ele>124</ele>
        <time>2019-08-05T13:47:43Z</time>
      </trkpt>
      <trkpt lat="47.82549" lon="0.43951">
        <ele>124</ele>
        <time>2019-08-05T13:47:55Z</time>
      </trkpt>
      <trkpt lat="47.82553" lon="0.43951">
        <ele>124</ele>
        <time>2019-08-05T13:47:57Z</time>
      </trkpt>
      <trkpt lat="47.82574" lon="0.43936">
        <ele>125</ele>
        <time>2019-08-05T13:48:13Z</time>
      </trkpt>
      <trkpt lat="47.8258" lon="0.4393">
        <ele>126</ele>
        <time>2019-08-05T13:48:19Z</time>
      </trkpt>
      <trkpt lat="47.82589" lon="0.43924">
        <ele>126</ele>
        <time>2019-08-05T13:48:25Z</time>
      </trkpt>
      <trkpt lat="47.82596" lon="0.43922">
        <ele>128</ele>
        <time>2019-08-05T13:48:30Z</time>
      </trkpt>
      <trkpt lat="47.8262" lon="0.43916">
        <ele>125</ele>
        <time>2019-08-05T13:48:58Z</time>
      </trkpt>
      <trkpt lat="47.82637" lon="0.4391">
        <ele>109</ele>
        <time>2019-08-05T13:49:04Z</time>
      </trkpt>
      <trkpt lat="47.82652" lon="0.43905">
        <ele>111</ele>
        <time>2019-08-05T13:49:17Z</time>
      </trkpt>
      <trkpt lat="47.8266" lon="0.439">
        <ele>112</ele>
        <time>2019-08-05T13:49:25Z</time>
      </trkpt>
      <trkpt lat="47.82665" lon="0.43898">
        <ele>112</ele>
        <time>2019-08-05T13:49:28Z</time>
      </trkpt>
      <trkpt lat="47.82669" lon="0.43897">
        <ele>115</ele>
        <time>2019-08-05T13:49:31Z</time>
      </trkpt>
      <trkpt lat="47.82675" lon="0.43891">
        <ele>117</ele>
        <time>2019-08-05T13:49:36Z</time>
      </trkpt>
      <trkpt lat="47.82678" lon="0.43891">
        <ele>117</ele>
        <time>2019-08-05T13:49:38Z</time>
      </trkpt>
      <trkpt lat="47.82681" lon="0.4389">
        <ele>117</ele>
        <time>2019-08-05T13:49:40Z</time>
      </trkpt>
      <trkpt lat="47.82688" lon="0.43885">
        <ele>118</ele>
        <time>2019-08-05T13:49:44Z</time>
      </trkpt>
      <trkpt lat="47.82691" lon="0.43883">
        <ele>118</ele>
        <time>2019-08-05T13:49:46Z</time>
      </trkpt>
      <trkpt lat="47.82697" lon="0.43878">
        <ele>120</ele>
        <time>2019-08-05T13:49:52Z</time>
      </trkpt>
      <trkpt lat="47.8271" lon="0.43866">
        <ele>124</ele>
        <time>2019-08-05T13:50:03Z</time>
      </trkpt>
      <trkpt lat="47.82734" lon="0.43851">
        <ele>123</ele>
        <time>2019-08-05T13:50:20Z</time>
      </trkpt>
      <trkpt lat="47.82748" lon="0.43843">
        <ele>126</ele>
        <time>2019-08-05T13:50:33Z</time>
      </trkpt>
      <trkpt lat="47.82756" lon="0.43836">
        <ele>126</ele>
        <time>2019-08-05T13:50:40Z</time>
      </trkpt>
      <trkpt lat="47.82788" lon="0.43832">
        <ele>127</ele>
        <time>2019-08-05T13:51:08Z</time>
      </trkpt>
      <trkpt lat="47.8279" lon="0.43829">
        <ele>127</ele>
        <time>2019-08-05T13:51:10Z</time>
      </trkpt>
      <trkpt lat="47.82796" lon="0.43818">
        <ele>127</ele>
        <time>2019-08-05T13:51:16Z</time>
      </trkpt>
      <trkpt lat="47.82799" lon="0.43814">
        <ele>125</ele>
        <time>2019-08-05T13:51:19Z</time>
      </trkpt>
      <trkpt lat="47.82805" lon="0.43791">
        <ele>120</ele>
        <time>2019-08-05T13:51:30Z</time>
      </trkpt>
      <trkpt lat="47.82807" lon="0.43786">
        <ele>120</ele>
        <time>2019-08-05T13:51:33Z</time>
      </trkpt>
      <trkpt lat="47.8281" lon="0.43776">
        <ele>120</ele>
        <time>2019-08-05T13:51:38Z</time>
      </trkpt>
      <trkpt lat="47.82811" lon="0.43771">
        <ele>120</ele>
        <time>2019-08-05T13:51:40Z</time>
      </trkpt>
      <trkpt lat="47.82813" lon="0.43766">
        <ele>119</ele>
        <time>2019-08-05T13:51:44Z</time>
      </trkpt>
      <trkpt lat="47.82815" lon="0.43761">
        <ele>119</ele>
        <time>2019-08-05T13:51:47Z</time>
      </trkpt>
      <trkpt lat="47.82818" lon="0.43755">
        <ele>118</ele>
        <time>2019-08-05T13:51:50Z</time>
      </trkpt>
      <trkpt lat="47.82821" lon="0.43741">
        <ele>118</ele>
        <time>2019-08-05T13:51:56Z</time>
      </trkpt>
      <trkpt lat="47.82822" lon="0.43735">
        <ele>119</ele>
        <time>2019-08-05T13:51:59Z</time>
      </trkpt>
      <trkpt lat="47.82823" lon="0.43731">
        <ele>120</ele>
        <time>2019-08-05T13:52:01Z</time>
      </trkpt>
      <trkpt lat="47.82825" lon="0.43727">
        <ele>122</ele>
        <time>2019-08-05T13:52:03Z</time>
      </trkpt>
      <trkpt lat="47.82828" lon="0.43723">
        <ele>123</ele>
        <time>2019-08-05T13:52:05Z</time>
      </trkpt>
      <trkpt lat="47.8283" lon="0.43718">
        <ele>124</ele>
        <time>2019-08-05T13:52:08Z</time>
      </trkpt>
      <trkpt lat="47.82834" lon="0.4371">
        <ele>126</ele>
        <time>2019-08-05T13:52:14Z</time>
      </trkpt>
      <trkpt lat="47.82838" lon="0.43699">
        <ele>125</ele>
        <time>2019-08-05T13:52:20Z</time>
      </trkpt>
      <trkpt lat="47.82843" lon="0.43692">
        <ele>125</ele>
        <time>2019-08-05T13:52:25Z</time>
      </trkpt>
      <trkpt lat="47.82848" lon="0.43693">
        <ele>126</ele>
        <time>2019-08-05T13:52:28Z</time>
      </trkpt>
      <trkpt lat="47.82857" lon="0.43699">
        <ele>132</ele>
        <time>2019-08-05T13:52:35Z</time>
      </trkpt>
      <trkpt lat="47.8286" lon="0.43698">
        <ele>133</ele>
        <time>2019-08-05T13:52:39Z</time>
      </trkpt>
      <trkpt lat="47.82864" lon="0.43697">
        <ele>134</ele>
        <time>2019-08-05T13:52:42Z</time>
      </trkpt>
      <trkpt lat="47.82883" lon="0.43701">
        <ele>134</ele>
        <time>2019-08-05T13:52:57Z</time>
      </trkpt>
      <trkpt lat="47.82887" lon="0.43701">
        <ele>134</ele>
        <time>2019-08-05T13:53:01Z</time>
      </trkpt>
      <trkpt lat="47.82898" lon="0.43699">
        <ele>135</ele>
        <time>2019-08-05T13:53:09Z</time>
      </trkpt>
      <trkpt lat="47.82923" lon="0.43691">
        <ele>134</ele>
        <time>2019-08-05T13:53:28Z</time>
      </trkpt>
      <trkpt lat="47.82942" lon="0.43692">
        <ele>135</ele>
        <time>2019-08-05T13:53:40Z</time>
      </trkpt>
      <trkpt lat="47.82949" lon="0.43691">
        <ele>135</ele>
        <time>2019-08-05T13:53:45Z</time>
      </trkpt>
      <trkpt lat="47.82953" lon="0.43689">
        <ele>136</ele>
        <time>2019-08-05T13:53:48Z</time>
      </trkpt>
      <trkpt lat="47.82955" lon="0.43688">
        <ele>135</ele>
        <time>2019-08-05T13:53:50Z</time>
      </trkpt>
      <trkpt lat="47.82964" lon="0.43681">
        <ele>136</ele>
        <time>2019-08-05T13:53:57Z</time>
      </trkpt>
      <trkpt lat="47.82967" lon="0.43679">
        <ele>140</ele>
        <time>2019-08-05T13:53:59Z</time>
      </trkpt>
      <trkpt lat="47.8297" lon="0.43676">
        <ele>145</ele>
        <time>2019-08-05T13:54:02Z</time>
      </trkpt>
      <trkpt lat="47.82974" lon="0.43675">
        <ele>147</ele>
        <time>2019-08-05T13:54:05Z</time>
      </trkpt>
      <trkpt lat="47.82976" lon="0.43673">
        <ele>148</ele>
        <time>2019-08-05T13:54:08Z</time>
      </trkpt>
      <trkpt lat="47.82979" lon="0.43672">
        <ele>145</ele>
        <time>2019-08-05T13:54:10Z</time>
      </trkpt>
      <trkpt lat="47.82982" lon="0.43669">
        <ele>138</ele>
        <time>2019-08-05T13:54:12Z</time>
      </trkpt>
      <trkpt lat="47.82991" lon="0.4366">
        <ele>132</ele>
        <time>2019-08-05T13:54:19Z</time>
      </trkpt>
      <trkpt lat="47.83011" lon="0.43646">
        <ele>143</ele>
        <time>2019-08-05T13:54:33Z</time>
      </trkpt>
      <trkpt lat="47.83019" lon="0.43638">
        <ele>142</ele>
        <time>2019-08-05T13:54:40Z</time>
      </trkpt>
      <trkpt lat="47.8303" lon="0.43633">
        <ele>145</ele>
        <time>2019-08-05T13:54:50Z</time>
      </trkpt>
      <trkpt lat="47.83034" lon="0.43633">
        <ele>145</ele>
        <time>2019-08-05T13:54:53Z</time>
      </trkpt>
      <trkpt lat="47.83049" lon="0.43629">
        <ele>147</ele>
        <time>2019-08-05T13:55:05Z</time>
      </trkpt>
      <trkpt lat="47.83054" lon="0.43623">
        <ele>145</ele>
        <time>2019-08-05T13:55:09Z</time>
      </trkpt>
      <trkpt lat="47.83063" lon="0.43615">
        <ele>145</ele>
        <time>2019-08-05T13:55:17Z</time>
      </trkpt>
      <trkpt lat="47.83074" lon="0.43605">
        <ele>142</ele>
        <time>2019-08-05T13:55:28Z</time>
      </trkpt>
      <trkpt lat="47.83084" lon="0.43599">
        <ele>141</ele>
        <time>2019-08-05T13:55:35Z</time>
      </trkpt>
      <trkpt lat="47.8309" lon="0.43595">
        <ele>141</ele>
        <time>2019-08-05T13:55:39Z</time>
      </trkpt>
      <trkpt lat="47.83107" lon="0.43588">
        <ele>139</ele>
        <time>2019-08-05T13:55:54Z</time>
      </trkpt>
      <trkpt lat="47.83114" lon="0.43584">
        <ele>140</ele>
        <time>2019-08-05T13:56:00Z</time>
      </trkpt>
      <trkpt lat="47.83118" lon="0.43583">
        <ele>141</ele>
        <time>2019-08-05T13:56:03Z</time>
      </trkpt>
      <trkpt lat="47.83148" lon="0.43554">
        <ele>139</ele>
        <time>2019-08-05T13:56:29Z</time>
      </trkpt>
      <trkpt lat="47.83159" lon="0.43547">
        <ele>137</ele>
        <time>2019-08-05T13:56:42Z</time>
      </trkpt>
      <trkpt lat="47.83162" lon="0.43545">
        <ele>138</ele>
        <time>2019-08-05T13:57:15Z</time>
      </trkpt>
      <trkpt lat="47.83173" lon="0.43545">
        <ele>138</ele>
        <time>2019-08-05T13:57:22Z</time>
      </trkpt>
      <trkpt lat="47.83176" lon="0.43547">
        <ele>138</ele>
        <time>2019-08-05T13:57:24Z</time>
      </trkpt>
      <trkpt lat="47.83219" lon="0.43546">
        <ele>139</ele>
        <time>2019-08-05T13:57:56Z</time>
      </trkpt>
      <trkpt lat="47.83223" lon="0.43543">
        <ele>139</ele>
        <time>2019-08-05T13:58:00Z</time>
      </trkpt>
      <trkpt lat="47.83229" lon="0.4354">
        <ele>140</ele>
        <time>2019-08-05T13:58:06Z</time>
      </trkpt>
      <trkpt lat="47.83244" lon="0.4354">
        <ele>139</ele>
        <time>2019-08-05T13:58:14Z</time>
      </trkpt>
      <trkpt lat="47.8327" lon="0.43552">
        <ele>139</ele>
        <time>2019-08-05T13:58:33Z</time>
      </trkpt>
      <trkpt lat="47.83283" lon="0.43572">
        <ele>139</ele>
        <time>2019-08-05T13:58:47Z</time>
      </trkpt>
      <trkpt lat="47.833" lon="0.4359">
        <ele>138</ele>
        <time>2019-08-05T13:59:03Z</time>
      </trkpt>
      <trkpt lat="47.83303" lon="0.43587">
        <ele>138</ele>
        <time>2019-08-05T13:59:06Z</time>
      </trkpt>
      <trkpt lat="47.83307" lon="0.43575">
        <ele>139</ele>
        <time>2019-08-05T13:59:12Z</time>
      </trkpt>
      <trkpt lat="47.83309" lon="0.43571">
        <ele>139</ele>
        <time>2019-08-05T13:59:14Z</time>
      </trkpt>
      <trkpt lat="47.83312" lon="0.43568">
        <ele>139</ele>
        <time>2019-08-05T13:59:17Z</time>
      </trkpt>
      <trkpt lat="47.83321" lon="0.43568">
        <ele>138</ele>
        <time>2019-08-05T13:59:24Z</time>
      </trkpt>
      <trkpt lat="47.83332" lon="0.43569">
        <ele>136</ele>
        <time>2019-08-05T13:59:32Z</time>
      </trkpt>
      <trkpt lat="47.83347" lon="0.43566">
        <ele>137</ele>
        <time>2019-08-05T13:59:44Z</time>
      </trkpt>
      <trkpt lat="47.8335" lon="0.43564">
        <ele>137</ele>
        <time>2019-08-05T13:59:47Z</time>
      </trkpt>
      <trkpt lat="47.83354" lon="0.43561">
        <ele>137</ele>
        <time>2019-08-05T13:59:50Z</time>
      </trkpt>
      <trkpt lat="47.83402" lon="0.43556">
        <ele>133</ele>
        <time>2019-08-05T14:00:21Z</time>
      </trkpt>
      <trkpt lat="47.8341" lon="0.43556">
        <ele>133</ele>
        <time>2019-08-05T14:00:27Z</time>
      </trkpt>
      <trkpt lat="47.83417" lon="0.43554">
        <ele>134</ele>
        <time>2019-08-05T14:00:32Z</time>
      </trkpt>
      <trkpt lat="47.83435" lon="0.43552">
        <ele>136</ele>
        <time>2019-08-05T14:00:47Z</time>
      </trkpt>
      <trkpt lat="47.83464" lon="0.4354">
        <ele>133</ele>
        <time>2019-08-05T14:01:06Z</time>
      </trkpt>
      <trkpt lat="47.83503" lon="0.43515">
        <ele>128</ele>
        <time>2019-08-05T14:01:38Z</time>
      </trkpt>
      <trkpt lat="47.83518" lon="0.43502">
        <ele>127</ele>
        <time>2019-08-05T14:01:51Z</time>
      </trkpt>
      <trkpt lat="47.83521" lon="0.43501">
        <ele>127</ele>
        <time>2019-08-05T14:01:53Z</time>
      </trkpt>
      <trkpt lat="47.83537" lon="0.43486">
        <ele>126</ele>
        <time>2019-08-05T14:02:08Z</time>
      </trkpt>
      <trkpt lat="47.8354" lon="0.43484">
        <ele>126</ele>
        <time>2019-08-05T14:02:10Z</time>
      </trkpt>
      <trkpt lat="47.83543" lon="0.4348">
        <ele>126</ele>
        <time>2019-08-05T14:02:13Z</time>
      </trkpt>
      <trkpt lat="47.83573" lon="0.4346">
        <ele>124</ele>
        <time>2019-08-05T14:02:37Z</time>
      </trkpt>
      <trkpt lat="47.83583" lon="0.43452">
        <ele>123</ele>
        <time>2019-08-05T14:02:46Z</time>
      </trkpt>
      <trkpt lat="47.83588" lon="0.43446">
        <ele>123</ele>
        <time>2019-08-05T14:02:50Z</time>
      </trkpt>
      <trkpt lat="47.83614" lon="0.43427">
        <ele>122</ele>
        <time>2019-08-05T14:03:11Z</time>
      </trkpt>
      <trkpt lat="47.83621" lon="0.43421">
        <ele>122</ele>
        <time>2019-08-05T14:03:17Z</time>
      </trkpt>
      <trkpt lat="47.83625" lon="0.43418">
        <ele>122</ele>
        <time>2019-08-05T14:03:20Z</time>
      </trkpt>
      <trkpt lat="47.83628" lon="0.43415">
        <ele>121</ele>
        <time>2019-08-05T14:03:22Z</time>
      </trkpt>
      <trkpt lat="47.83637" lon="0.43378">
        <ele>122</ele>
        <time>2019-08-05T14:03:40Z</time>
      </trkpt>
      <trkpt lat="47.83638" lon="0.43374">
        <ele>119</ele>
        <time>2019-08-05T14:03:43Z</time>
      </trkpt>
      <trkpt lat="47.83639" lon="0.43369">
        <ele>117</ele>
        <time>2019-08-05T14:03:46Z</time>
      </trkpt>
      <trkpt lat="47.8364" lon="0.43364">
        <ele>116</ele>
        <time>2019-08-05T14:03:49Z</time>
      </trkpt>
      <trkpt lat="47.83641" lon="0.4336">
        <ele>115</ele>
        <time>2019-08-05T14:03:52Z</time>
      </trkpt>
      <trkpt lat="47.83645" lon="0.43352">
        <ele>119</ele>
        <time>2019-08-05T14:03:59Z</time>
      </trkpt>
      <trkpt lat="47.83652" lon="0.43304">
        <ele>114</ele>
        <time>2019-08-05T14:04:21Z</time>
      </trkpt>
      <trkpt lat="47.83658" lon="0.43279">
        <ele>116</ele>
        <time>2019-08-05T14:04:33Z</time>
      </trkpt>
      <trkpt lat="47.83659" lon="0.43273">
        <ele>116</ele>
        <time>2019-08-05T14:04:36Z</time>
      </trkpt>
      <trkpt lat="47.83659" lon="0.43267">
        <ele>116</ele>
        <time>2019-08-05T14:04:39Z</time>
      </trkpt>
      <trkpt lat="47.83662" lon="0.43258">
        <ele>115</ele>
        <time>2019-08-05T14:04:45Z</time>
      </trkpt>
      <trkpt lat="47.83664" lon="0.43246">
        <ele>115</ele>
        <time>2019-08-05T14:04:51Z</time>
      </trkpt>
      <trkpt lat="47.83662" lon="0.43237">
        <ele>115</ele>
        <time>2019-08-05T14:04:55Z</time>
      </trkpt>
      <trkpt lat="47.83663" lon="0.43232">
        <ele>115</ele>
        <time>2019-08-05T14:04:58Z</time>
      </trkpt>
      <trkpt lat="47.83664" lon="0.43226">
        <ele>115</ele>
        <time>2019-08-05T14:05:01Z</time>
      </trkpt>
      <trkpt lat="47.83667" lon="0.43221">
        <ele>115</ele>
        <time>2019-08-05T14:05:04Z</time>
      </trkpt>
      <trkpt lat="47.83669" lon="0.43219">
        <ele>116</ele>
        <time>2019-08-05T14:05:08Z</time>
      </trkpt>
      <trkpt lat="47.8367" lon="0.43214">
        <ele>115</ele>
        <time>2019-08-05T14:05:11Z</time>
      </trkpt>
      <trkpt lat="47.83671" lon="0.43208">
        <ele>115</ele>
        <time>2019-08-05T14:05:14Z</time>
      </trkpt>
      <trkpt lat="47.83671" lon="0.43193">
        <ele>115</ele>
        <time>2019-08-05T14:05:21Z</time>
      </trkpt>
      <trkpt lat="47.8367" lon="0.43188">
        <ele>114</ele>
        <time>2019-08-05T14:05:23Z</time>
      </trkpt>
      <trkpt lat="47.83664" lon="0.43175">
        <ele>114</ele>
        <time>2019-08-05T14:05:31Z</time>
      </trkpt>
      <trkpt lat="47.83648" lon="0.43162">
        <ele>113</ele>
        <time>2019-08-05T14:05:38Z</time>
      </trkpt>
      <trkpt lat="47.83646" lon="0.43156">
        <ele>112</ele>
        <time>2019-08-05T14:05:43Z</time>
      </trkpt>
      <trkpt lat="47.83647" lon="0.43149">
        <ele>114</ele>
        <time>2019-08-05T14:05:48Z</time>
      </trkpt>
      <trkpt lat="47.83651" lon="0.43148">
        <ele>121</ele>
        <time>2019-08-05T14:05:50Z</time>
      </trkpt>
      <trkpt lat="47.83647" lon="0.4314">
        <ele>124</ele>
        <time>2019-08-05T14:05:57Z</time>
      </trkpt>
      <trkpt lat="47.83648" lon="0.43136">
        <ele>125</ele>
        <time>2019-08-05T14:06:09Z</time>
      </trkpt>
      <trkpt lat="47.83651" lon="0.43136">
        <ele>125</ele>
        <time>2019-08-05T14:06:12Z</time>
      </trkpt>
      <trkpt lat="47.83655" lon="0.43138">
        <ele>125</ele>
        <time>2019-08-05T14:06:15Z</time>
      </trkpt>
      <trkpt lat="47.83658" lon="0.43138">
        <ele>126</ele>
        <time>2019-08-05T14:06:18Z</time>
      </trkpt>
      <trkpt lat="47.8366" lon="0.43129">
        <ele>126</ele>
        <time>2019-08-05T14:06:22Z</time>
      </trkpt>
      <trkpt lat="47.83661" lon="0.43124">
        <ele>125</ele>
        <time>2019-08-05T14:06:26Z</time>
      </trkpt>
      <trkpt lat="47.83663" lon="0.43065">
        <ele>127</ele>
        <time>2019-08-05T14:06:52Z</time>
      </trkpt>
      <trkpt lat="47.83664" lon="0.43061">
        <ele>128</ele>
        <time>2019-08-05T14:06:54Z</time>
      </trkpt>
      <trkpt lat="47.83664" lon="0.43056">
        <ele>128</ele>
        <time>2019-08-05T14:06:56Z</time>
      </trkpt>
      <trkpt lat="47.83663" lon="0.43051">
        <ele>128</ele>
        <time>2019-08-05T14:06:59Z</time>
      </trkpt>
      <trkpt lat="47.83667" lon="0.43039">
        <ele>127</ele>
        <time>2019-08-05T14:07:05Z</time>
      </trkpt>
      <trkpt lat="47.83671" lon="0.43029">
        <ele>127</ele>
        <time>2019-08-05T14:07:11Z</time>
      </trkpt>
      <trkpt lat="47.83706" lon="0.42992">
        <ele>125</ele>
        <time>2019-08-05T14:07:42Z</time>
      </trkpt>
      <trkpt lat="47.83724" lon="0.42979">
        <ele>124</ele>
        <time>2019-08-05T14:07:57Z</time>
      </trkpt>
      <trkpt lat="47.83727" lon="0.42977">
        <ele>123</ele>
        <time>2019-08-05T14:08:00Z</time>
      </trkpt>
      <trkpt lat="47.83739" lon="0.42977">
        <ele>122</ele>
        <time>2019-08-05T14:08:09Z</time>
      </trkpt>
      <trkpt lat="47.8375" lon="0.42979">
        <ele>122</ele>
        <time>2019-08-05T14:08:18Z</time>
      </trkpt>
      <trkpt lat="47.83758" lon="0.42979">
        <ele>121</ele>
        <time>2019-08-05T14:08:24Z</time>
      </trkpt>
      <trkpt lat="47.83762" lon="0.42981">
        <ele>121</ele>
        <time>2019-08-05T14:08:27Z</time>
      </trkpt>
      <trkpt lat="47.83765" lon="0.42983">
        <ele>120</ele>
        <time>2019-08-05T14:08:32Z</time>
      </trkpt>
    </trkseg>
  </trk>
</gpx>